GFSSW_850_thetae_000.txt.gz
Theta_e
312 312 311 311 311 311 311 311 311 311 311 310 310 309 310 311 312 314 315 316 318 317 316 316 317 316 317 319 320 319 312 313 315 318 317 317 315 317 317 316 316 317 317 317 317
310 310 310 310 310 311 311 312 312 312 312 312 312 311 310 310 310 311 313 316 317 317 316 316 318 318 318 319 320 318 312 313 314 317 316 317 316 317 315 315 314 316 317 317 317
310 310 310 310 310 311 311 312 312 312 313 313 312 312 312 311 312 314 318 317 315 316 316 316 318 318 318 319 319 317 314 314 318 319 319 317 315 317 314 312 315 317 318 316 316
311 311 311 311 311 311 311 311 312 312 312 312 313 313 312 311 310 317 314 313 317 316 315 315 317 318 317 316 319 317 317 317 318 320 317 316 317 315 315 317 317 317 317 317 316
312 312 312 312 312 312 312 312 312 312 312 313 313 313 312 311 313 314 314 314 315 317 316 315 316 318 316 316 317 316 316 319 319 318 318 317 315 314 316 317 317 317 316 316 317
310 310 311 311 312 312 312 312 312 312 313 313 313 313 311 310 314 314 314 314 314 314 315 315 315 316 317 316 315 316 316 316 317 318 317 316 315 316 317 316 317 316 316 316 316
311 311 310 310 310 310 310 312 312 313 313 314 314 313 310 314 315 315 314 314 314 313 314 315 315 316 315 315 316 316 314 311 314 315 313 314 313 311 317 316 317 317 317 316 316
313 313 313 313 313 313 312 311 310 310 311 311 312 311 311 315 315 315 314 314 313 313 313 313 314 315 315 315 314 314 313 313 312 311 314 314 314 312 318 316 317 317 317 317 316
312 312 313 313 313 313 314 314 314 313 311 308 307 309 311 314 314 315 314 314 314 314 313 313 314 315 314 311 311 310 311 310 311 312 312 311 313 312 316 316 316 317 318 318 317
315 313 311 311 312 313 313 314 314 314 311 308 309 311 311 314 315 315 315 315 313 313 312 312 313 310 309 309 312 311 310 310 311 312 311 311 312 313 316 314 314 316 317 317 317
320 316 314 314 314 313 312 312 311 312 312 310 312 312 314 315 315 315 315 314 313 313 310 312 310 311 312 310 312 309 309 310 310 311 313 311 312 313 314 314 311 313 314 315 316
321 321 318 318 319 312 313 310 310 311 310 313 311 312 312 314 315 315 314 313 312 311 310 311 311 311 310 309 311 311 311 311 311 310 309 311 311 312 310 313 314 313 313 314 316
324 321 321 321 320 319 313 310 307 308 308 309 311 309 309 309 311 313 314 313 310 310 310 312 312 311 310 310 311 311 311 312 312 310 308 308 311 309 309 311 312 313 314 315 316
325 324 323 321 319 319 316 313 308 308 304 307 309 309 310 310 309 311 312 313 310 311 309 309 311 311 310 311 311 313 310 311 310 311 312 309 313 310 309 309 309 311 314 314 316
324 325 324 323 321 320 318 314 307 309 313 309 310 310 311 308 308 308 310 310 309 310 310 310 311 310 310 312 310 313 310 310 311 310 310 311 311 313 309 309 309 311 314 316 316
324 325 324 322 321 321 320 311 309 307 312 309 308 308 309 310 309 307 308 309 308 307 306 308 308 309 309 309 307 309 311 309 306 308 312 311 311 312 308 310 310 309 313 316 317
322 323 322 322 321 320 320 319 321 314 311 313 310 309 309 309 309 306 306 306 307 308 307 307 307 307 309 310 308 310 310 310 309 308 313 309 308 313 311 311 308 310 314 317 317
318 320 322 322 320 320 319 317 323 320 313 314 317 309 311 310 310 307 306 306 304 306 306 308 311 307 306 309 308 308 310 313 311 312 314 304 310 312 309 310 313 312 312 313 313
316 319 320 321 320 319 317 319 322 319 318 320 319 321 316 310 310 310 306 306 306 305 309 308 310 308 307 308 309 308 309 310 311 297 306 312 310 311 310 309 308 309 311 311 313
315 318 320 317 319 317 314 320 318 314 317 318 321 319 319 314 318 313 312 308 309 305 307 308 311 309 307 307 307 308 308 311 309 313 311 310 311 314 311 312 307 307 308 312 311
311 315 316 316 316 313 316 317 316 316 316 317 319 320 317 318 317 315 315 312 312 309 308 309 310 311 307 307 309 307 309 308 310 312 316 316 314 309 309 309 309 307 313 312 310
308 312 314 316 312 312 315 314 315 314 316 315 315 316 318 317 319 320 320 317 316 312 315 311 313 316 315 308 305 305 309 310 312 313 309 312 314 313 312 311 311 310 312 313 311
307 310 312 314 314 315 313 313 314 314 314 315 316 315 315 317 318 317 317 316 316 315 317 315 315 317 316 314 310 305 307 308 309 308 314 316 315 312 312 311 312 311 311 311 312
304 308 310 310 312 313 313 314 314 314 314 314 314 314 313 314 314 315 314 314 315 314 314 314 315 316 316 314 313 312 309 307 308 310 311 311 311 311 311 311 312 312 312 311 310
300 303 306 308 309 310 311 311 312 311 311 312 312 312 313 313 313 313 313 311 310 311 313 313 316 315 315 315 315 315 315 314 313 313 314 313 312 311 311 312 312 312 312 311 310
297 301 301 303 303 307 308 308 310 309 309 310 310 310 310 310 309 309 307 306 307 306 306 307 313 314 315 314 312 314 314 314 313 313 313 313 313 313 312 312 311 312 312 311 310
295 297 297 299 299 300 303 304 306 303 305 306 305 302 304 303 301 300 301 301 303 304 305 306 308 311 313 310 309 311 313 313 313 313 313 314 312 306 305 306 310 309 301 302 302

GFSSW_850_thetae_003.txt.gz
Theta_e
311 311 311 310 310 311 311 311 312 312 312 312 311 310 310 310 310 311 313 315 317 317 316 316 317 317 317 318 319 318 310 311 313 315 317 316 314 316 316 315 315 316 317 317 317
310 310 310 310 310 310 310 311 311 312 312 312 312 312 312 312 312 313 312 313 316 317 316 316 317 317 317 318 320 317 309 311 311 314 316 316 315 316 315 315 313 316 317 317 317
310 310 310 310 310 310 311 311 311 311 312 312 313 312 312 312 313 314 316 316 314 316 316 315 317 317 317 317 319 316 313 312 316 318 317 316 314 317 313 311 315 316 317 317 316
312 312 312 311 311 311 311 311 311 311 312 312 312 313 312 312 310 316 314 314 313 315 316 315 316 317 316 315 318 316 316 316 317 318 318 315 317 314 315 317 317 317 316 316 316
311 311 312 312 312 312 312 312 312 312 312 312 313 313 313 311 313 314 313 313 314 315 316 315 315 316 315 314 316 315 315 318 319 317 318 318 315 313 315 317 317 317 317 316 316
310 310 310 310 311 311 312 312 312 312 313 313 313 313 313 310 314 314 314 314 314 314 315 315 314 316 316 315 314 315 315 315 316 316 317 315 316 315 317 316 316 316 316 316 316
313 313 313 313 313 313 312 311 311 311 312 312 312 313 312 314 315 315 315 315 314 313 314 314 314 315 314 313 314 315 313 310 310 313 312 315 312 310 316 315 317 317 318 318 317
313 313 313 313 314 314 314 315 315 314 312 311 309 308 311 314 315 315 315 314 313 313 313 313 313 314 314 313 312 312 311 311 311 310 313 313 311 313 315 316 317 318 317 318 317
317 314 312 310 311 312 313 313 314 314 314 313 309 307 309 311 313 314 314 313 313 313 313 312 313 314 313 310 310 308 310 309 310 310 311 310 311 311 315 316 316 316 317 317 317
321 319 315 312 311 311 311 311 313 313 312 310 308 309 309 311 313 314 315 314 313 313 312 312 313 309 307 308 311 310 309 308 309 311 309 311 310 311 316 312 313 314 315 316 316
323 321 320 317 317 315 311 310 311 312 312 312 312 310 313 314 314 315 315 314 313 312 309 311 309 309 311 309 311 309 308 308 309 309 311 310 311 311 312 313 313 313 313 313 314
325 324 322 320 320 317 316 309 308 309 309 312 314 311 311 313 314 315 314 313 312 310 308 309 309 310 309 309 309 309 310 310 311 310 308 309 310 309 308 311 312 313 313 313 313
324 324 324 323 323 319 318 315 308 307 308 310 310 309 310 310 311 312 313 313 310 308 308 312 311 309 309 309 310 309 310 311 311 309 307 307 311 310 307 308 311 313 312 313 314
325 325 324 324 322 320 318 317 307 307 306 307 309 309 310 310 309 310 312 312 310 310 308 308 310 310 309 309 309 312 308 310 310 310 312 309 312 310 310 310 309 310 312 314 315
324 323 324 323 323 321 319 319 307 310 320 312 309 310 311 308 307 308 311 311 309 310 309 308 310 309 309 311 308 311 309 308 308 308 309 310 309 312 309 309 308 308 312 316 316
322 324 325 323 322 321 320 319 312 312 319 312 308 309 309 309 309 307 309 309 308 307 306 307 307 308 308 308 307 308 309 307 305 307 311 310 310 314 309 310 310 309 315 316 315
322 323 323 322 321 320 319 319 320 320 315 315 310 309 308 308 309 306 307 308 308 309 308 306 306 306 308 309 307 309 308 309 308 308 312 308 308 314 311 309 308 311 310 313 314
318 319 319 321 319 320 319 317 323 320 315 314 315 310 316 309 312 307 305 307 305 306 305 308 314 306 305 308 308 307 308 310 310 311 313 304 309 314 310 309 310 310 311 313 315
312 315 318 318 319 319 318 321 318 319 317 319 318 320 317 310 312 309 306 306 307 305 310 307 308 306 305 306 308 307 308 308 310 304 310 311 309 310 308 309 309 308 310 312 314
309 311 315 317 319 318 316 319 317 315 316 317 320 319 318 309 316 310 310 307 308 304 305 308 309 308 306 306 306 307 307 309 307 311 312 310 311 313 311 312 309 307 306 310 313
307 312 313 315 317 314 316 317 316 316 317 317 318 319 317 318 317 318 318 312 309 310 305 308 311 313 309 308 312 306 307 307 308 310 314 314 314 313 313 308 307 308 312 312 310
305 310 311 317 313 313 316 314 315 315 316 316 315 317 317 316 317 318 318 315 316 313 314 311 314 317 315 308 307 307 308 308 310 312 310 312 314 313 313 309 309 311 313 312 313
306 309 309 314 314 315 313 314 314 314 314 315 316 315 314 315 316 315 315 314 316 315 316 313 314 317 316 311 309 311 312 311 312 310 311 312 313 311 312 312 312 311 311 312 312
303 305 308 310 310 311 312 312 313 313 313 314 314 313 313 314 313 314 313 311 310 311 311 312 315 317 318 314 313 314 311 311 311 313 312 312 311 311 311 311 311 310 309 304 303
299 302 304 305 308 307 308 308 309 310 312 313 312 313 313 313 312 312 311 308 306 307 307 310 313 312 312 312 313 313 313 313 314 312 312 313 314 313 312 305 300 301 298 296 296
296 298 300 299 301 304 306 306 307 307 308 309 309 309 308 310 310 309 304 305 306 305 304 305 307 308 309 307 308 310 310 309 309 307 308 308 309 295 293 293 294 294 292 292 293
294 295 297 297 298 300 301 303 304 302 304 304 302 303 305 304 298 298 298 299 301 301 300 302 304 304 305 303 303 304 304 304 305 305 304 305 295 293 292 292 291 292 291 292 293

GFSSW_850_thetae_006.txt.gz
Theta_e
311 310 310 310 310 310 310 311 311 311 312 312 312 312 312 311 312 312 313 312 316 317 316 315 316 316 316 317 318 317 310 310 313 312 314 315 314 316 316 315 314 316 317 317 317
310 310 310 310 310 310 310 310 311 311 311 312 312 312 312 312 312 314 314 313 313 317 317 316 316 317 316 317 318 316 308 310 309 310 314 315 314 317 315 316 313 316 317 317 317
310 311 311 311 311 311 311 311 311 311 311 312 312 312 312 312 313 313 315 314 313 315 316 315 316 317 317 316 318 314 313 310 314 315 316 315 314 317 313 312 316 316 316 316 316
312 312 312 312 312 312 312 311 311 311 311 311 312 312 313 312 310 315 315 314 313 314 315 315 316 317 315 315 317 316 315 315 315 317 316 315 316 313 314 318 317 317 317 316 316
310 310 310 311 311 311 312 312 312 312 312 312 312 313 313 312 313 314 314 313 313 314 315 315 315 315 314 313 314 314 314 317 318 316 317 317 315 313 315 317 317 317 316 316 316
312 312 312 312 312 312 311 311 311 311 312 312 312 312 312 310 314 314 314 314 314 314 315 315 314 314 315 314 313 313 314 313 314 315 315 314 314 314 315 316 316 315 316 316 316
314 314 314 314 314 314 314 314 314 313 312 311 311 310 310 313 314 315 315 315 314 314 314 315 314 314 313 312 313 314 312 309 309 312 310 313 312 309 316 315 315 315 316 317 317
315 314 313 312 312 312 312 313 314 315 315 314 313 310 308 312 313 314 315 314 313 313 313 313 313 313 313 312 311 311 310 311 310 309 311 312 310 310 314 314 314 316 316 316 316
321 320 317 314 313 311 311 310 311 313 313 313 312 309 309 311 310 311 312 313 312 312 312 312 312 312 312 309 309 307 309 308 308 309 309 308 309 309 314 313 314 315 315 315 315
323 323 321 320 318 317 315 312 310 310 311 311 309 309 312 313 311 312 313 312 312 312 312 311 312 308 306 307 310 309 307 307 307 309 307 309 309 309 313 312 310 311 313 313 314
325 325 324 323 321 320 318 315 311 310 311 313 313 312 310 311 311 313 314 313 312 312 309 310 308 309 310 307 309 308 307 306 307 308 308 310 310 309 310 310 311 311 311 312 312
324 324 324 324 323 323 319 317 312 310 310 313 312 312 312 311 313 314 312 312 311 310 307 307 308 309 309 308 308 308 308 309 309 309 307 308 309 309 309 310 311 311 312 311 313
324 324 324 324 324 322 321 317 316 307 308 313 313 309 310 310 310 311 312 312 310 308 307 310 310 309 308 308 309 307 308 310 309 308 306 305 310 307 308 308 310 311 313 311 313
325 324 324 324 323 322 321 320 316 308 310 310 308 309 309 309 308 308 311 311 309 310 307 308 308 309 308 308 308 310 307 308 309 308 310 307 311 308 308 308 307 309 311 314 315
323 322 323 322 323 323 321 320 314 311 322 313 308 310 311 308 307 307 310 311 309 309 308 309 309 309 309 309 307 310 309 307 307 307 307 308 307 311 307 309 308 307 312 311 314
321 322 322 323 323 322 321 319 314 315 323 315 307 308 309 309 308 308 309 309 308 307 306 307 307 307 308 306 306 307 308 306 305 306 309 309 308 314 308 309 310 309 314 313 314
318 319 321 322 322 320 320 319 321 323 316 316 310 308 308 308 309 306 307 308 308 312 310 307 306 306 307 308 306 308 307 308 308 308 311 307 307 312 310 310 308 307 311 312 313
315 315 316 318 320 320 319 318 321 318 317 314 313 312 315 310 312 306 305 307 304 306 305 310 319 307 304 307 308 305 308 309 312 309 314 303 309 315 311 309 311 310 310 310 312
310 310 312 312 316 319 318 321 319 315 315 317 318 319 317 311 313 308 305 307 308 304 314 309 311 306 304 306 307 306 308 308 310 310 309 312 309 309 310 307 307 308 309 310 312
307 308 311 309 315 318 316 318 315 315 316 317 320 318 318 313 311 308 308 307 308 304 306 310 311 307 306 305 305 306 306 309 307 312 313 310 311 312 312 312 308 306 306 311 312
302 307 309 309 314 313 316 316 316 316 316 316 318 319 318 318 314 317 318 313 307 309 304 306 310 312 312 308 310 309 307 306 307 310 315 316 314 310 312 311 307 305 311 307 304
301 307 308 314 312 312 314 314 314 314 314 313 315 316 316 316 317 316 317 315 313 310 309 307 315 317 314 310 307 307 311 310 313 313 310 312 313 310 309 310 306 301 300 301 302
305 306 307 312 310 311 312 313 313 313 313 314 315 314 314 315 316 316 315 313 314 313 315 313 314 315 314 310 308 312 312 312 313 312 315 316 314 311 309 303 299 296 294 294 294
301 301 306 309 308 310 309 309 310 311 312 312 313 313 313 313 312 314 314 311 309 309 310 309 311 314 314 312 312 314 312 312 313 315 314 313 312 311 300 297 294 295 292 292 292
298 300 301 301 305 306 307 308 308 308 308 309 310 311 311 312 312 312 311 310 307 306 306 308 311 311 311 311 310 309 308 307 309 309 311 310 310 306 294 293 293 293 292 292 292
296 296 298 298 298 301 303 304 306 305 305 306 306 306 306 307 308 308 307 304 306 304 303 304 305 304 303 302 302 304 305 304 305 304 305 306 304 293 292 292 292 292 292 291 291
293 294 295 296 296 298 297 300 301 299 300 299 298 301 303 302 299 298 297 298 299 300 300 301 303 302 302 300 300 300 300 302 302 302 299 301 294 291 291 291 290 290 292 290 290

GFSSW_850_thetae_009.txt.gz
Theta_e
310 310 310 310 310 310 310 310 310 311 311 311 312 312 312 312 312 313 313 313 312 315 316 315 315 316 316 316 317 317 312 312 313 311 313 314 313 314 315 316 314 316 317 317 317
310 310 310 310 310 310 310 310 310 310 311 311 311 312 312 312 313 313 314 313 311 315 316 315 315 316 316 316 317 315 311 311 310 309 312 315 314 316 315 316 314 315 316 316 316
311 311 311 311 311 311 311 311 311 311 311 311 311 311 312 312 313 313 314 314 313 313 316 315 315 316 316 316 317 314 314 311 312 313 313 314 313 315 314 313 317 317 317 317 316
312 312 312 311 311 311 312 312 312 312 312 312 312 312 312 312 310 314 315 313 313 313 315 315 315 316 315 314 316 315 315 314 315 316 315 314 315 313 315 317 316 316 316 316 316
310 310 310 310 311 311 311 311 311 311 312 312 312 312 312 311 313 313 313 313 313 313 314 315 315 315 314 313 313 313 313 316 316 315 316 316 315 313 315 316 315 315 315 315 315
314 314 314 315 314 314 314 314 314 313 312 312 311 311 310 309 313 314 314 313 313 313 314 314 314 315 314 313 313 312 313 313 313 314 314 313 314 313 314 314 315 315 315 315 315
315 314 314 314 314 313 313 314 315 315 315 315 314 312 310 312 313 314 314 314 313 314 314 314 314 314 313 311 312 312 312 309 309 311 310 311 311 310 315 314 314 314 315 315 316
317 318 317 316 314 314 312 312 312 313 313 314 314 313 311 313 312 312 312 312 312 313 313 313 313 313 313 312 310 310 309 310 310 308 310 312 312 310 313 312 313 314 314 314 315
322 322 321 321 320 318 317 315 313 311 310 311 312 311 312 315 312 311 309 310 311 311 312 312 312 312 311 308 308 307 309 307 308 308 309 309 310 309 312 311 311 312 313 314 314
324 324 324 324 323 322 321 318 317 312 310 310 310 309 313 313 312 311 311 311 311 311 311 311 311 308 304 307 310 309 307 306 307 310 306 308 308 309 311 311 310 311 311 312 312
324 324 324 324 323 323 323 319 317 312 312 312 313 312 313 311 311 312 312 312 311 311 309 309 308 309 309 307 307 308 306 306 307 307 307 310 309 309 309 309 309 310 311 311 312
324 324 323 323 324 324 322 320 316 314 311 319 319 313 312 311 311 312 311 312 311 309 306 307 309 309 307 306 307 307 308 309 308 308 306 308 310 310 309 310 310 310 310 311 313
325 325 324 324 323 323 322 320 320 313 308 315 314 311 311 311 310 310 311 312 310 307 306 309 310 307 308 308 308 307 308 309 308 306 306 305 308 307 309 308 310 312 311 312 311
324 325 324 324 322 322 322 321 320 314 311 312 309 309 308 308 307 308 310 310 309 309 306 307 307 308 307 309 307 309 307 307 307 308 309 307 311 308 310 308 307 309 310 312 312
323 323 322 321 322 322 321 320 319 313 325 314 308 309 310 308 307 307 309 310 309 308 307 309 307 308 308 309 306 309 308 308 307 307 307 307 307 309 307 309 308 308 311 311 312
321 321 321 321 321 322 321 320 317 318 324 316 307 308 309 308 307 308 308 308 307 307 306 306 306 306 307 306 306 306 307 304 304 306 309 309 308 311 308 310 309 308 313 311 312
316 317 318 319 322 321 320 320 320 323 317 317 311 307 307 307 308 306 307 307 307 312 311 307 306 306 307 308 305 308 307 309 309 308 311 306 307 311 310 309 308 309 310 308 311
314 314 315 317 318 319 319 318 321 318 317 314 313 312 315 312 312 306 306 307 305 306 305 312 318 307 304 308 309 305 307 312 313 312 315 302 312 316 307 310 310 308 306 306 305
311 310 310 311 313 318 318 320 319 315 315 317 317 319 316 313 313 309 306 308 308 305 313 309 310 306 303 305 306 306 307 308 310 308 311 312 310 312 311 306 305 303 301 300 300
308 307 307 308 309 317 316 318 318 313 315 316 318 317 317 314 314 311 310 308 307 304 306 309 316 309 307 305 305 306 306 309 307 311 313 312 312 313 311 305 302 301 299 296 296
305 303 306 307 313 314 313 313 314 315 316 316 317 318 316 317 314 314 316 314 309 309 304 307 310 312 310 307 307 306 306 306 307 310 314 316 315 309 304 302 300 297 295 294 294
299 304 306 314 312 312 313 312 312 313 313 313 314 315 315 315 315 315 315 315 313 308 307 306 312 313 312 309 307 308 310 310 315 316 311 315 316 309 299 298 295 292 292 293 294
303 304 308 311 310 311 310 311 312 311 311 313 313 312 312 313 313 313 313 311 312 312 314 313 314 315 314 310 309 312 312 311 311 311 315 315 315 306 300 298 295 293 292 291 291
300 299 304 309 309 308 308 308 309 309 310 311 311 311 310 311 310 311 311 310 309 309 309 309 311 313 314 311 311 312 311 310 311 314 312 313 313 309 298 295 294 294 293 291 291
298 298 301 304 302 304 306 304 306 305 306 306 306 308 308 309 308 309 309 308 307 307 306 308 310 310 309 308 307 305 304 304 304 305 307 306 305 305 293 292 292 291 293 292 289
296 295 297 298 299 300 302 302 303 303 304 303 303 303 303 304 305 306 305 304 305 303 303 303 307 303 302 303 301 302 301 301 301 301 302 303 304 292 292 291 291 289 291 290 288
293 295 294 294 295 296 296 300 297 298 299 296 296 298 299 299 298 298 297 297 298 300 301 302 302 301 303 301 299 300 298 299 299 299 299 300 293 289 290 291 289 289 290 288 288

GFSSW_850_thetae_012.txt.gz
Theta_e
310 310 310 310 310 310 310 310 310 310 310 311 311 311 312 312 312 313 313 313 313 312 315 316 315 316 316 316 317 317 320 320 319 318 318 317 317 314 316 316 315 316 317 318 317
310 310 310 311 311 311 311 311 311 311 311 311 311 311 311 312 312 313 314 313 312 313 315 316 315 316 317 317 318 319 320 319 318 317 317 317 316 317 316 317 318 316 316 317 317
311 312 312 312 312 312 312 312 312 312 312 311 311 311 311 312 312 313 314 314 313 313 315 315 315 316 317 317 318 319 320 319 317 315 314 316 316 315 317 318 318 318 317 317 316
312 312 312 312 311 311 311 311 312 312 312 312 312 312 312 312 314 313 315 313 313 313 314 315 315 317 318 319 317 319 318 318 318 316 316 317 316 316 316 317 317 317 316 316 315
311 311 311 312 313 314 314 314 314 314 313 312 312 312 311 310 313 313 313 313 313 313 314 315 315 317 318 317 316 317 318 317 317 315 315 316 316 317 316 316 316 316 315 314 314
315 316 316 316 316 316 316 317 317 317 317 317 315 313 311 310 313 313 313 313 312 313 313 314 315 315 315 315 316 315 315 315 314 315 315 315 316 314 315 315 314 315 314 315 314
315 315 315 315 315 314 314 314 314 314 314 315 316 315 314 314 313 313 313 313 313 313 314 314 314 314 314 315 313 313 315 315 315 314 314 313 315 315 315 314 313 314 315 314 315
318 319 319 319 318 318 317 316 315 314 313 312 313 313 314 316 315 313 311 310 312 313 314 314 313 313 313 312 313 314 313 315 316 312 312 314 315 316 315 312 313 314 314 314 314
321 322 323 322 322 322 322 321 319 318 315 310 310 312 313 313 313 313 310 309 311 312 313 312 312 313 312 314 315 314 315 315 315 313 313 314 315 315 314 312 313 313 313 314 313
324 324 324 324 324 323 323 323 322 317 312 311 310 310 312 313 312 311 311 310 310 311 311 311 312 314 312 314 316 317 316 315 314 315 314 313 313 313 312 312 312 313 313 313 313
325 324 324 323 323 324 324 323 321 317 316 316 316 313 314 313 311 311 311 311 311 311 314 311 314 315 316 315 315 313 314 314 315 314 313 314 314 314 313 313 313 313 313 314 313
324 324 324 323 323 323 323 322 320 318 316 321 322 320 317 312 311 311 311 311 311 314 310 312 314 315 313 312 312 313 314 314 315 314 311 313 313 313 314 313 314 313 313 313 312
325 325 324 324 323 322 322 321 321 317 312 317 315 313 313 312 310 311 311 311 312 312 312 315 316 312 311 313 313 313 314 315 315 313 312 312 316 315 315 312 313 311 311 311 310
324 323 323 323 322 321 322 321 320 314 320 319 312 309 308 308 309 308 310 310 311 313 311 312 310 311 311 312 313 314 314 313 312 312 318 312 319 318 317 315 313 313 312 311 309
320 321 322 322 321 321 322 321 318 313 326 316 309 309 310 308 307 307 309 310 312 312 311 314 311 310 312 313 311 314 310 310 310 312 312 315 314 319 313 314 314 313 310 309 306
320 321 321 321 320 320 321 320 319 321 325 320 308 309 310 308 307 307 308 308 307 310 309 312 306 309 312 309 309 308 311 310 310 312 317 317 315 317 315 314 313 310 307 304 304
317 317 317 316 319 321 320 320 323 324 319 320 314 309 309 309 309 308 310 311 314 316 317 314 310 308 307 310 308 309 312 320 321 320 320 313 313 316 315 312 308 308 305 303 302
315 315 316 316 317 319 318 320 323 320 321 315 315 314 319 315 313 309 311 316 310 310 316 318 320 311 308 313 318 312 314 319 320 321 319 310 315 316 313 307 305 304 303 301 301
312 311 312 312 313 316 318 318 319 319 318 318 318 319 319 316 315 314 312 315 313 311 319 319 319 308 306 307 311 312 313 313 315 317 317 316 316 316 313 307 306 303 301 299 298
308 308 308 309 309 314 317 315 315 314 316 317 319 318 319 318 316 315 317 312 312 309 307 313 317 315 312 306 307 310 311 313 312 315 318 315 315 316 312 309 305 302 299 297 296
306 305 306 307 309 313 314 314 313 314 315 317 318 318 317 317 317 317 316 314 312 315 307 311 315 316 311 313 313 311 309 309 310 312 317 318 316 312 311 305 303 299 296 295 295
302 306 305 310 313 312 313 312 312 312 312 314 315 316 316 315 315 314 314 314 313 313 314 314 313 316 314 313 309 309 312 311 313 315 313 313 315 306 302 300 297 295 294 294 294
300 302 309 311 312 312 311 311 311 311 311 312 312 313 313 313 313 312 312 311 311 313 314 313 314 316 314 313 310 313 314 313 313 312 317 318 316 305 300 298 298 296 294 293 291
300 304 306 310 309 309 310 310 310 309 310 311 311 311 311 311 310 310 310 310 309 310 309 309 311 313 313 313 312 314 313 309 310 312 313 313 313 311 308 302 297 294 294 293 290
299 300 302 307 306 308 307 306 307 307 306 306 307 308 306 307 306 307 307 307 307 306 306 308 311 309 309 309 309 309 308 307 307 307 307 307 307 306 306 301 294 291 292 293 289
296 299 298 300 301 303 305 305 306 305 304 304 304 304 303 303 303 305 304 304 304 303 304 305 306 305 305 305 306 306 306 305 304 304 304 303 303 302 294 292 292 290 291 292 289
295 295 296 297 298 301 302 302 301 301 298 298 298 299 300 301 299 298 299 299 300 300 301 302 303 303 304 303 303 303 302 301 301 302 302 301 300 293 292 292 292 290 290 291 289

GFSSW_850_thetae_015.txt.gz
Theta_e
310 310 310 310 310 310 310 310 310 310 310 310 311 311 311 312 312 312 313 313 313 312 315 316 316 316 316 320 319 319 321 321 321 320 319 319 319 318 318 317 318 318 318 318 318
310 310 311 311 312 312 312 312 312 312 311 311 311 311 311 311 312 312 313 313 313 312 313 316 318 317 320 320 320 320 322 321 321 319 319 318 318 318 318 318 318 319 319 319 318
311 312 312 312 312 312 312 312 312 312 312 312 312 312 312 312 313 314 313 313 313 313 314 317 317 318 319 320 321 321 321 320 320 319 318 318 317 317 318 318 318 318 318 318 318
312 312 312 312 311 312 312 313 313 313 313 313 312 312 312 312 316 312 315 314 313 313 314 315 317 318 319 320 319 321 319 319 319 319 318 318 317 318 317 317 317 317 317 317 317
311 311 312 313 315 316 317 318 318 318 318 317 316 314 312 313 314 314 313 313 313 313 315 316 317 317 318 318 318 319 319 318 318 318 318 317 317 317 317 317 317 317 317 317 317
313 315 316 316 316 316 316 316 316 316 317 317 317 316 314 314 314 313 313 313 312 313 315 316 316 317 317 317 317 317 317 317 316 316 316 316 317 316 316 316 316 316 316 316 316
316 316 316 316 316 316 316 316 316 315 315 314 314 314 314 316 317 314 313 313 313 312 316 316 315 315 316 317 317 315 316 317 317 317 317 315 316 317 317 317 316 315 315 315 315
317 317 318 319 320 320 320 319 319 318 317 315 312 311 314 315 316 315 312 311 312 313 314 314 314 315 315 315 315 316 316 317 318 316 315 315 316 317 316 315 315 315 315 315 315
319 320 321 322 323 323 323 323 323 322 321 316 311 310 315 313 313 313 311 310 310 312 313 313 313 315 315 316 317 318 318 319 318 317 316 315 316 316 315 315 315 315 315 315 315
322 323 323 323 323 324 324 324 323 321 317 313 310 311 312 312 312 312 311 309 311 312 312 313 314 315 316 316 319 320 320 319 318 319 316 317 317 317 316 316 316 316 316 316 316
326 325 324 324 323 323 323 324 322 320 318 316 318 314 317 315 313 311 311 310 312 313 315 314 315 316 318 318 318 317 317 318 318 318 318 317 316 316 317 317 317 317 317 316 314
324 324 324 324 323 323 323 321 321 319 318 321 323 321 318 315 313 311 311 312 313 315 314 314 315 317 317 315 316 316 317 317 317 318 314 316 317 316 317 317 317 316 315 314 312
323 323 323 323 323 322 322 321 321 319 315 320 316 314 313 314 315 315 311 313 314 315 315 317 319 316 315 316 316 316 316 316 317 316 316 317 318 320 319 319 318 314 313 311 309
323 323 323 323 322 322 321 321 320 316 321 321 315 311 309 310 313 309 310 312 314 317 318 317 316 314 314 314 315 316 317 315 315 316 319 316 319 318 319 319 315 312 312 309 307
322 322 322 322 323 322 321 321 320 316 324 318 311 310 309 310 309 309 309 310 314 315 314 316 314 313 315 315 315 316 312 313 314 316 317 318 319 319 318 318 316 312 309 308 306
320 320 321 322 321 321 320 321 319 322 325 321 311 312 312 310 310 309 310 309 309 312 313 314 309 311 314 313 312 311 312 314 315 317 320 319 318 318 316 315 312 310 308 306 305
319 319 320 320 321 320 321 320 325 326 321 321 315 311 312 312 312 311 313 313 316 318 319 318 316 312 310 313 311 311 313 320 322 323 324 319 316 317 317 315 313 310 306 305 304
317 316 316 317 317 319 318 321 325 320 321 318 318 318 320 318 316 314 315 318 317 314 318 319 319 316 311 313 316 316 317 321 322 323 323 319 319 318 313 310 308 307 305 303 302
314 314 314 316 315 316 317 320 321 319 318 319 318 319 319 318 316 318 318 317 317 316 317 318 318 317 311 312 312 315 315 314 317 317 319 318 316 316 314 310 307 304 302 301 300
312 310 310 311 313 316 317 317 317 315 317 318 319 318 319 319 318 318 317 315 316 311 311 315 316 315 313 310 313 313 315 319 316 319 318 315 314 315 315 313 307 304 301 300 299
311 310 311 308 310 314 314 314 313 313 315 317 318 318 317 316 317 318 317 316 314 314 311 313 315 315 314 314 314 313 312 312 312 313 316 317 316 312 312 310 306 301 299 298 297
305 308 306 309 312 312 314 312 311 313 313 314 314 315 316 315 315 315 316 314 314 313 314 313 313 314 313 312 313 314 314 314 316 317 314 314 315 313 307 304 301 299 297 296 295
306 307 307 311 312 313 311 311 311 312 312 313 314 313 313 313 314 313 312 311 312 311 313 312 313 313 312 309 312 314 313 314 315 314 316 316 315 308 303 302 300 300 298 296 293
304 306 307 310 310 311 311 311 311 310 311 311 311 310 311 311 311 310 310 310 310 310 309 310 309 311 312 309 310 311 312 312 312 313 313 313 311 309 309 306 303 301 297 296 293
301 303 305 308 309 310 309 308 308 309 308 308 308 309 308 308 308 308 307 307 307 307 307 307 309 307 307 307 307 308 307 307 307 308 309 308 308 307 306 305 301 297 294 294 292
300 301 301 305 306 308 307 307 307 306 306 306 306 306 307 307 306 304 304 304 304 303 304 304 305 304 303 303 303 304 304 305 306 306 306 305 304 304 298 296 295 294 292 292 293
296 296 300 301 303 306 308 307 305 305 303 302 303 303 303 303 302 301 300 301 302 302 301 300 301 302 301 301 301 301 301 301 303 303 303 302 301 295 297 295 294 293 291 291 291

GFSSW_850_thetae_021.txt.gz
Theta_e
310 310 310 310 311 311 311 311 311 311 311 311 311 312 312 312 312 313 313 313 313 312 312 315 316 316 317 320 319 318 313 314 318 317 316 318 316 318 317 317 317 317 317 318 317
310 310 311 311 312 312 312 312 312 312 312 312 312 313 313 313 313 314 314 313 312 312 312 314 317 317 318 320 320 317 313 317 317 316 317 317 316 316 316 316 316 316 316 317 317
310 311 312 312 312 312 312 312 312 313 313 314 313 313 313 313 313 316 313 312 312 313 313 316 318 318 318 319 320 319 315 316 318 318 318 317 317 317 315 313 316 316 317 316 317
311 312 312 312 312 312 313 315 317 318 319 319 318 318 317 315 313 313 313 313 313 313 313 314 317 317 317 317 319 318 318 318 317 318 317 317 317 317 317 316 316 316 316 317 316
312 312 311 312 313 316 318 319 319 319 318 318 317 317 317 316 316 315 314 313 313 312 313 314 316 317 316 316 316 316 317 318 318 318 317 316 316 315 316 316 316 316 316 316 316
311 311 313 315 317 318 318 318 317 317 317 317 316 315 314 314 318 316 314 313 312 312 313 315 316 316 316 316 314 315 314 315 315 315 315 314 314 315 316 316 316 316 316 316 315
312 314 316 317 318 318 318 318 318 319 319 319 318 315 313 315 317 317 316 312 312 312 314 315 316 316 315 314 315 315 314 312 314 314 313 315 314 313 316 316 316 317 316 315 313
315 316 317 317 318 319 319 320 320 321 321 322 320 316 313 315 315 315 315 314 312 312 313 316 316 316 315 315 314 314 313 313 313 314 314 313 313 313 316 316 316 316 315 312 312
316 317 317 319 320 321 321 321 321 322 322 321 316 313 314 313 313 313 313 312 312 312 313 315 315 314 314 312 312 312 312 313 314 314 313 312 311 313 316 315 316 315 312 311 309
316 318 319 320 322 322 323 322 322 322 321 316 312 314 314 313 313 312 311 311 312 311 312 312 313 310 309 310 311 313 313 314 314 314 313 313 310 310 315 315 314 312 309 308 308
317 319 321 323 323 323 323 322 322 322 320 319 318 314 316 314 313 313 312 311 311 313 311 312 310 310 310 310 311 312 314 313 312 313 313 313 312 311 314 315 313 308 307 307 305
318 320 322 323 322 323 323 321 322 321 320 320 320 321 321 321 316 314 312 311 312 311 312 311 311 311 311 312 313 313 313 312 312 313 314 312 312 311 312 313 312 308 307 306 305
320 323 323 323 323 322 322 321 321 320 316 319 319 320 319 318 316 314 313 312 311 311 311 311 313 313 313 314 314 313 313 313 313 312 312 313 312 313 313 308 307 307 306 306 304
322 323 324 323 323 322 322 321 321 319 315 318 315 313 313 315 313 312 311 312 313 312 311 311 312 313 313 314 313 314 312 313 313 311 312 313 313 312 311 308 306 305 305 304 303
323 323 324 323 324 323 322 321 321 316 321 315 311 311 310 312 310 309 310 311 312 313 312 315 312 312 313 313 311 312 311 311 312 311 312 312 313 312 309 309 307 304 304 303 302
322 324 324 324 323 322 323 321 320 319 324 314 309 311 310 309 309 309 309 310 310 311 311 311 310 311 311 311 312 309 311 310 309 310 312 312 313 313 310 310 306 304 303 302 302
324 324 323 323 321 321 322 320 322 324 321 315 312 310 311 310 309 310 309 308 310 313 312 312 311 310 310 311 310 310 310 314 313 311 314 313 313 313 310 308 306 303 302 302 302
324 324 321 321 321 322 321 320 323 323 321 315 314 313 317 310 311 310 311 312 310 313 312 315 317 311 309 311 311 310 314 314 316 313 310 312 313 313 304 303 303 302 301 301 300
323 320 320 321 322 321 319 320 322 319 318 318 318 318 318 317 316 313 312 314 314 311 315 314 315 311 310 310 311 312 313 312 314 305 310 312 312 307 304 302 301 300 301 300 299
319 318 318 318 318 319 318 320 318 317 316 317 319 318 316 317 316 314 315 313 312 310 312 313 315 312 309 310 311 313 312 314 312 311 311 313 312 311 307 303 300 299 299 299 298
317 316 316 316 317 318 317 317 316 315 315 316 316 317 315 316 316 315 316 314 311 310 311 312 313 312 311 312 312 311 310 311 312 312 312 309 309 307 307 302 300 299 300 299 300
316 312 313 314 311 312 314 313 313 312 313 314 314 314 315 315 315 314 316 314 313 312 312 312 312 309 311 309 308 309 310 311 311 310 308 311 311 304 302 302 301 300 301 301 300
312 309 310 311 312 312 312 313 313 312 312 313 313 313 312 313 314 313 314 310 312 311 312 311 309 304 304 306 310 311 310 309 309 310 311 312 307 302 301 300 301 301 301 299 299
308 308 308 312 310 310 312 312 312 312 310 311 311 311 312 312 310 311 310 310 310 309 309 309 309 304 305 301 306 305 305 304 307 302 302 304 304 303 303 301 302 302 302 303 300
306 306 308 308 310 310 310 310 311 310 310 310 310 310 311 312 310 310 309 308 308 308 308 306 303 306 306 305 304 304 303 303 303 303 303 302 301 302 301 298 297 296 297 300 297
302 302 305 305 308 310 309 308 309 308 309 309 309 309 309 310 307 303 304 304 304 305 305 304 299 301 297 302 301 301 301 300 300 300 299 299 299 299 296 296 295 293 293 293 292
300 301 302 303 302 307 308 308 307 307 304 305 307 307 305 301 301 300 300 300 300 301 300 299 296 291 294 298 296 293 296 297 297 297 297 297 296 292 294 294 292 292 292 291 291

GFSSW_850_thetae_024.txt.gz
Theta_e
310 310 310 310 310 311 311 311 312 312 312 312 312 312 312 313 313 313 313 313 313 312 312 314 315 316 316 319 318 318 311 313 316 316 315 316 314 317 316 316 316 316 317 316 316
309 310 310 311 311 312 312 312 312 312 312 312 313 313 313 313 314 314 314 313 313 312 312 314 316 316 318 319 319 315 310 313 315 315 316 316 316 316 316 315 315 315 315 316 316
309 310 311 312 312 312 312 312 313 314 315 315 316 316 316 315 314 315 312 312 312 312 313 316 317 317 317 319 319 317 313 314 316 317 316 316 316 316 315 313 316 315 315 316 316
310 311 312 312 312 312 313 314 317 318 319 319 320 319 319 318 313 313 313 312 312 312 313 314 317 317 316 315 318 317 318 317 318 318 316 315 316 316 316 316 316 315 315 315 315
311 312 312 312 312 314 316 318 319 319 318 317 317 316 316 317 319 317 314 313 313 312 312 313 315 316 315 315 315 315 315 317 317 317 316 316 315 313 315 316 315 315 314 315 315
312 312 311 312 314 317 319 319 318 317 317 318 317 316 314 314 317 318 315 314 313 312 312 314 315 316 316 315 314 314 314 314 315 315 314 313 313 314 316 316 316 315 314 314 314
311 311 313 315 317 318 318 318 318 318 319 320 320 318 314 315 317 317 317 314 312 312 312 314 315 315 315 313 315 314 313 311 312 313 312 314 313 312 316 315 315 313 313 312 312
312 313 315 317 318 318 318 318 319 320 320 321 321 318 315 315 315 315 315 314 312 312 313 314 315 315 315 314 313 313 311 312 313 313 313 312 313 312 316 316 312 312 311 310 310
314 316 316 317 318 319 319 320 320 320 321 321 318 316 315 314 313 313 313 313 312 312 313 314 315 315 314 310 309 310 310 311 312 313 313 312 311 312 316 314 310 310 308 308 307
316 316 317 317 319 320 321 321 321 321 321 320 314 315 315 314 313 312 312 312 312 312 312 313 313 309 307 308 309 311 311 311 313 313 312 312 310 309 314 313 310 308 306 305 305
315 316 317 319 321 322 322 322 321 322 320 320 317 314 315 313 312 311 311 312 311 312 309 312 309 308 308 309 309 311 311 312 311 311 312 311 311 310 313 312 308 306 305 303 302
316 317 318 320 323 322 322 322 321 320 319 320 321 320 320 318 318 314 313 312 312 310 310 310 309 309 309 309 310 310 311 311 311 310 312 311 311 310 309 308 307 305 304 302 301
318 318 319 322 322 322 322 322 321 320 317 319 319 319 320 318 317 315 313 311 311 309 310 310 312 311 311 311 312 311 311 312 312 311 310 312 311 312 306 306 305 305 303 302 301
318 319 321 323 322 322 322 321 321 320 315 316 315 314 315 315 314 312 311 312 311 310 309 310 311 312 312 313 312 314 311 312 312 311 312 311 311 310 309 306 304 303 302 300 300
318 320 322 322 322 322 322 321 321 318 322 315 311 311 311 314 310 309 310 311 312 312 311 313 313 312 312 312 311 313 310 311 311 310 310 310 310 309 307 307 304 301 301 300 300
319 322 322 322 323 323 323 322 320 319 324 314 309 309 308 309 309 308 309 310 310 310 310 310 310 310 310 309 310 309 310 309 307 308 311 310 310 311 309 309 303 301 300 300 300
322 322 322 322 322 323 322 321 321 323 319 314 310 309 310 309 308 308 307 307 308 310 311 311 310 310 310 310 309 308 310 313 312 310 314 311 311 311 306 305 304 301 300 300 300
322 322 323 322 324 323 322 320 323 321 319 312 310 309 310 309 309 308 308 308 307 311 310 314 317 310 308 310 311 308 311 312 313 312 311 309 312 310 302 301 301 302 301 301 301
323 323 323 323 323 322 321 322 322 321 319 316 316 317 316 312 312 309 308 310 311 308 315 313 314 309 309 310 310 311 312 311 311 298 307 311 309 305 302 299 299 299 300 300 300
323 321 321 322 322 321 321 322 319 318 316 316 319 316 316 317 316 312 313 312 314 309 311 312 315 311 310 310 309 310 310 313 309 309 309 310 311 310 304 301 299 298 299 300 300
323 319 318 320 321 318 321 319 318 316 316 316 317 317 315 315 315 313 315 313 309 309 311 311 313 312 310 311 311 310 310 311 311 308 308 306 308 306 305 302 300 299 301 301 301
317 315 316 317 316 315 316 315 314 313 314 314 314 313 314 314 314 313 314 313 311 310 312 311 311 308 311 308 307 309 309 309 308 308 307 308 310 305 304 301 301 301 302 302 300
315 310 314 317 316 314 313 314 313 311 312 314 314 313 312 314 315 312 313 310 311 310 311 310 309 302 305 306 308 309 309 308 308 304 304 309 308 302 302 301 302 301 301 301 301
314 309 310 312 312 314 314 314 314 313 312 312 312 311 311 312 311 312 311 309 309 310 310 310 307 307 311 304 306 305 305 304 305 302 302 306 305 303 301 301 301 302 302 301 300
308 308 309 310 311 311 312 313 314 311 312 312 310 311 311 312 310 310 308 308 307 308 308 308 311 306 305 306 305 305 305 303 304 303 303 301 299 300 299 298 298 299 298 298 300
304 304 305 305 310 311 311 310 311 312 310 309 310 309 309 311 309 309 309 308 307 306 306 303 301 302 298 301 303 302 302 301 302 302 301 302 301 300 299 297 296 295 295 296 299
301 301 304 304 305 308 309 308 309 308 306 307 308 307 308 309 305 302 302 302 303 304 303 302 298 296 298 296 295 292 295 298 298 298 297 296 296 292 295 295 295 295 293 292 292

GFSSW_850_thetae_027.txt.gz
Theta_e
311 310 310 310 310 310 311 311 311 312 312 312 312 312 313 313 313 313 313 313 313 312 312 314 315 315 316 318 317 317 309 311 315 315 315 316 314 316 316 315 315 315 316 315 315
310 310 310 310 311 311 312 312 312 312 312 313 313 313 314 314 314 314 314 313 313 312 312 313 315 315 317 319 318 313 307 310 313 314 315 316 315 315 316 315 314 314 315 315 315
309 309 310 311 311 312 312 312 313 314 315 316 317 318 319 319 318 315 312 312 312 311 312 315 316 316 316 318 318 314 311 312 316 316 316 315 315 315 314 313 315 314 314 314 315
309 309 310 311 312 312 312 313 315 317 319 320 320 319 319 319 317 314 312 312 312 312 313 315 316 317 314 315 317 316 316 315 317 316 316 315 316 315 314 315 315 314 313 315 315
309 310 311 312 312 312 313 316 318 319 319 318 317 317 316 316 319 318 313 313 312 312 313 313 315 316 314 314 314 315 315 316 317 316 314 314 314 313 314 315 314 313 314 314 314
309 311 312 312 311 313 316 319 319 318 318 318 318 318 316 313 317 317 316 314 313 312 313 312 314 315 315 314 313 313 314 314 315 315 313 313 312 313 316 314 313 313 314 313 312
310 311 311 311 313 316 318 319 318 318 318 319 320 319 316 316 316 316 317 316 313 312 312 313 315 315 314 313 314 313 312 309 311 312 311 312 312 311 316 313 312 312 312 311 310
311 311 311 312 315 317 318 318 318 318 319 320 320 319 317 316 315 314 315 315 312 312 312 314 315 315 315 314 312 312 310 310 312 312 312 312 313 312 315 312 310 309 308 309 309
312 312 312 314 317 318 318 318 319 319 320 320 320 317 316 315 314 314 314 314 313 312 313 314 315 314 313 308 308 308 309 310 311 312 312 311 312 312 314 312 308 306 306 306 305
316 315 315 316 317 318 319 319 320 320 320 320 318 316 316 314 313 312 312 312 312 312 312 313 313 308 306 307 311 309 310 310 311 313 311 312 310 309 313 311 307 304 303 303 303
315 316 316 317 318 319 320 321 321 320 320 320 316 316 314 314 313 311 311 312 311 311 309 311 308 308 308 308 308 309 310 311 310 310 312 310 309 309 311 308 304 303 302 302 301
315 315 316 317 319 321 322 322 320 320 319 320 320 318 315 315 314 311 311 312 311 309 309 308 308 308 307 307 309 309 310 309 309 309 310 310 310 309 305 304 304 302 301 300 300
315 316 317 318 320 322 321 321 321 321 318 319 319 320 320 319 316 316 312 311 310 308 308 309 311 309 309 309 310 310 310 311 311 311 309 310 310 311 304 303 303 302 301 300 300
316 317 318 318 321 322 322 322 321 320 316 316 315 315 316 316 315 314 312 312 310 310 308 309 310 312 310 311 310 312 309 310 311 311 312 309 312 309 306 303 301 300 300 299 300
317 318 319 318 321 322 321 321 321 318 321 314 312 312 313 315 311 309 309 310 309 310 309 312 312 310 311 311 310 313 309 309 310 309 309 309 309 307 305 305 302 300 299 299 299
318 318 320 321 322 322 322 321 319 318 321 313 309 309 309 308 308 308 309 310 310 310 309 310 309 309 310 308 309 308 308 308 307 307 310 309 310 310 308 307 302 300 299 299 299
320 319 320 320 322 322 322 320 321 324 317 314 309 307 308 307 307 307 307 307 308 312 312 311 310 309 309 309 308 308 310 313 312 310 314 309 309 309 305 302 303 300 299 299 300
321 320 320 321 320 322 321 319 323 322 318 310 308 308 309 307 307 307 306 308 305 309 308 313 316 309 307 309 310 307 310 312 313 311 311 308 312 311 301 300 302 301 301 300 300
322 322 321 321 322 322 320 324 323 322 318 312 313 310 310 309 309 308 306 307 307 306 314 312 314 308 307 308 309 309 311 309 310 296 306 311 309 304 300 299 299 300 300 300 300
322 321 322 321 323 322 321 324 320 319 317 314 314 314 312 314 313 308 307 309 312 306 310 312 315 310 309 309 308 309 309 312 308 310 311 310 309 310 302 300 298 298 299 300 301
322 320 320 322 322 319 323 323 319 317 316 316 314 316 315 315 314 310 313 312 310 308 309 310 312 311 310 310 310 310 311 310 310 307 308 305 308 304 304 301 299 299 300 301 301
318 319 318 321 317 318 322 318 317 316 314 315 314 315 315 313 315 313 314 312 310 310 311 310 310 307 310 307 305 308 309 309 312 309 305 307 310 303 302 302 301 300 302 303 302
315 313 313 316 321 316 314 315 315 312 314 315 316 314 313 313 316 312 311 310 309 309 311 310 309 304 310 308 307 308 307 307 305 302 301 308 308 302 301 301 302 302 302 302 302
314 312 312 311 312 317 316 315 315 313 313 314 314 312 313 314 313 313 310 308 309 310 310 311 309 312 315 309 307 306 306 304 305 307 308 309 308 302 302 301 301 302 302 303 301
313 309 309 312 312 313 314 315 316 314 312 313 312 314 315 315 314 313 309 308 307 308 307 309 312 306 306 304 305 305 304 302 304 305 308 307 304 303 301 299 301 301 300 299 299
305 306 306 307 311 312 313 313 315 315 312 313 314 312 313 315 312 310 308 308 308 305 306 302 305 304 304 303 305 306 305 305 305 304 302 302 302 300 299 299 297 297 296 296 297
303 302 305 305 307 312 311 312 313 313 308 308 311 310 311 311 308 304 307 307 306 304 303 303 301 300 309 297 298 300 297 301 302 301 302 302 301 292 295 294 295 296 295 295 295

GFSSW_850_thetae_030.txt.gz
Theta_e
311 310 310 309 310 310 310 311 311 311 312 312 312 313 313 313 313 314 314 313 313 312 312 313 314 315 315 317 316 315 307 309 314 311 314 315 314 315 315 314 315 314 314 313 314
310 310 309 309 310 310 311 311 312 312 312 313 313 314 315 316 317 317 314 313 313 313 312 312 314 315 316 317 317 311 305 309 311 313 314 315 314 315 315 314 313 315 314 314 314
310 309 309 310 310 311 312 312 312 313 314 315 317 319 320 320 319 314 312 312 312 311 312 313 315 315 315 317 317 313 309 311 315 315 315 315 314 315 314 312 312 313 312 313 313
310 309 309 310 311 312 312 312 313 314 317 319 319 319 318 318 318 314 312 311 311 312 313 315 314 315 313 314 316 315 315 314 316 316 315 314 315 314 314 313 313 313 313 313 314
309 309 309 310 311 312 312 312 315 318 319 319 318 317 317 316 317 318 314 313 312 312 313 313 314 315 313 313 313 315 314 314 315 315 314 314 313 313 313 312 312 312 312 312 312
309 309 309 311 312 311 312 314 318 319 318 318 318 318 318 314 317 316 317 314 312 312 313 313 313 315 314 313 312 312 313 313 314 314 312 312 311 312 311 312 313 312 313 311 310
308 309 310 311 311 311 314 317 318 318 318 318 318 319 318 318 317 316 316 316 313 312 312 312 314 315 314 312 313 313 312 309 310 311 311 311 313 311 311 311 312 311 310 309 309
308 309 311 311 311 313 316 318 318 318 318 318 319 320 318 317 317 316 315 316 314 312 312 312 314 315 314 313 310 311 308 310 310 311 311 311 313 312 311 311 309 309 308 307 307
309 310 311 311 312 314 317 318 318 318 318 319 319 318 317 315 315 315 314 314 313 312 313 314 314 313 313 308 308 306 311 309 309 311 311 311 312 311 310 310 306 305 305 305 305
310 311 311 312 313 316 317 318 319 319 319 319 319 317 316 315 313 313 313 313 313 313 313 314 313 307 305 307 312 310 309 308 310 311 311 311 310 309 309 309 305 303 303 303 303
311 314 315 314 315 317 318 319 320 320 319 319 317 317 314 315 313 312 312 312 312 312 309 310 308 309 308 307 309 308 308 310 309 310 311 310 309 309 306 304 302 302 301 301 302
315 315 315 316 316 318 319 321 320 319 319 319 320 317 315 313 312 310 311 311 310 308 308 307 308 308 307 307 308 309 309 308 308 308 309 309 309 309 304 303 303 301 300 300 301
316 315 315 317 318 318 320 320 321 320 319 319 319 319 319 315 314 313 311 311 309 308 307 308 311 307 308 307 308 307 308 309 310 310 309 309 309 306 303 302 301 301 300 299 300
316 316 316 317 319 318 319 320 321 321 317 316 315 317 317 317 315 316 311 312 309 309 307 307 308 310 308 309 307 309 307 309 310 311 313 308 311 308 304 302 300 299 299 299 299
317 317 317 319 319 320 319 320 321 319 321 314 312 312 313 316 311 309 309 310 308 309 308 312 309 309 310 310 309 311 308 309 309 309 308 309 309 307 304 304 301 299 299 298 299
317 317 317 318 319 320 321 321 320 319 322 315 309 308 310 308 308 308 309 310 310 309 309 310 309 308 309 307 308 306 308 307 306 307 310 309 310 309 306 306 302 299 299 299 299
319 318 318 318 319 320 321 320 320 323 316 313 309 307 309 307 307 307 307 307 309 312 312 311 310 308 308 308 307 307 309 313 312 311 314 308 308 309 306 303 302 300 299 298 299
320 319 318 318 318 320 319 319 323 321 318 309 308 306 310 307 307 306 307 308 306 308 309 312 314 309 307 308 309 307 310 313 315 312 311 308 311 311 301 300 301 302 301 299 299
321 320 319 319 319 320 317 323 323 321 317 310 309 309 308 308 307 307 305 307 307 305 313 311 313 307 307 307 308 308 309 309 309 295 307 310 309 303 300 299 298 299 300 300 299
321 320 320 320 319 320 319 323 321 319 315 311 316 311 310 309 309 306 306 306 308 305 309 311 315 309 307 308 308 309 308 312 308 309 310 311 309 311 304 301 298 297 299 300 300
321 320 320 321 320 319 321 320 321 319 317 314 316 314 310 313 310 307 308 309 308 306 308 309 313 311 308 308 309 310 310 309 309 308 310 307 310 303 304 300 299 299 301 301 301
318 319 320 321 320 319 322 321 319 318 316 315 314 315 313 313 312 309 311 311 310 308 309 309 309 309 310 306 305 307 309 308 312 310 304 307 312 301 302 300 300 300 302 303 303
317 314 317 320 323 322 319 320 319 316 316 315 315 315 313 313 317 312 311 309 309 310 311 310 310 305 309 308 306 308 306 306 305 303 304 314 311 301 300 300 301 302 303 303 302
314 313 311 312 312 317 320 320 319 314 315 315 315 313 313 314 315 316 311 308 308 309 311 311 308 309 314 310 308 308 307 305 308 311 311 311 310 305 303 301 300 302 302 302 302
313 311 312 313 313 312 316 317 318 316 313 314 314 316 317 316 316 315 310 308 307 309 308 310 311 308 308 305 306 307 307 304 306 308 312 310 306 304 303 301 302 303 303 302 302
309 308 308 309 311 312 313 315 317 314 313 313 314 314 315 317 314 314 311 309 310 306 307 304 310 306 305 303 305 306 305 303 305 304 303 302 302 300 302 304 302 302 301 300 298
305 305 307 307 309 312 313 310 312 313 310 311 312 313 314 314 312 308 310 310 309 307 306 305 303 304 312 298 300 307 304 304 303 302 304 304 305 294 296 296 298 299 298 297 297

GFSSW_850_thetae_033.txt.gz
Theta_e
310 310 309 309 309 309 310 310 311 311 312 312 312 313 313 313 314 315 315 313 313 312 312 312 314 314 315 316 315 314 308 310 312 311 313 314 314 314 314 314 314 313 313 312 313
311 310 309 309 309 310 310 311 311 312 312 313 314 315 316 317 319 319 315 313 313 312 312 312 313 314 315 316 316 310 307 309 310 310 313 314 314 314 314 313 313 313 311 311 313
311 310 309 309 309 310 311 311 312 312 313 314 316 318 320 320 319 314 312 312 312 312 311 313 314 313 314 316 315 311 309 309 313 314 315 314 314 314 314 311 313 312 312 313 313
311 310 309 309 309 310 311 312 312 313 314 317 319 320 319 318 318 314 312 311 311 311 312 314 313 313 312 312 316 314 314 313 315 315 315 314 314 314 313 312 312 312 312 312 313
311 310 309 309 309 311 311 312 312 314 317 319 319 318 318 317 318 318 314 312 311 312 313 313 312 314 311 313 313 315 313 314 315 315 314 314 313 313 311 310 310 310 311 311 311
311 310 309 309 310 311 311 312 313 316 319 319 318 318 318 316 317 316 317 315 312 311 312 312 313 314 313 312 312 312 312 312 313 312 312 312 311 312 308 308 309 309 309 309 309
310 309 308 309 310 311 311 312 315 318 319 318 318 318 318 318 317 316 316 316 314 312 312 312 313 314 313 311 312 312 312 309 310 310 311 311 310 309 309 308 310 310 310 309 309
309 308 308 309 310 311 311 313 316 318 318 317 318 319 318 318 317 317 316 316 315 312 312 312 314 314 314 312 310 310 308 312 311 311 311 311 314 308 309 310 309 309 308 308 308
308 308 308 309 310 311 312 314 317 318 318 318 319 318 318 316 315 315 314 314 313 312 312 313 314 313 312 308 309 306 312 309 310 310 310 310 313 308 308 309 307 306 305 305 305
307 307 308 310 310 311 312 315 318 318 318 319 319 317 317 315 314 314 314 313 313 313 313 314 313 307 305 308 313 311 310 308 309 311 310 310 310 306 307 307 304 304 303 303 304
307 308 309 310 311 312 314 317 318 319 319 319 317 317 314 315 313 312 313 313 312 312 309 309 309 310 309 307 309 308 309 310 309 309 311 310 309 309 305 304 302 301 301 301 302
308 309 310 313 315 315 316 319 319 318 318 318 319 317 316 314 312 311 312 312 311 308 307 307 308 308 307 307 308 307 309 308 307 308 309 309 309 307 304 303 303 302 301 301 301
311 313 314 315 316 317 317 318 320 320 319 319 318 319 318 315 313 311 311 311 308 306 306 307 310 306 307 307 308 307 308 307 310 309 308 309 309 307 302 301 301 300 300 300 301
317 317 317 317 317 319 318 317 320 320 316 316 315 318 317 316 313 314 311 311 308 308 305 307 308 309 307 308 306 308 306 307 309 310 313 308 313 308 305 302 300 299 299 299 300
317 318 317 316 318 318 317 317 320 319 319 314 312 312 313 316 312 309 309 310 308 309 309 314 308 309 310 310 307 310 306 307 308 309 309 308 310 308 304 305 302 298 298 298 299
317 317 317 317 318 318 318 321 320 318 321 315 309 308 311 309 308 308 309 310 310 308 308 310 308 307 309 307 307 305 307 306 305 306 310 310 311 310 307 307 302 299 299 299 298
318 318 318 317 320 319 321 320 320 322 315 312 310 307 311 307 307 307 307 307 310 312 311 310 309 307 307 307 306 306 309 312 313 312 314 306 308 310 307 304 303 301 299 298 299
319 319 318 317 317 319 319 318 323 319 317 308 307 307 312 307 307 306 307 308 306 308 309 313 314 308 306 308 309 306 310 313 314 313 312 306 311 312 302 301 302 302 301 299 298
322 320 319 318 318 318 317 322 321 318 316 309 308 309 308 307 307 306 306 308 309 306 314 312 313 307 306 306 307 308 310 308 307 295 307 310 309 307 300 300 299 300 300 299 299
323 320 319 319 319 319 318 320 319 317 311 309 317 311 310 307 308 306 305 305 308 306 309 310 314 308 306 307 308 308 307 311 308 311 311 311 311 312 305 303 298 297 298 299 299
320 320 320 320 318 319 320 317 318 319 316 313 315 314 309 308 307 306 307 307 305 305 308 308 313 310 307 308 309 310 310 308 309 309 312 309 310 304 305 302 300 298 300 301 300
318 321 320 320 318 320 320 317 317 319 319 315 314 316 312 310 308 307 308 308 307 306 309 308 310 310 309 306 305 307 308 309 313 310 305 307 313 302 302 301 302 301 301 302 302
318 318 320 320 321 320 319 318 317 317 319 319 317 315 313 312 314 308 307 308 308 307 309 309 311 309 311 309 305 307 306 306 305 304 306 310 311 301 300 300 301 302 303 303 303
316 313 315 316 314 319 319 320 320 318 318 317 316 314 314 316 314 314 310 308 308 309 310 311 309 312 319 314 308 308 306 305 309 306 310 312 311 303 302 301 300 302 303 303 303
314 312 312 315 315 313 314 319 320 319 317 317 316 318 318 319 316 317 311 308 307 309 309 310 313 307 309 307 307 308 307 305 309 310 312 312 309 307 303 301 302 304 302 303 303
312 309 310 310 313 313 313 314 316 319 314 316 319 318 318 320 319 319 313 310 312 306 308 307 314 307 307 305 305 306 305 306 307 308 308 307 306 303 305 303 302 303 302 302 303
308 309 310 309 309 313 315 314 312 314 311 311 314 314 316 317 312 308 312 311 309 309 308 308 307 310 317 302 305 311 306 305 304 302 307 307 308 297 299 299 302 303 303 303 302

GFSSW_850_thetae_036.txt.gz
Theta_e
310 310 310 309 309 309 310 310 310 311 311 312 312 313 313 314 315 316 316 313 313 312 312 312 313 314 314 315 315 314 317 319 319 318 318 316 317 314 315 315 314 312 313 313 313
310 310 310 309 309 309 310 310 311 311 312 313 313 314 316 318 319 319 316 314 313 312 312 312 313 314 316 316 316 316 317 316 317 317 318 316 316 316 315 316 314 313 311 311 312
310 310 310 309 309 309 310 311 311 312 312 314 315 317 319 320 319 315 312 312 312 312 312 312 313 313 316 316 317 315 316 313 315 315 316 316 316 315 316 317 314 314 311 312 312
310 311 310 309 309 309 310 311 312 312 313 315 318 319 319 319 320 314 311 311 311 311 312 313 313 315 316 316 316 317 315 315 316 315 315 316 315 316 315 314 312 311 312 312 312
310 311 310 309 309 309 310 311 312 312 313 317 319 319 319 318 318 318 314 312 311 312 313 313 313 314 315 315 316 318 316 315 315 314 315 314 315 315 313 311 311 311 311 311 312
310 310 310 309 308 309 310 311 311 312 315 318 319 318 318 319 317 317 317 315 312 312 313 312 313 313 314 315 315 314 314 314 313 313 313 314 314 313 309 308 309 309 310 310 310
310 310 310 309 308 309 310 311 311 313 316 319 319 318 318 319 318 317 316 316 313 311 312 312 312 314 314 314 312 313 315 315 314 312 313 312 313 314 309 307 307 308 307 307 307
309 310 310 309 308 309 310 311 311 314 317 318 318 318 318 318 318 317 316 315 314 312 312 312 313 314 314 312 312 314 314 319 315 313 311 313 320 312 308 308 308 305 304 305 306
310 310 310 308 308 309 310 311 312 315 318 318 318 318 318 316 316 316 315 315 314 312 312 312 314 313 313 316 316 315 320 317 317 312 313 314 319 312 308 309 308 306 304 305 305
310 310 309 307 308 309 310 311 313 316 318 318 318 317 317 315 315 315 314 313 313 312 313 313 313 315 314 316 321 320 317 315 318 314 313 315 316 311 308 309 309 306 304 302 303
309 309 308 307 308 309 310 312 316 318 318 318 317 318 315 315 314 313 313 313 313 313 315 311 316 317 317 316 316 316 316 318 315 312 314 317 317 314 309 308 307 305 304 302 302
307 307 307 307 309 311 312 315 317 317 319 318 318 317 315 314 312 312 313 313 313 315 311 313 316 317 312 312 313 313 316 317 314 311 313 315 315 315 309 310 308 306 303 302 301
308 306 307 309 313 314 314 315 318 319 320 319 318 318 317 315 313 312 312 311 312 311 313 317 315 311 312 311 313 313 315 316 316 312 311 313 316 316 310 306 305 304 303 301 301
315 309 312 316 316 316 317 316 319 320 320 319 317 318 317 316 313 312 311 311 309 313 311 313 311 310 311 313 313 316 312 312 312 313 319 313 322 317 313 309 305 303 301 301 299
316 315 318 317 317 317 316 316 318 318 323 317 314 314 313 316 312 309 310 310 312 311 312 316 311 312 313 314 311 317 310 312 312 314 314 315 317 319 310 311 307 304 301 301 299
319 317 318 318 316 317 317 317 320 320 323 317 310 311 313 310 309 307 309 310 309 311 310 314 308 311 314 309 311 309 311 311 311 314 318 317 317 320 315 313 311 304 301 300 298
317 317 318 318 317 317 318 321 321 324 317 315 314 311 315 311 309 309 310 312 316 318 318 313 313 309 308 311 308 311 315 320 319 318 321 310 315 319 315 309 309 306 302 300 298
318 318 318 318 318 317 320 318 323 321 320 310 310 312 317 311 311 309 310 314 312 314 316 320 321 312 309 315 315 312 317 322 325 321 319 309 315 316 307 304 304 306 302 300 298
319 320 318 318 317 317 317 322 321 320 319 312 310 314 316 311 312 310 313 315 315 312 319 318 319 309 307 308 313 311 313 314 313 305 317 317 314 312 305 304 303 303 301 299 298
320 320 319 318 317 317 318 320 319 319 315 314 318 316 317 313 313 313 312 312 313 311 313 316 318 309 307 309 309 311 312 314 314 322 323 318 317 320 310 308 304 303 302 300 299
317 319 320 319 318 317 319 318 318 318 315 316 318 318 316 313 314 312 315 312 312 310 312 312 315 312 308 311 314 311 312 312 314 316 324 323 319 314 315 310 306 304 303 301 299
316 319 319 319 317 318 319 317 317 318 316 317 316 319 316 312 313 313 314 316 309 309 312 313 314 316 312 308 306 312 314 313 318 316 313 315 320 306 308 309 307 306 303 302 300
316 317 319 319 320 317 318 317 317 317 319 319 318 317 315 313 316 313 313 310 308 310 313 312 316 320 316 310 307 310 310 311 313 314 319 322 320 305 304 304 304 305 303 302 301
315 315 316 319 319 318 316 319 319 317 317 318 319 317 315 317 314 319 315 310 308 309 311 312 315 318 322 320 315 313 311 310 313 317 318 317 317 308 307 306 304 303 304 302 302
314 312 313 315 319 318 319 318 319 319 316 318 319 319 320 320 319 318 315 309 308 308 310 312 316 315 315 314 312 314 313 311 312 314 318 318 316 313 309 307 307 306 303 302 302
312 308 310 310 314 317 316 319 318 319 317 318 318 319 319 320 320 321 318 316 314 308 310 309 317 315 315 315 311 312 312 311 312 313 314 315 314 312 309 306 304 304 302 302 302
310 310 309 310 310 314 316 316 314 315 312 314 316 318 318 318 318 317 314 315 314 311 310 311 314 313 319 315 308 311 312 311 311 312 312 314 313 306 305 305 306 304 303 304 302

GFSSW_850_thetae_042.txt.gz
Theta_e
309 309 309 309 309 309 309 310 310 311 311 312 312 313 314 315 316 317 318 315 313 312 312 312 313 314 317 319 316 316 318 319 320 320 320 318 317 317 318 317 316 315 315 315 314
310 310 309 309 309 309 309 310 310 311 312 312 313 314 316 317 318 318 318 316 314 313 312 314 316 316 318 319 319 319 320 319 318 318 319 318 318 318 317 317 315 314 313 313 313
310 310 310 310 309 309 309 310 310 311 312 312 313 315 317 318 319 319 315 313 313 313 312 313 315 316 317 318 319 319 318 316 317 318 319 318 318 318 318 317 317 316 314 312 312
310 310 310 310 310 309 309 309 310 311 312 312 314 316 318 319 321 317 312 311 312 312 312 313 316 316 317 318 318 318 317 317 318 317 318 318 319 318 317 315 315 315 314 312 312
310 310 310 310 310 310 309 309 310 311 311 312 313 316 319 319 320 319 316 312 311 311 315 316 316 316 317 318 318 318 318 317 318 317 317 317 318 318 317 316 314 313 312 311 311
310 310 310 310 310 310 309 309 309 310 311 312 313 317 319 320 319 318 317 317 312 312 314 315 315 316 316 317 317 317 318 317 317 317 317 316 317 317 317 315 313 311 311 311 311
310 310 310 310 310 310 310 309 309 309 311 312 314 317 318 319 319 319 318 317 316 312 315 314 314 315 317 317 316 316 316 316 316 316 316 316 315 315 315 314 312 311 310 310 310
308 309 309 309 309 310 310 309 308 309 310 311 314 318 318 319 319 318 318 317 315 313 314 314 312 316 316 316 316 316 317 318 319 316 315 315 317 317 314 313 311 311 309 309 309
309 308 308 309 309 310 310 309 308 309 310 311 314 318 319 318 318 318 317 316 315 314 313 312 313 316 315 315 317 317 317 318 318 316 314 313 318 314 313 312 312 311 310 309 309
310 309 309 308 309 310 310 309 308 308 310 312 315 316 317 316 317 317 317 315 314 313 313 314 315 315 315 315 318 320 319 319 320 315 315 314 313 313 312 312 313 312 311 309 308
320 313 307 310 310 310 309 308 310 317 313 312 319 318 317 317 316 315 315 314 314 315 316 315 315 316 316 316 317 318 318 318 320 314 316 315 315 316 313 312 313 313 312 310 308
325 323 315 307 310 310 308 309 315 317 318 318 316 318 318 316 313 314 315 314 315 316 316 315 316 317 318 318 318 317 317 317 318 314 314 315 315 316 313 312 312 313 313 310 307
324 322 321 311 311 311 309 309 310 314 319 315 316 317 318 317 315 314 314 314 315 316 316 317 318 317 317 317 318 317 317 317 318 315 314 313 313 315 316 315 313 313 314 311 308
322 322 322 316 313 314 311 308 309 314 318 315 320 320 318 317 315 316 315 315 315 316 316 317 317 316 317 317 316 317 317 316 317 316 317 314 318 318 317 316 312 313 314 311 307
322 322 322 322 317 314 313 308 312 316 316 318 318 317 316 316 314 312 314 313 314 313 316 317 314 314 316 316 316 317 315 316 316 316 317 317 318 318 317 318 315 312 311 310 307
322 322 321 320 317 317 313 312 318 320 319 319 314 315 314 315 312 309 311 311 312 315 314 315 313 314 315 312 314 313 315 315 315 316 318 318 319 319 319 318 316 312 310 309 306
319 320 321 320 317 317 314 317 317 317 314 316 316 316 316 316 313 311 311 311 314 315 315 314 313 313 313 313 312 315 316 320 319 317 319 316 319 319 317 315 315 312 310 308 305
317 318 318 319 318 317 317 316 317 315 314 317 317 316 318 316 315 312 311 312 311 314 316 317 319 314 312 315 315 313 317 320 323 322 320 311 315 317 313 310 312 313 309 307 304
311 316 317 318 319 317 319 317 315 315 314 315 316 318 318 316 314 313 313 314 314 313 317 319 320 314 312 313 316 315 316 317 317 308 313 317 314 313 309 308 308 309 307 305 303
312 313 316 317 318 317 319 316 315 315 316 314 317 318 320 317 315 314 314 315 316 313 315 320 322 315 309 311 312 314 314 316 315 316 319 320 319 319 311 309 306 307 306 304 302
312 312 313 316 318 317 319 315 315 315 315 316 317 316 317 319 315 314 317 317 315 315 314 317 319 313 310 311 314 312 313 314 316 316 319 319 320 315 314 311 307 307 306 304 302
311 313 313 316 317 317 318 316 315 315 317 318 318 317 319 317 317 316 316 318 317 316 315 316 318 315 312 311 311 314 314 314 316 317 315 315 320 311 311 310 308 307 306 304 303
310 311 312 316 319 319 316 316 316 316 317 318 319 318 318 319 318 317 317 316 317 315 315 315 317 318 317 312 310 311 311 314 315 313 318 317 319 307 307 309 309 307 306 304 303
307 312 311 314 317 317 318 316 317 316 316 318 319 318 318 319 318 318 317 316 315 315 315 316 317 318 322 320 315 312 311 312 314 315 315 317 317 310 308 308 308 308 306 305 303
306 309 311 314 314 316 317 317 317 318 315 316 318 319 320 320 320 320 317 313 311 313 314 315 318 317 318 318 317 313 312 312 313 314 316 317 316 316 311 307 308 309 307 305 303
305 307 308 310 312 313 314 315 316 316 317 316 317 317 318 320 319 320 318 316 314 309 310 311 316 316 318 316 317 318 317 312 311 312 314 314 315 314 315 311 308 308 307 305 304
304 305 306 308 309 311 310 312 313 314 315 316 316 317 318 318 318 318 318 318 316 312 309 311 313 315 319 315 316 318 317 317 316 312 313 313 314 312 311 307 308 307 307 306 305

GFSSW_850_thetae_045.txt.gz
Theta_e
309 309 309 309 309 309 309 309 310 310 311 312 312 313 314 314 315 316 316 315 314 312 312 312 313 313 317 318 315 315 310 313 316 316 316 317 316 317 317 316 316 315 316 315 313
309 309 309 309 309 309 309 309 310 310 311 312 312 313 314 316 317 317 317 316 315 313 312 314 316 315 317 318 319 316 311 316 315 315 315 317 317 317 316 316 314 313 313 313 313
310 310 310 310 309 309 309 309 310 310 311 312 313 314 315 316 318 318 314 312 313 313 312 313 315 315 316 317 318 317 313 314 316 317 317 317 317 317 316 314 315 315 313 312 313
310 310 310 310 310 309 309 309 309 310 311 312 312 314 316 317 320 318 312 311 312 312 312 312 315 315 315 316 318 315 315 316 317 317 318 316 317 317 317 315 316 316 313 313 312
310 310 310 310 310 310 309 309 309 309 310 311 312 313 316 318 319 319 318 312 311 311 313 315 315 315 315 316 317 316 316 316 317 317 317 317 317 316 315 315 315 314 313 313 313
311 310 310 310 310 310 310 309 309 309 310 311 312 313 316 318 318 319 317 317 312 312 314 315 315 315 315 316 315 316 316 317 317 316 316 316 316 316 315 315 314 313 312 312 312
309 310 310 310 310 309 310 310 309 309 309 310 311 313 315 315 317 319 318 317 316 312 314 314 315 314 316 316 316 316 314 314 315 316 315 315 313 313 315 314 313 312 312 311 311
308 308 309 309 309 309 309 310 309 308 308 310 311 313 314 316 318 319 319 317 316 313 314 315 313 315 316 316 315 315 314 315 315 314 314 314 313 314 314 313 312 311 311 311 310
314 308 308 308 309 309 309 309 309 308 308 309 311 314 315 316 317 318 318 317 316 315 313 313 313 315 314 312 312 314 314 314 316 313 312 312 313 312 312 312 312 311 311 310 309
323 319 310 309 308 308 309 309 309 309 308 309 312 314 314 316 317 317 316 316 315 314 313 313 314 311 311 310 314 315 315 316 316 314 313 312 311 312 312 312 312 311 310 310 310
324 324 323 316 308 309 309 309 311 315 311 310 313 315 317 315 316 315 316 315 315 314 312 314 311 312 312 311 313 315 316 316 315 314 313 312 312 311 313 312 311 311 311 310 310
324 323 323 323 316 308 310 309 313 316 316 314 314 316 317 317 314 315 315 315 314 313 313 313 313 313 313 313 314 314 314 314 314 313 312 312 312 312 311 311 312 312 312 311 309
324 324 322 323 322 309 309 309 311 315 316 313 310 314 316 316 316 315 314 314 313 313 312 313 315 315 314 315 316 315 315 314 315 313 312 312 312 312 312 312 313 312 313 311 311
322 323 323 322 319 317 310 308 309 313 310 312 315 316 315 316 314 316 315 315 313 313 313 313 314 315 314 315 314 315 314 315 315 315 315 312 316 314 313 312 309 312 311 312 310
322 322 322 321 319 318 318 311 310 316 307 310 317 316 316 315 313 313 314 314 312 313 314 314 314 314 315 315 313 315 314 315 314 314 315 314 314 314 314 315 315 312 310 311 311
318 320 320 320 319 320 317 311 316 319 311 315 314 313 313 315 311 310 312 312 313 312 312 313 313 312 313 310 313 311 313 313 313 313 315 315 315 316 317 316 316 314 311 311 310
313 318 319 319 318 317 317 313 310 315 312 314 315 313 315 315 310 310 309 310 313 314 313 313 312 312 312 312 312 313 313 316 317 315 319 314 315 318 315 314 313 312 310 310 310
309 312 317 317 318 317 317 311 315 314 313 314 315 314 315 314 312 310 310 312 310 312 313 316 316 312 310 312 313 312 314 316 319 318 317 311 315 316 314 315 312 313 314 310 307
307 309 312 317 316 317 317 311 316 315 313 314 315 316 316 315 312 311 310 313 312 311 316 315 315 311 310 313 314 312 315 315 317 302 310 315 313 312 309 308 309 310 309 307 306
306 309 312 312 317 316 318 315 312 313 312 313 316 315 316 315 313 311 311 311 313 312 313 316 320 311 309 312 312 313 312 315 312 314 315 316 316 318 313 310 306 306 306 305 304
306 309 310 310 314 317 319 314 314 313 314 315 314 315 316 315 313 312 313 312 312 311 312 315 318 312 309 311 313 313 313 314 315 313 317 317 318 312 314 311 307 306 307 307 305
305 309 309 312 317 317 317 317 314 314 315 315 314 315 313 315 315 312 313 314 314 312 312 314 316 310 312 309 309 312 314 312 317 315 311 313 320 309 311 309 309 308 307 307 306
306 307 308 312 315 316 316 317 315 316 315 316 317 316 315 316 317 315 313 314 315 312 313 315 317 318 315 312 309 311 311 314 313 307 316 315 319 307 308 310 310 308 307 306 305
305 307 308 309 311 313 315 317 317 316 316 315 316 316 317 319 317 318 315 313 315 314 314 315 316 319 321 320 313 311 311 311 314 316 315 317 318 312 310 310 307 307 308 307 305
304 305 307 311 309 310 311 315 317 316 315 315 316 317 317 319 319 318 317 313 312 313 314 316 318 316 318 316 313 312 311 312 313 314 316 317 316 316 313 308 308 311 307 306 304
303 304 306 306 309 311 310 310 311 312 316 317 316 317 317 319 318 319 317 316 314 310 314 313 316 316 318 316 315 316 312 312 313 313 314 315 315 312 314 313 309 311 309 307 306
301 303 304 305 305 307 310 311 313 313 313 314 315 316 316 317 318 317 317 317 314 311 312 313 315 315 320 315 315 318 317 316 314 312 312 314 314 311 312 311 309 309 309 308 309

GFSSW_850_thetae_048.txt.gz
Theta_e
308 308 308 308 309 309 309 309 310 310 311 311 312 313 314 314 315 315 315 315 314 312 312 312 313 315 315 315 314 315 308 311 315 313 316 316 314 316 316 315 315 316 315 315 318
309 309 309 309 309 309 309 309 310 310 311 311 312 313 314 315 316 317 316 316 315 313 312 314 314 316 317 317 317 314 309 314 315 314 313 315 316 316 316 314 312 313 315 313 315
309 309 309 309 309 309 309 309 309 310 311 311 312 313 314 315 318 317 313 312 313 313 312 314 314 315 316 316 317 314 311 313 315 317 316 315 316 316 314 313 314 313 314 314 313
310 310 310 310 310 309 309 309 309 309 310 311 312 312 314 315 318 317 311 311 312 312 312 313 314 315 314 315 317 313 314 315 316 316 316 315 316 315 315 316 316 315 313 313 313
310 310 310 310 310 310 310 309 309 309 309 310 311 312 314 316 317 318 317 311 311 312 313 315 315 315 313 315 316 314 315 315 316 316 317 317 316 315 316 316 316 315 313 313 313
311 311 310 310 310 310 309 310 309 309 309 309 310 311 314 315 317 319 318 316 311 313 314 314 315 315 315 315 314 316 315 316 316 316 316 315 315 316 315 314 314 314 314 313 312
309 310 310 310 310 310 309 309 309 309 309 309 310 311 313 313 316 318 317 317 315 312 313 314 314 314 316 315 315 315 313 312 314 315 315 315 313 312 315 314 313 313 313 312 312
309 308 307 309 309 309 309 309 309 309 309 308 309 311 312 314 316 317 318 317 316 314 314 314 313 314 316 315 314 314 312 314 313 313 314 313 311 313 314 313 312 312 311 311 311
319 314 309 308 308 308 308 309 309 309 309 308 309 311 312 314 315 316 318 317 316 314 314 314 313 314 314 310 311 311 313 313 313 312 312 311 313 313 312 312 312 311 311 311 311
324 323 319 313 309 309 308 308 308 309 309 308 309 313 312 314 316 317 317 316 315 314 313 313 314 310 308 309 313 313 313 313 314 313 312 311 310 310 311 311 312 312 311 311 311
323 324 324 323 321 320 313 310 309 311 311 309 311 311 314 313 316 317 316 315 314 313 311 313 311 311 311 309 312 313 313 315 314 313 312 310 311 311 311 310 310 311 311 311 312
324 323 323 323 322 322 317 309 310 315 315 312 311 313 315 315 315 315 315 315 314 312 311 311 312 311 311 311 311 312 313 312 312 312 311 312 311 310 310 310 311 312 313 313 311
322 324 324 324 322 322 321 314 309 314 314 311 310 312 312 315 316 315 315 314 312 312 311 312 314 313 313 313 313 313 312 313 314 313 311 311 310 310 311 311 313 314 315 314 313
321 322 323 321 317 320 321 315 309 311 307 307 314 312 313 315 315 316 315 315 312 312 311 312 313 313 313 314 313 314 312 314 314 314 314 311 315 312 311 310 309 313 312 313 312
317 321 321 322 320 319 318 315 314 314 309 309 314 314 313 314 312 313 314 314 311 312 312 313 313 313 314 314 312 314 313 313 313 312 314 313 313 312 312 312 312 314 314 314 312
315 317 320 319 318 319 318 318 310 317 311 311 315 313 313 314 311 310 312 312 313 312 312 312 312 312 313 311 312 311 313 312 311 312 314 314 313 313 314 315 313 314 315 316 315
309 312 318 319 317 318 319 316 310 315 313 314 314 313 315 313 310 310 310 310 312 314 314 312 312 311 311 312 312 312 313 314 316 314 317 312 313 316 313 312 313 315 317 316 314
307 308 310 318 317 317 316 312 314 312 315 313 314 313 315 313 312 310 310 312 310 312 312 315 315 311 310 313 313 312 312 314 316 316 315 311 315 316 311 314 314 315 314 313 311
307 307 308 310 316 316 314 314 317 315 314 315 315 316 315 314 312 310 310 313 312 310 314 314 315 311 310 311 313 312 314 314 315 299 310 315 313 312 310 309 310 312 311 309 311
305 307 307 307 312 316 315 314 312 312 313 314 318 316 317 314 313 310 309 310 312 310 311 313 315 310 310 312 311 311 311 314 311 314 314 315 315 318 313 311 310 309 307 309 309
305 306 306 305 309 315 317 317 315 312 313 314 316 317 315 315 313 311 312 311 311 310 311 313 315 312 310 311 312 312 312 313 314 312 315 314 316 310 314 311 310 309 312 310 308
304 307 306 309 313 312 315 316 314 313 313 315 315 314 315 314 314 312 312 312 312 310 312 312 316 310 311 309 308 311 313 312 314 313 311 312 319 310 310 311 311 312 314 312 310
303 304 308 311 310 310 311 315 315 315 315 315 316 314 313 315 317 313 311 312 312 311 311 313 314 312 313 312 309 310 311 314 312 308 313 316 320 306 306 309 311 312 314 310 308
301 303 304 307 310 310 310 311 315 315 315 315 316 315 315 316 315 316 315 313 314 312 313 314 315 315 318 317 312 311 310 311 315 317 317 316 318 312 311 310 309 311 311 311 308
298 303 304 307 306 307 308 312 312 313 315 315 316 316 317 318 318 318 315 313 312 312 312 314 317 314 316 315 313 312 311 312 314 315 318 318 316 317 314 309 311 313 312 309 308
298 301 303 304 306 307 307 308 309 309 312 315 316 316 316 317 316 317 317 316 317 311 313 312 317 316 317 315 313 314 311 312 313 314 315 316 317 312 314 315 310 313 313 310 311
298 299 301 303 303 303 306 309 307 308 309 309 309 314 315 315 315 316 316 316 316 316 314 316 316 317 320 316 313 317 316 313 312 313 313 315 315 311 312 311 311 312 312 312 313

GFSSW_850_thetae_051.txt.gz
Theta_e
308 308 308 308 308 308 309 309 309 310 310 311 312 312 313 314 314 315 314 313 313 311 312 312 312 314 315 314 314 314 307 310 311 311 314 315 314 314 314 314 314 316 316 315 320
308 308 308 308 308 308 309 309 309 310 310 311 312 312 313 315 316 316 316 315 314 312 311 313 313 316 316 316 315 312 307 311 312 311 313 314 315 315 315 313 313 314 315 315 318
309 309 309 309 309 309 308 309 309 309 310 311 311 312 313 315 318 317 313 313 314 313 312 314 314 315 315 316 315 311 310 311 315 316 315 314 314 315 313 311 314 315 315 316 318
309 309 309 309 309 309 309 309 309 309 309 310 311 312 313 316 315 315 311 311 312 312 312 313 314 314 313 314 315 312 313 313 315 316 314 314 315 314 314 315 316 315 315 315 315
310 310 310 310 310 309 309 309 309 309 309 309 310 311 313 315 316 318 316 311 311 311 312 313 314 314 313 315 315 313 313 314 316 316 316 316 315 314 314 315 316 315 314 314 314
310 310 310 310 310 310 309 309 309 309 309 309 309 310 312 314 316 318 318 313 311 313 314 314 314 315 314 314 313 315 315 315 315 315 315 315 315 315 316 316 316 315 314 313 313
310 310 310 310 310 310 310 309 309 309 309 309 309 309 310 311 314 317 317 316 312 313 314 314 314 314 315 314 314 314 313 311 312 314 314 314 313 312 315 315 315 314 313 313 313
310 307 307 308 309 309 309 309 309 309 309 309 309 309 310 311 313 316 317 316 315 313 313 313 313 315 315 314 313 313 310 313 312 312 314 313 311 310 314 314 314 313 313 313 313
321 316 310 308 308 307 308 308 308 308 309 309 309 309 310 311 312 315 316 317 316 314 314 314 313 313 314 309 310 309 312 312 312 312 311 310 311 311 312 311 312 313 313 313 313
324 324 321 316 310 309 311 312 312 310 308 309 309 310 310 312 313 314 316 316 314 313 313 313 313 309 306 309 312 312 312 311 313 312 310 311 309 308 311 310 312 312 312 312 313
321 321 324 323 322 322 322 319 316 314 310 309 310 309 311 312 315 316 316 315 314 312 311 312 310 311 311 308 311 311 311 313 312 312 312 310 310 310 311 310 309 311 312 312 313
323 323 322 322 322 322 322 320 316 316 312 311 312 310 311 314 315 316 316 314 313 312 310 310 310 310 310 310 311 312 313 311 310 310 310 311 310 309 308 309 312 313 313 314 314
318 322 323 323 323 323 322 320 314 312 313 311 310 310 311 312 314 315 315 314 312 310 310 311 313 311 311 311 312 311 311 311 313 312 310 310 309 310 310 310 312 312 314 314 315
315 317 321 322 319 320 322 320 318 311 305 306 310 311 311 312 314 315 315 315 311 312 310 311 312 312 311 312 311 312 310 311 312 314 314 311 314 312 310 310 308 313 313 316 315
313 315 320 321 319 320 320 320 315 309 313 309 311 312 313 313 311 313 314 314 311 311 311 312 311 312 313 312 311 313 311 311 312 311 312 312 312 313 311 311 312 312 316 317 316
310 314 317 318 318 319 319 314 312 314 315 311 314 313 312 313 310 310 312 312 312 311 311 310 311 311 312 311 311 310 311 310 309 310 313 314 313 312 312 313 312 313 316 316 316
308 309 314 317 317 317 316 314 311 315 313 316 314 312 313 312 310 310 310 310 312 313 312 311 311 310 311 312 311 312 313 314 313 312 316 311 311 315 312 310 311 313 316 316 316
306 307 308 313 316 317 317 313 314 313 313 312 313 312 314 312 311 309 310 312 310 311 310 312 312 311 309 313 313 312 312 314 314 313 312 311 314 314 309 312 314 315 315 315 314
305 305 306 308 313 316 315 317 317 313 312 315 314 316 315 313 312 309 309 311 311 309 312 312 312 310 309 311 313 311 313 312 314 298 308 313 311 311 309 309 310 313 314 313 314
304 304 304 305 307 314 315 318 316 312 312 314 317 315 316 314 313 310 309 309 311 310 310 312 313 310 310 312 310 311 311 314 311 312 311 313 313 315 314 312 312 310 314 313 314
302 304 304 304 306 312 315 315 314 312 313 314 316 316 314 314 313 310 312 310 309 309 311 311 313 311 309 310 311 311 312 311 311 311 313 312 315 310 314 311 311 310 315 316 315
301 304 303 307 309 308 311 313 315 313 313 314 314 316 314 314 313 312 312 311 311 310 311 310 313 310 310 309 307 310 312 311 311 311 309 311 317 310 310 310 310 313 316 315 315
300 300 303 307 307 307 307 309 311 315 315 314 315 314 313 315 317 313 311 310 311 311 311 311 313 308 311 311 307 309 310 311 310 306 313 313 318 306 307 307 311 313 314 315 316
299 299 301 301 307 307 307 308 309 312 313 314 315 314 315 315 315 315 313 311 311 311 312 313 314 312 316 315 311 310 310 310 313 314 315 316 317 314 310 308 309 313 314 314 315
298 298 301 302 302 305 309 308 308 309 312 314 315 315 315 317 317 316 314 313 311 312 312 314 315 314 314 313 311 310 310 311 313 314 315 316 316 316 313 309 312 316 315 313 314
297 297 299 301 302 302 303 307 307 308 310 311 314 314 315 316 316 317 316 315 315 311 311 312 314 315 316 315 312 312 310 311 312 314 314 315 315 314 314 314 311 314 315 314 313
298 298 300 299 299 301 303 304 303 304 306 308 310 311 313 314 314 315 315 315 315 315 311 313 314 315 318 315 314 315 315 314 311 312 313 315 315 313 314 312 313 314 313 313 315

GFSSW_850_thetae_054.txt.gz
Theta_e
307 307 308 308 308 308 308 309 309 309 310 311 311 312 313 313 314 314 314 313 312 311 312 311 312 313 313 313 314 314 307 309 310 310 313 313 313 312 313 314 315 315 315 315 320
307 308 308 308 308 308 308 309 309 309 310 310 311 312 312 313 314 315 315 315 314 311 311 312 312 314 315 315 314 309 306 309 309 309 313 313 313 313 313 313 313 314 316 315 319
308 308 308 308 308 308 308 308 308 309 309 310 311 311 312 313 315 316 314 313 314 312 311 313 313 315 314 315 314 309 308 310 314 315 314 313 313 314 312 311 314 315 316 316 318
309 309 309 309 309 309 309 309 308 308 309 309 310 311 312 313 313 314 310 311 312 312 312 313 314 314 312 313 314 312 312 311 314 315 313 312 313 313 313 315 315 315 315 316 316
309 309 309 309 309 309 309 309 309 309 309 309 309 310 311 313 315 317 314 311 311 311 312 313 314 313 311 314 314 312 312 314 315 315 315 314 313 312 314 315 315 315 315 315 316
310 310 310 310 310 310 309 309 309 309 309 309 309 309 310 312 314 317 317 311 311 312 313 314 314 314 314 313 312 314 314 314 314 314 314 314 313 314 315 316 315 315 315 315 315
310 310 310 310 310 310 310 309 309 309 309 309 309 309 309 310 312 316 317 315 311 313 314 314 314 314 314 313 313 313 313 311 311 314 313 314 312 311 315 315 315 315 315 314 314
309 308 308 309 309 309 309 309 309 309 309 309 309 309 309 310 311 315 316 315 314 312 313 313 313 315 315 313 312 311 309 312 311 312 313 312 310 310 312 314 315 315 314 314 314
319 316 312 308 307 307 307 307 308 309 308 308 308 309 309 310 311 313 316 316 316 314 314 314 313 313 313 309 310 308 311 311 311 310 311 310 311 311 312 311 313 314 314 314 314
323 323 321 317 309 308 309 316 320 318 315 309 308 309 309 311 312 313 315 316 315 313 313 313 313 308 305 309 311 311 312 310 311 312 310 310 308 307 312 311 312 312 313 313 314
323 323 322 323 321 320 321 322 318 317 314 309 309 308 310 312 312 314 315 315 314 312 310 310 309 310 310 308 310 309 311 312 310 311 311 309 308 309 312 310 310 313 314 314 314
321 322 322 321 321 322 322 321 319 318 315 317 316 312 309 312 313 315 315 314 312 310 309 309 309 309 309 308 311 311 312 311 309 310 311 310 310 309 309 309 312 314 314 315 316
317 318 321 323 322 322 322 322 318 315 313 313 314 313 313 311 312 314 315 314 311 309 309 310 312 309 310 310 311 310 310 310 312 311 308 309 309 308 309 310 312 313 314 315 316
314 315 318 322 320 322 322 322 320 313 308 308 309 312 311 311 312 312 315 314 311 311 309 310 310 311 310 311 310 311 308 310 311 313 312 310 312 309 310 309 308 313 314 316 316
311 313 315 319 319 320 320 321 316 313 323 310 309 311 312 311 310 312 313 313 310 310 310 311 310 311 312 311 309 312 309 309 311 311 312 310 312 310 310 311 311 312 315 317 317
309 310 313 317 318 319 320 320 313 314 319 312 313 312 311 312 310 310 312 312 311 310 311 310 310 310 311 310 310 308 310 309 308 309 313 311 311 312 311 312 311 312 315 316 316
307 308 311 316 316 317 317 313 314 316 313 315 313 311 311 311 310 310 310 310 311 312 312 311 310 310 311 311 310 311 312 313 312 311 315 309 311 314 310 310 309 311 315 315 315
305 306 308 312 315 316 315 314 316 314 313 312 312 312 313 311 310 309 309 311 309 310 308 311 311 310 308 311 312 310 312 313 312 310 310 309 312 312 309 310 313 313 315 314 314
302 305 305 307 312 315 315 315 318 312 311 313 314 315 314 313 310 309 309 309 310 309 311 310 310 309 308 310 311 311 312 312 312 296 307 310 309 309 308 309 310 312 313 315 315
298 302 303 304 307 311 314 315 316 311 311 313 316 315 315 313 313 310 308 308 310 309 309 310 312 309 309 310 310 310 310 313 309 311 309 311 311 313 314 311 310 308 313 315 316
298 301 302 303 305 309 312 313 314 313 313 314 315 316 313 313 312 310 311 310 307 309 310 310 312 310 309 309 310 311 312 311 311 310 310 309 313 308 311 311 311 310 315 315 316
298 300 302 305 307 306 308 308 309 313 313 312 314 315 314 312 312 311 311 311 310 309 311 309 311 313 310 308 306 308 310 310 311 310 308 309 315 309 309 308 309 313 315 315 316
299 300 301 305 306 305 305 306 308 310 314 314 314 314 313 315 317 311 310 310 310 310 311 311 314 312 313 311 307 309 308 310 308 305 310 311 316 306 307 306 311 312 314 315 315
299 297 298 298 302 304 304 305 306 308 308 312 314 314 315 315 315 315 312 310 310 311 313 313 313 314 317 313 310 309 308 309 312 313 315 313 314 313 311 309 308 312 313 314 316
299 298 299 299 299 300 303 306 305 306 308 310 310 312 313 314 316 315 313 312 311 310 311 314 314 313 314 311 310 309 309 310 312 313 313 315 313 314 312 310 312 316 314 315 316
298 297 298 299 301 299 300 304 306 307 307 307 309 310 311 313 313 314 315 314 314 310 311 313 315 312 315 313 311 312 309 309 311 312 312 313 313 314 313 313 311 314 316 315 315
297 298 298 298 297 298 300 302 301 302 303 305 307 307 310 312 312 312 309 312 314 315 313 314 313 314 318 314 312 315 314 315 313 311 312 313 314 312 313 311 312 313 314 315 316

GFSSW_850_thetae_057.txt.gz
Theta_e
307 307 307 307 308 308 308 309 309 309 310 310 311 311 312 312 313 313 313 312 312 311 312 311 312 313 313 314 314 313 310 311 312 311 314 311 311 311 313 314 316 316 315 315 318
307 307 307 308 308 308 308 308 309 309 310 310 311 311 312 312 313 314 314 314 313 312 311 311 312 314 314 314 313 309 308 311 309 309 312 311 312 312 313 312 314 314 315 315 318
307 307 308 308 308 308 308 308 308 309 309 309 310 311 311 312 314 315 315 314 314 313 311 312 312 314 313 314 313 309 307 309 312 313 313 312 312 312 312 311 314 315 315 315 317
308 308 308 308 308 309 309 309 309 308 308 309 309 310 311 312 311 314 311 311 312 313 311 312 313 314 311 312 313 312 310 311 313 314 313 311 312 312 312 314 315 315 315 315 315
308 309 309 309 309 309 309 309 309 309 309 309 309 309 310 312 314 316 313 311 311 312 312 312 313 313 310 313 313 311 311 313 314 314 314 313 312 312 313 315 315 315 315 315 315
309 309 309 309 309 309 309 309 309 309 309 309 310 310 310 310 312 317 317 311 311 311 312 313 313 313 313 312 311 313 313 313 313 314 313 313 313 314 315 315 314 314 315 315 315
310 310 310 310 310 310 309 309 309 309 309 309 309 310 310 310 311 315 317 315 311 313 313 313 313 314 313 312 313 312 312 311 311 313 313 313 311 311 315 315 315 315 315 315 315
310 309 310 310 310 310 309 309 309 309 309 309 309 309 310 310 310 313 316 316 313 312 313 313 313 314 314 312 311 310 309 312 310 311 312 312 311 310 311 313 314 315 315 315 315
318 314 310 308 307 307 308 308 308 309 309 308 308 309 309 310 310 311 316 315 314 313 313 313 313 313 312 309 310 308 311 311 311 310 310 310 311 310 312 311 312 313 314 315 315
322 320 319 315 309 308 308 309 318 318 316 313 309 309 309 310 311 312 313 316 315 314 313 313 312 307 305 309 310 311 312 310 311 311 309 310 309 308 312 310 313 314 314 314 314
323 323 323 321 316 314 319 322 319 317 315 312 309 309 309 311 311 312 314 315 314 312 310 310 309 310 309 308 309 308 310 311 309 309 311 310 309 309 312 310 310 314 315 316 316
322 322 322 321 322 322 322 322 321 318 317 319 318 317 317 313 311 313 314 313 312 310 308 308 309 309 308 307 310 310 311 311 309 309 310 309 310 310 309 312 313 314 315 316 317
318 319 321 321 319 321 321 321 321 316 314 316 317 317 318 316 313 311 314 313 310 308 308 309 310 308 309 308 309 309 310 310 311 310 308 308 309 309 308 309 312 314 315 315 316
314 315 316 318 320 321 321 322 322 315 312 313 310 312 313 313 311 311 312 314 310 310 307 309 309 310 309 310 309 310 307 309 311 312 312 309 311 310 309 309 308 313 314 316 317
311 312 314 318 320 321 320 321 318 314 323 311 309 311 311 311 310 311 312 313 309 310 309 310 309 310 310 310 308 310 307 308 310 310 311 310 312 311 309 310 310 311 314 316 316
310 310 312 316 316 319 319 320 313 318 323 313 311 312 310 311 310 310 311 312 311 309 310 309 309 309 310 309 309 307 309 308 307 309 312 310 311 311 309 311 311 310 315 315 315
308 308 309 314 315 315 318 315 315 318 314 315 312 310 310 310 309 309 310 310 310 312 311 310 310 309 310 310 309 310 311 312 311 312 315 308 310 313 310 309 309 311 315 315 315
303 306 307 311 314 313 314 314 317 316 313 311 311 310 311 310 309 309 309 311 309 308 306 311 310 309 308 310 311 309 311 311 310 309 309 308 312 312 308 310 311 312 314 314 313
295 301 305 307 311 313 313 314 314 313 310 312 313 314 312 312 309 309 308 309 309 307 310 308 309 308 307 309 310 310 312 310 310 296 307 308 307 307 307 308 309 312 313 313 314
297 295 299 304 308 311 313 314 314 311 310 312 315 314 313 312 311 308 307 307 309 308 309 309 310 309 309 310 309 309 309 312 309 310 308 309 308 311 312 312 309 308 311 314 315
298 297 300 301 306 308 312 312 312 312 312 314 314 315 313 313 311 309 311 309 307 307 310 309 310 309 309 309 309 311 311 310 310 309 310 308 311 306 309 309 309 308 313 315 316
298 297 302 304 306 306 307 307 310 311 312 312 313 314 313 311 312 310 310 310 309 308 310 309 311 311 309 307 305 307 309 310 311 309 307 308 314 309 307 309 310 311 312 314 316
298 298 301 305 303 304 303 305 307 308 309 312 313 313 312 313 316 312 311 309 310 309 310 310 313 308 313 310 307 308 307 308 307 305 308 312 315 306 306 307 310 310 313 313 315
298 296 298 302 303 302 302 303 305 306 306 307 311 313 313 314 314 315 311 310 309 309 311 312 313 313 317 313 309 309 307 309 312 313 314 311 313 312 311 309 309 312 314 314 315
298 298 298 295 297 300 304 304 302 303 306 307 307 307 310 313 312 315 314 313 312 311 311 314 315 314 313 312 310 310 309 310 311 313 314 314 313 313 312 311 312 315 314 314 315
299 298 297 297 299 297 298 301 303 305 304 305 305 305 307 309 309 310 311 310 312 311 312 312 313 314 315 312 313 311 309 309 310 312 312 313 313 313 313 311 310 313 314 314 315
297 298 298 298 296 298 298 298 299 300 301 303 306 304 305 306 306 307 306 305 308 310 311 312 312 313 317 314 313 314 313 312 311 310 311 312 312 312 311 311 310 312 313 314 314

GFSSW_850_thetae_060.txt.gz
Theta_e
307 307 307 307 307 308 308 308 309 309 310 310 310 311 311 312 312 312 312 312 312 311 312 311 312 313 313 316 316 315 320 321 320 318 319 313 316 312 313 315 315 316 315 316 319
307 307 307 307 308 308 308 308 309 309 309 310 310 311 311 312 313 313 314 313 312 311 311 311 312 313 314 314 314 317 320 319 317 317 318 315 316 314 315 315 316 315 315 315 318
307 307 307 307 308 308 308 308 308 309 309 309 310 311 311 312 315 314 314 314 314 313 311 311 312 313 315 314 314 313 318 313 314 313 314 315 314 313 315 317 317 317 316 315 318
307 307 307 308 308 308 308 308 308 308 308 309 309 310 311 313 313 313 312 311 312 313 311 312 313 314 315 316 313 315 312 313 315 314 314 315 314 314 314 318 315 315 315 315 315
307 308 308 308 308 308 308 309 309 309 309 309 309 309 310 312 314 315 310 310 311 312 312 312 313 314 315 315 314 314 314 313 314 313 313 312 314 315 314 315 314 315 315 315 315
308 308 308 308 309 309 309 309 309 309 309 309 309 310 310 311 312 317 314 310 311 311 312 312 312 313 314 314 315 314 314 314 314 314 313 315 315 314 316 315 315 315 315 315 315
309 309 309 309 309 309 309 309 309 309 309 309 309 310 310 310 311 315 316 313 311 312 312 313 313 314 313 315 312 312 316 315 314 314 315 313 315 316 316 315 314 314 315 315 315
310 309 310 310 310 310 310 309 309 309 309 309 309 309 309 310 310 314 316 314 312 313 313 313 313 314 314 312 314 315 316 317 315 313 314 314 318 317 312 313 315 315 315 315 315
315 312 310 309 309 309 309 309 308 308 308 309 309 309 309 309 310 312 315 315 313 312 313 313 313 313 313 317 317 316 317 317 316 313 314 315 318 317 312 312 314 314 314 314 315
320 319 317 314 309 307 307 307 310 316 316 314 310 309 309 310 311 312 314 315 315 314 313 313 313 315 315 317 315 317 317 315 316 314 313 316 316 317 315 312 314 316 315 314 314
321 321 321 319 315 309 315 316 317 316 315 312 308 308 310 310 311 312 314 315 314 313 316 311 316 317 317 316 314 314 315 315 315 313 314 317 317 317 316 315 315 315 315 316 316
316 322 322 321 322 320 321 322 320 318 319 320 319 317 313 312 311 312 313 314 313 315 312 314 315 316 312 312 313 314 316 316 315 312 313 316 316 316 316 315 316 316 316 316 316
315 315 321 321 321 320 320 321 321 320 317 318 319 319 319 316 315 314 313 313 313 312 313 314 315 311 312 312 313 314 316 315 315 313 312 314 316 317 316 314 314 314 315 315 316
315 318 318 319 320 321 320 321 321 317 321 319 312 314 315 314 313 312 313 313 311 314 312 314 312 312 312 313 314 315 313 314 314 315 316 313 315 316 316 316 315 315 316 315 315
312 313 315 318 318 319 320 319 321 314 328 315 310 311 311 314 311 311 311 312 314 313 313 314 312 312 314 314 313 315 311 313 313 316 315 315 316 315 314 315 316 316 316 316 316
309 309 314 316 317 318 318 320 317 319 325 317 311 313 311 310 310 310 311 311 310 312 311 312 309 312 314 310 311 310 313 313 314 316 317 316 315 315 316 316 316 315 315 315 315
307 309 310 314 315 317 318 315 317 320 316 317 314 312 312 312 311 312 312 312 314 314 314 312 312 310 310 313 311 313 316 316 318 319 318 313 315 315 315 314 314 315 315 314 313
299 306 308 312 314 314 315 314 320 319 319 312 313 311 313 312 311 311 313 314 312 311 312 314 313 312 312 314 315 314 315 316 319 317 315 310 315 316 315 313 312 312 314 313 313
297 297 305 310 312 313 314 314 316 315 315 315 314 315 315 313 312 311 312 313 314 312 312 312 312 309 309 311 314 313 314 314 315 307 313 314 315 315 314 312 312 313 314 314 314
297 296 297 305 310 312 313 313 313 313 312 313 317 316 317 316 313 312 312 312 312 312 312 312 312 310 309 310 310 312 313 315 314 320 318 314 314 316 316 316 316 314 313 313 313
299 297 297 303 307 310 312 312 312 312 312 314 316 316 316 315 314 312 313 312 310 310 312 313 312 312 310 312 313 312 313 313 313 315 317 317 315 315 315 316 314 314 312 313 314
298 299 301 304 307 308 309 310 309 311 312 313 314 315 316 315 315 316 316 313 309 310 312 312 313 315 314 310 310 312 314 314 315 316 314 315 317 311 314 314 312 313 313 315 314
298 298 302 305 305 307 305 307 308 309 311 313 313 314 313 314 315 316 316 312 310 311 313 312 315 318 317 313 309 311 312 312 314 313 319 319 317 313 312 312 313 312 314 315 315
298 300 298 303 303 303 304 305 306 306 308 309 310 312 313 314 313 314 314 312 309 309 310 312 314 317 320 317 314 313 312 313 314 316 316 316 316 316 315 314 313 313 313 314 315
298 299 299 301 302 303 303 302 304 304 306 306 307 308 311 312 313 314 312 310 309 309 311 313 315 315 316 316 313 314 314 313 313 314 316 316 316 316 315 315 314 314 313 313 314
298 299 297 298 299 301 302 303 304 303 303 303 305 306 307 308 308 309 308 309 311 309 308 311 312 314 315 316 316 316 314 313 313 314 314 315 316 316 315 314 315 313 312 312 313
298 298 298 299 300 300 301 301 302 303 303 304 305 305 305 305 306 306 304 304 305 307 310 311 311 312 314 315 315 316 315 316 315 314 315 316 316 315 315 315 314 314 313 312 313

GFSSW_850_thetae_063.txt.gz
Theta_e
308 308 307 307 307 308 308 308 309 309 310 310 310 311 311 312 312 312 314 312 312 312 313 312 312 313 315 318 317 317 321 321 321 321 320 318 319 316 317 318 318 319 318 319 324
307 307 307 307 307 308 308 308 309 309 309 310 310 311 311 312 313 315 313 312 312 311 312 312 315 314 317 318 318 320 321 321 320 320 320 318 318 318 317 317 318 318 316 316 326
307 307 307 307 307 308 308 308 308 309 309 309 310 310 311 312 317 316 314 313 313 312 311 311 314 315 316 317 318 319 321 319 318 317 317 318 317 317 317 319 318 318 318 316 323
307 307 307 307 307 307 307 308 308 308 308 309 309 310 311 313 316 314 314 313 313 313 311 312 314 315 316 317 316 316 316 316 317 317 316 318 318 317 317 318 318 318 318 317 323
307 307 307 307 308 308 308 308 308 308 309 309 309 309 311 314 316 313 311 311 312 313 312 314 314 315 316 316 315 315 316 315 316 315 316 315 317 318 318 318 317 316 316 317 320
307 307 308 308 308 308 308 308 309 309 309 309 309 309 310 313 313 316 312 310 311 312 312 312 314 314 316 316 316 316 316 316 316 316 316 316 317 316 318 318 317 316 315 316 317
308 308 308 308 309 309 309 309 309 309 309 309 309 309 309 312 311 316 315 311 311 311 313 312 312 315 316 316 315 316 317 316 316 316 317 315 317 317 316 316 316 317 316 316 316
309 309 309 309 309 309 309 309 309 309 309 309 309 309 312 310 311 315 315 313 312 312 312 313 313 315 317 315 316 317 317 317 318 316 316 317 317 319 317 317 316 316 317 317 316
310 310 310 309 309 310 310 309 309 309 308 308 308 309 312 310 311 314 315 313 312 313 313 313 314 316 315 318 318 318 317 318 318 316 317 317 319 319 315 315 316 316 317 317 317
313 313 313 311 309 308 308 308 308 308 311 313 311 310 309 311 310 312 314 314 313 313 313 314 315 317 317 317 316 317 318 317 318 317 316 317 318 318 317 317 317 317 318 318 317
319 319 317 315 313 310 312 311 313 316 317 314 310 309 309 310 311 312 314 314 314 315 317 315 316 316 317 317 317 316 317 317 317 316 316 317 317 317 317 317 317 317 317 317 317
320 320 320 318 318 317 321 321 319 318 321 320 319 314 310 311 313 312 313 315 315 316 315 315 316 317 316 317 316 316 316 316 317 316 315 316 317 317 317 317 317 317 317 317 317
317 316 319 321 321 321 321 321 321 321 321 320 319 318 318 315 316 315 313 314 314 315 315 314 315 314 315 315 316 316 316 316 316 316 315 316 317 317 318 317 317 317 317 317 317
316 317 316 319 320 321 320 320 321 321 323 322 317 316 317 316 316 314 313 314 314 315 314 315 315 314 314 314 315 315 316 316 316 316 315 316 316 316 317 317 318 317 317 317 317
315 315 315 314 316 319 319 320 320 318 328 319 313 312 313 316 314 312 312 312 315 315 315 315 315 314 314 314 315 316 314 315 316 317 317 317 317 316 317 317 317 317 317 318 318
311 312 316 316 314 314 320 320 318 320 324 317 313 314 314 313 311 311 312 312 312 315 314 315 311 314 315 312 314 314 316 316 317 317 316 316 316 316 317 317 317 317 318 318 317
310 310 314 316 316 317 317 318 317 320 318 320 315 314 315 315 313 313 313 314 317 316 316 315 314 313 312 314 313 315 316 315 317 320 317 316 316 317 316 317 317 317 317 316 316
298 308 309 314 315 316 315 318 319 319 320 315 315 314 315 314 314 313 315 316 314 316 316 317 317 314 313 315 315 315 316 317 318 318 318 314 317 316 317 317 316 315 315 315 315
297 299 308 311 314 315 314 317 316 315 316 317 316 317 316 314 314 313 314 316 316 315 315 316 315 313 313 313 314 315 316 316 318 316 316 315 316 316 317 315 315 315 315 315 315
298 296 300 309 311 313 314 315 314 314 314 316 318 318 319 317 314 314 315 314 314 314 314 315 314 312 312 312 312 314 314 315 315 321 318 315 316 316 317 317 317 317 316 316 316
299 300 297 305 310 312 313 313 313 313 313 315 315 315 316 316 317 316 316 314 313 313 313 314 313 313 312 313 314 313 313 314 315 315 317 318 316 317 317 317 317 317 316 316 316
300 301 298 304 309 309 310 311 311 312 312 314 314 315 315 315 316 316 316 315 312 312 314 313 314 316 314 313 313 314 314 314 316 316 315 316 317 317 316 315 316 315 315 315 315
300 301 299 306 307 309 308 308 309 309 311 313 313 313 313 314 316 317 317 315 312 313 315 314 315 318 318 316 312 313 314 314 315 315 319 320 317 316 316 316 315 315 315 315 315
299 301 301 303 304 305 306 307 307 307 309 310 311 312 313 314 314 314 315 314 312 311 311 312 315 318 320 318 317 315 314 314 314 316 317 317 316 316 316 316 316 315 315 315 315
299 300 301 303 303 305 304 304 305 305 306 307 309 311 312 312 311 313 314 313 312 311 311 311 314 315 316 316 316 317 318 316 315 315 316 316 316 316 316 316 316 316 316 315 315
299 300 300 301 302 303 303 303 303 304 305 305 307 306 308 309 309 309 311 312 311 311 311 308 312 311 311 311 312 314 314 317 317 315 315 315 316 316 316 316 316 316 316 315 315
299 299 300 299 300 303 303 303 303 303 303 303 304 305 306 306 306 307 306 306 307 307 308 310 312 311 311 311 312 315 315 315 316 317 316 316 316 316 316 316 316 316 316 315 315

GFSSW_850_thetae_069.txt.gz
Theta_e
308 308 307 308 307 308 308 308 308 309 309 310 310 310 311 311 312 312 312 313 314 314 313 312 313 315 318 319 318 318 313 315 317 318 316 318 317 318 318 318 318 318 320 322 323
308 307 307 307 307 307 308 308 308 309 309 309 310 310 310 311 312 312 315 313 313 312 312 312 314 315 318 319 318 316 312 316 315 315 315 317 318 317 317 317 318 318 317 320 322
307 307 307 307 307 307 308 308 308 309 309 309 309 310 310 311 314 315 315 312 312 311 312 314 314 315 315 318 318 317 315 315 315 316 317 317 317 317 316 314 316 317 317 321 322
307 307 307 307 307 307 308 308 308 308 308 309 309 309 310 312 315 315 315 313 312 311 311 313 314 315 314 314 317 315 315 315 316 316 316 316 317 316 316 317 317 317 317 318 321
307 307 307 307 307 307 307 308 308 308 308 308 308 309 310 313 315 313 313 313 313 312 310 311 314 314 314 314 315 313 314 314 316 315 316 316 316 316 316 317 317 317 318 318 318
306 307 307 307 307 307 307 308 308 308 308 308 308 309 310 315 314 314 311 311 312 312 311 313 314 314 315 315 313 315 315 314 315 315 315 314 314 315 316 317 317 316 317 318 318
307 307 307 307 307 307 308 308 308 308 309 309 309 309 309 312 312 314 311 310 311 312 312 312 313 314 315 314 315 315 314 313 314 315 315 315 310 312 315 316 317 317 316 316 317
307 307 307 307 308 308 308 308 308 309 309 309 308 309 311 311 310 314 313 311 311 312 313 312 312 315 317 315 315 314 313 312 313 313 315 313 308 311 315 315 316 316 316 316 316
307 307 308 308 308 308 309 309 309 309 309 308 308 309 312 310 311 313 314 312 312 312 312 312 314 315 315 312 312 313 310 311 315 314 314 313 311 314 316 315 315 315 316 316 316
309 309 309 309 309 309 309 309 309 309 308 309 310 309 309 311 311 314 314 313 312 312 313 313 314 311 310 309 310 313 314 313 313 314 313 313 311 311 315 315 316 316 316 316 316
313 312 312 312 310 309 309 309 309 310 310 312 311 310 311 311 311 312 314 312 312 313 312 314 310 310 310 310 311 314 314 313 313 313 314 312 311 311 314 314 313 315 316 316 317
319 316 315 314 313 310 310 318 314 316 319 313 313 310 309 311 312 312 313 313 314 312 313 310 310 311 311 313 313 314 314 312 312 313 313 312 311 310 310 312 314 314 314 315 316
319 320 319 318 317 315 319 320 318 319 318 320 319 316 311 311 314 312 313 314 314 313 312 311 313 312 314 314 314 314 313 312 312 312 311 310 309 310 311 313 314 314 315 315 315
318 318 319 319 318 317 320 320 320 318 317 319 317 318 316 314 315 314 313 314 313 313 311 313 312 313 313 313 312 313 312 312 312 311 310 311 309 310 312 310 309 313 315 316 316
314 316 317 320 319 320 319 320 320 317 316 315 314 315 315 316 314 313 313 314 311 311 310 311 311 312 313 313 311 312 313 313 313 313 314 312 310 309 309 310 309 311 314 315 317
312 312 313 315 317 320 320 320 317 316 315 314 312 312 314 312 312 312 313 313 313 313 312 311 312 312 311 311 311 311 313 313 312 311 310 310 309 308 309 310 312 313 315 316 316
311 311 312 311 313 314 316 319 317 314 315 316 314 312 314 313 312 311 311 311 313 313 313 313 312 311 312 311 311 313 310 309 312 312 310 309 309 309 310 310 312 314 314 314 314
305 311 313 311 313 313 314 314 318 316 317 314 314 313 315 314 313 312 312 312 311 313 312 314 315 311 310 311 312 311 309 309 311 314 312 308 311 312 309 312 313 314 314 315 316
298 304 308 312 314 312 312 312 316 315 316 315 313 314 315 313 312 312 311 312 311 311 315 314 315 310 310 311 311 311 313 310 311 300 308 309 309 309 309 309 313 313 314 315 314
298 298 306 309 313 313 312 313 313 314 315 316 316 314 314 313 313 312 312 311 313 311 312 313 314 310 310 311 311 311 310 312 310 309 310 309 309 311 310 310 311 313 315 314 315
299 296 300 307 311 313 313 312 314 313 313 316 316 318 315 314 313 313 313 311 311 311 312 312 312 311 310 310 310 310 311 311 311 310 311 309 310 307 309 311 312 313 314 314 315
299 298 300 301 310 310 311 311 310 311 312 313 313 314 315 316 315 315 315 312 311 311 311 312 311 309 310 309 309 309 310 310 311 310 308 309 313 309 308 309 311 312 314 314 314
300 300 299 307 308 309 308 310 309 310 312 313 313 312 311 313 315 315 314 312 312 311 313 312 311 305 310 311 311 311 310 309 309 306 309 308 313 309 309 310 312 312 314 314 314
300 298 300 302 304 304 307 307 309 308 309 310 310 311 311 311 312 313 315 312 312 311 313 313 312 309 310 314 314 314 313 314 315 307 311 311 311 311 310 311 312 313 313 314 314
300 297 300 297 300 303 303 305 307 306 308 309 308 309 311 311 311 311 312 311 311 311 310 312 313 312 312 312 313 315 314 314 315 315 316 314 315 315 313 312 312 312 313 313 313
300 298 299 299 299 300 301 303 304 305 306 307 307 307 308 310 310 310 310 311 310 310 309 309 309 309 309 310 311 310 310 310 311 312 313 313 314 312 312 312 311 312 313 313 312
297 298 299 299 298 299 299 301 301 303 304 305 305 305 305 306 306 306 307 308 308 308 308 308 307 307 300 306 305 304 306 307 307 307 309 310 310 309 310 311 311 310 309 308 308

GFSSW_850_thetae_072.txt.gz
Theta_e
308 308 307 307 308 308 308 308 308 309 309 309 310 310 310 311 311 311 311 314 314 316 313 312 313 315 318 318 318 317 313 313 316 316 317 316 316 317 317 318 318 318 320 321 327
308 307 307 307 307 307 308 308 308 309 309 309 310 310 310 311 311 311 313 312 314 313 312 312 314 316 317 318 317 314 311 313 314 314 315 316 317 317 317 317 317 317 319 321 321
308 307 307 307 307 307 308 308 308 308 309 309 309 310 310 311 312 312 314 312 312 312 312 313 314 316 316 317 317 315 312 313 315 316 316 315 315 316 315 313 316 317 317 321 323
307 307 307 307 307 307 308 308 308 308 308 309 309 309 310 312 311 316 315 312 311 311 312 314 314 314 313 313 316 315 314 314 315 315 315 315 315 315 315 316 317 316 316 318 321
307 307 307 307 307 307 307 307 308 308 308 308 308 309 310 313 316 312 314 312 312 311 311 313 314 314 311 313 314 313 313 314 315 315 315 315 315 315 315 316 317 317 316 318 319
307 307 307 307 307 307 307 307 307 308 308 308 308 308 311 312 314 313 312 312 312 312 311 312 313 314 314 314 312 314 314 314 314 314 314 314 313 315 315 316 316 316 316 317 318
306 306 307 307 307 307 307 308 308 308 308 308 308 309 310 312 313 313 310 311 311 312 311 312 313 313 314 313 315 314 312 312 313 314 314 314 310 311 313 315 315 316 316 317 317
306 306 306 307 307 307 308 308 308 308 308 308 308 309 311 310 311 314 311 310 311 312 312 312 313 315 315 314 313 312 309 309 310 312 314 311 307 308 314 314 314 315 315 316 316
307 307 307 307 307 308 308 308 308 309 309 308 308 309 311 310 311 313 313 311 311 312 312 312 314 314 314 310 310 309 308 311 311 312 313 312 310 311 315 314 314 314 315 315 315
308 307 307 307 308 308 308 309 309 309 308 308 309 309 310 310 311 313 313 312 312 312 313 314 314 310 308 308 307 311 312 311 311 312 312 313 310 309 315 313 314 314 315 316 315
311 310 309 308 309 309 309 309 308 309 309 310 310 310 309 312 311 313 313 312 312 312 310 312 309 310 309 309 310 311 312 313 312 313 313 311 310 309 313 313 313 314 314 314 315
314 314 312 311 310 310 309 310 310 312 312 313 310 310 310 310 311 313 313 313 312 310 311 309 309 308 309 309 311 312 312 312 311 312 312 311 310 308 309 311 313 313 314 314 314
318 317 316 313 313 312 312 315 314 317 317 317 315 312 310 311 311 312 312 313 311 311 311 309 311 310 312 312 312 312 311 311 311 311 309 310 306 307 309 311 313 313 313 314 315
319 319 319 317 315 317 319 317 318 317 313 316 317 317 313 310 314 312 312 313 312 311 310 312 312 311 312 312 311 312 311 311 311 310 309 309 307 308 309 308 308 312 311 313 314
317 317 319 319 318 317 318 320 319 315 309 313 315 314 314 313 312 313 313 313 310 311 310 311 311 311 312 311 310 310 311 312 312 311 312 310 309 307 307 309 307 309 312 316 316
316 316 318 319 318 318 319 320 317 313 313 314 312 312 313 312 312 312 312 312 312 311 310 310 311 310 310 310 310 310 311 309 309 307 308 308 307 305 307 309 311 311 313 313 314
312 314 315 317 318 319 319 318 316 308 311 314 313 312 314 312 312 311 310 311 310 311 311 312 312 311 311 311 311 309 307 308 309 309 308 307 307 307 308 308 311 310 312 315 315
310 312 312 311 313 314 317 316 315 311 315 312 313 312 315 313 312 311 310 311 310 311 309 312 314 310 310 310 311 309 307 308 308 310 308 307 310 310 309 310 311 311 313 314 314
303 308 311 311 312 312 314 316 313 315 315 314 313 314 314 313 312 312 311 311 311 310 313 312 313 310 310 309 310 311 311 307 308 297 307 308 307 308 308 308 309 311 314 314 314
298 301 309 312 312 313 311 311 313 313 315 312 316 313 314 312 312 312 311 311 312 310 311 312 313 309 309 310 309 310 309 311 308 307 307 307 308 309 309 310 308 309 313 313 314
298 298 304 309 311 312 311 311 312 312 314 316 316 315 314 312 311 312 312 311 310 310 310 309 311 311 309 309 310 310 310 310 309 308 309 308 309 305 309 308 308 310 312 313 313
299 297 300 307 310 310 311 311 312 312 312 313 314 315 316 315 313 313 313 312 311 310 312 311 309 308 310 308 307 308 309 309 310 309 307 309 310 307 306 307 310 311 312 313 313
299 300 298 307 311 310 309 310 310 311 312 313 313 313 314 315 317 316 315 313 311 312 312 311 311 308 311 311 310 310 310 309 307 305 308 308 311 306 307 310 311 311 312 312 313
300 298 300 303 304 306 308 309 309 309 310 311 311 311 311 313 313 315 314 313 312 312 312 312 311 310 312 312 312 312 313 314 310 307 310 310 311 309 310 311 312 311 311 312 312
299 297 299 297 302 303 304 307 308 308 308 309 308 310 311 311 311 312 312 311 310 311 310 311 309 311 312 311 313 313 313 312 313 313 313 313 313 312 311 310 311 310 311 311 311
299 298 298 298 299 302 302 303 306 307 307 307 308 308 308 310 310 310 311 311 311 310 310 308 310 309 308 309 311 311 309 309 311 311 312 312 312 310 309 309 309 308 308 307 307
297 298 298 298 297 301 302 301 302 304 304 306 306 305 307 307 307 306 307 308 309 309 308 309 307 305 303 304 304 302 305 308 307 307 309 309 308 306 306 307 305 306 305 304 305

GFSSW_850_thetae_075.txt.gz
Theta_e
308 308 308 308 308 308 308 308 308 308 309 310 310 310 310 311 311 311 310 312 314 315 314 312 312 313 316 317 318 317 312 314 314 313 315 314 315 315 316 317 317 318 319 321 330
308 308 307 307 307 308 308 308 309 309 309 309 309 310 310 311 312 311 311 314 313 315 313 312 313 315 317 317 317 314 312 313 313 312 314 315 315 316 316 316 317 317 318 321 328
308 308 307 307 307 307 308 308 308 309 309 309 309 310 310 311 313 311 313 313 313 313 312 312 314 316 316 316 316 313 313 311 314 314 315 315 315 315 314 314 316 317 317 321 326
308 307 307 307 307 307 308 308 308 308 308 309 309 309 310 312 310 313 313 312 312 312 312 313 315 314 313 313 315 314 313 313 315 315 315 314 314 314 314 316 316 317 317 318 322
308 307 307 307 307 307 307 308 308 308 308 308 308 309 310 314 315 315 315 312 311 311 312 313 314 313 311 312 313 312 312 314 315 314 314 315 314 313 314 316 316 317 316 317 318
307 307 307 307 307 307 307 307 307 307 308 308 308 308 311 311 315 312 313 312 312 310 311 313 314 313 312 312 312 312 312 313 314 313 313 312 312 314 313 314 315 315 316 316 318
307 307 306 307 307 307 307 307 307 307 308 308 308 308 311 311 314 311 311 312 312 311 311 312 313 313 313 313 314 313 311 311 312 313 312 313 309 310 313 313 314 315 315 316 317
307 306 306 306 307 307 307 307 308 308 308 308 308 308 309 311 312 312 310 311 311 311 311 312 313 314 313 313 312 310 307 307 308 311 312 309 307 308 313 313 313 313 314 315 316
307 306 306 306 307 307 307 308 308 308 308 308 308 309 310 310 312 313 311 310 311 312 312 312 314 314 313 308 308 308 306 309 310 311 312 311 310 309 313 313 314 314 314 315 315
307 306 306 307 307 307 308 308 308 308 308 308 309 309 310 311 311 313 311 311 311 312 313 314 313 308 306 306 306 310 309 310 310 311 312 311 310 308 313 313 313 314 314 314 314
308 307 307 307 307 308 308 309 308 310 309 309 309 309 309 311 312 313 312 312 311 312 310 311 309 308 309 307 307 308 311 312 311 311 312 311 309 309 312 312 312 314 314 314 314
309 309 308 308 309 309 309 308 309 310 309 312 310 310 310 311 312 312 312 312 312 309 310 308 309 308 308 308 310 311 311 311 310 311 312 310 309 307 308 311 312 312 313 313 313
312 312 312 312 311 312 310 310 309 313 313 313 311 310 310 311 310 312 312 312 309 310 309 308 309 308 310 309 310 310 309 310 310 309 308 308 306 305 306 309 312 312 311 311 312
316 315 315 315 316 314 312 312 313 317 310 314 316 315 310 311 313 312 312 313 311 310 309 310 310 309 311 311 309 312 309 310 310 308 307 307 306 306 307 306 306 309 310 314 314
317 318 318 319 317 317 315 316 318 313 308 311 315 313 311 311 311 312 312 313 310 310 310 310 310 310 311 311 309 310 310 310 310 308 310 309 307 306 305 307 308 308 311 312 313
316 317 319 319 319 317 318 319 317 312 309 315 312 312 312 312 311 311 312 312 311 310 308 309 310 309 309 309 309 308 308 306 307 305 306 306 305 304 305 308 308 308 313 314 315
313 313 317 318 319 318 319 318 314 305 309 313 313 312 313 311 311 310 310 310 310 310 311 311 311 310 310 310 310 307 306 307 307 307 306 306 306 305 306 307 308 309 313 313 314
309 310 315 316 317 318 319 315 314 308 311 311 312 313 315 312 312 310 309 310 309 307 308 310 312 310 309 309 310 307 306 306 307 307 307 307 309 308 308 307 309 312 312 313 313
309 308 311 313 313 316 315 316 312 312 313 313 312 314 314 313 312 311 309 309 309 308 309 309 310 309 309 308 309 310 308 306 306 295 305 306 307 307 305 306 310 310 312 313 313
300 303 308 311 313 313 314 311 313 312 314 312 316 313 314 313 313 312 310 311 311 309 310 310 313 309 309 309 309 309 308 309 306 306 306 306 308 308 308 308 308 308 310 312 313
298 300 306 311 310 312 309 310 311 312 312 314 314 313 312 311 311 312 313 311 310 309 310 309 312 310 309 309 309 309 310 308 308 307 309 307 308 305 308 308 308 310 311 312 312
298 296 301 308 310 311 309 311 312 313 312 313 313 315 312 310 311 311 311 311 310 309 311 309 309 309 309 308 307 308 308 307 310 308 306 308 309 306 306 307 309 310 310 311 311
298 299 299 307 309 310 310 311 311 313 312 313 313 313 314 315 315 315 313 312 311 310 311 310 310 309 313 310 309 308 309 307 306 305 306 309 309 305 306 308 310 309 309 311 311
299 298 298 304 304 307 310 311 311 310 312 312 312 312 312 314 313 315 314 312 312 311 312 311 310 311 315 312 310 312 313 311 308 307 308 309 309 305 305 308 308 309 310 310 310
299 297 298 295 302 303 306 309 310 309 309 310 311 311 311 311 311 313 313 312 311 311 311 311 313 312 312 311 312 312 312 312 311 309 309 311 311 311 309 308 307 308 308 307 307
298 297 298 297 298 303 303 305 308 307 308 308 308 309 310 309 310 312 312 311 312 309 311 309 311 310 310 308 311 311 309 309 310 311 311 311 311 308 308 308 307 307 306 305 305
297 297 298 297 297 302 302 303 303 305 305 307 307 307 308 308 307 306 310 311 310 309 309 308 307 307 309 304 307 308 307 307 307 308 308 309 308 306 305 306 304 305 303 303 303

GFSSW_850_thetae_078.txt.gz
Theta_e
310 309 309 309 308 308 308 308 309 309 309 309 309 310 310 310 311 311 310 311 311 315 315 313 312 313 315 317 317 317 312 313 314 312 315 313 314 315 315 316 317 321 318 320 326
308 309 309 308 308 308 308 308 308 308 309 309 310 310 310 311 311 311 310 310 314 315 314 312 312 314 316 316 316 313 311 313 312 311 313 313 315 315 315 315 316 317 317 319 327
308 309 308 307 307 307 308 308 308 309 309 309 309 309 310 310 312 311 311 312 313 315 313 312 313 316 316 316 315 312 313 312 314 314 314 314 314 315 314 314 316 317 317 319 325
308 308 307 307 307 307 308 308 308 308 309 309 309 309 309 312 309 312 312 313 313 313 312 312 315 314 313 313 314 314 312 312 314 314 314 314 314 313 314 316 315 316 316 317 323
310 308 307 307 307 307 308 308 308 308 308 308 308 308 309 313 315 314 314 313 312 312 312 313 315 313 311 312 312 312 311 313 314 314 313 314 313 313 313 315 315 316 316 317 319
311 308 307 307 307 307 307 307 308 308 308 308 308 308 312 311 314 314 314 312 311 311 312 313 314 313 312 311 312 311 311 312 313 312 313 312 311 313 312 314 314 315 315 316 318
312 307 307 307 307 307 307 307 307 307 307 307 307 308 312 311 314 311 313 312 311 310 312 312 313 313 312 311 312 311 310 310 311 312 311 312 309 309 312 312 313 314 314 315 317
312 307 307 307 307 307 307 307 307 307 307 308 308 309 309 311 313 310 311 311 312 310 311 312 313 313 313 312 310 309 305 308 308 311 311 308 306 307 312 312 312 313 314 314 315
311 307 306 306 307 307 307 307 307 308 308 308 308 309 309 311 313 310 310 311 312 311 312 312 314 313 312 307 307 306 306 307 309 310 311 309 308 309 312 312 312 313 313 313 314
308 307 307 306 306 307 307 307 308 308 308 307 309 309 309 311 312 311 310 311 312 312 312 313 312 307 305 305 306 308 308 308 308 310 311 311 309 308 312 311 313 313 314 314 314
309 307 307 307 307 307 307 308 308 309 308 308 309 308 309 311 312 311 311 311 312 312 309 310 308 308 309 306 305 306 308 310 310 310 311 310 309 308 312 310 311 313 313 313 313
310 308 307 307 307 308 308 308 308 309 309 311 309 309 311 312 312 312 311 311 311 308 308 308 307 307 306 307 308 309 310 311 309 310 311 308 308 307 308 309 310 310 311 311 311
313 308 308 309 309 309 309 308 308 309 308 312 309 310 311 311 311 312 312 311 308 309 308 308 308 306 308 308 309 309 309 309 310 308 306 305 305 304 306 307 308 308 308 310 311
314 312 311 313 313 310 310 309 309 315 310 313 315 312 310 311 311 312 312 312 310 308 306 308 308 308 308 308 307 310 308 308 308 308 308 305 305 306 305 304 305 308 310 311 312
314 315 315 318 315 314 311 309 313 313 308 310 314 312 311 311 310 311 312 312 309 309 308 309 309 308 310 310 308 310 308 308 308 307 308 308 306 305 303 307 305 307 311 312 313
315 316 317 316 317 314 313 313 316 310 306 314 312 312 311 311 311 311 312 311 310 309 307 308 309 309 308 308 308 306 306 305 305 304 305 306 304 304 305 307 308 308 311 312 313
313 316 317 316 317 318 317 317 312 306 308 313 313 311 311 311 310 310 310 310 309 309 310 310 310 309 309 309 308 306 305 306 307 306 305 305 305 304 306 306 308 308 310 312 312
310 312 316 317 317 319 318 314 308 307 309 311 312 311 312 311 311 310 309 310 308 306 307 309 311 310 309 309 309 306 306 306 306 305 306 306 308 306 305 305 309 310 311 312 313
309 308 311 314 316 317 316 316 311 309 311 312 312 314 314 312 311 311 308 308 308 306 308 308 309 309 308 308 309 309 307 304 305 294 305 305 306 306 306 307 308 310 311 312 312
304 307 307 311 314 315 314 314 312 311 312 312 315 314 315 313 312 310 309 309 309 307 308 309 310 308 308 309 308 308 305 308 304 303 305 305 306 305 309 309 308 308 310 311 312
299 305 306 308 310 312 312 312 310 311 312 313 314 313 313 313 312 312 311 310 309 308 309 308 311 309 309 309 308 308 308 306 307 306 307 306 306 303 308 307 307 308 310 311 311
298 298 305 308 310 304 306 311 311 312 312 313 313 314 311 310 311 312 312 311 310 308 310 309 309 309 309 307 306 307 308 307 308 307 305 307 308 306 306 307 308 309 309 310 311
298 298 300 307 310 308 309 311 311 313 313 313 313 313 313 311 313 312 310 311 310 308 310 308 309 305 310 309 307 308 307 306 305 305 306 309 308 304 306 307 308 308 309 310 310
298 298 298 303 303 308 311 311 311 311 312 312 313 311 313 313 312 314 314 312 311 311 311 310 308 311 313 312 308 310 310 306 308 309 309 308 306 305 305 306 307 308 308 308 308
299 297 297 299 302 304 309 310 311 310 310 310 310 312 312 314 313 314 312 311 310 310 311 310 309 311 310 310 310 310 310 308 308 309 310 309 306 309 306 306 307 307 305 305 305
298 297 297 297 297 303 306 308 310 308 310 311 310 311 310 311 312 313 312 311 311 309 311 309 312 310 311 310 310 311 310 309 310 310 311 311 311 308 309 307 305 305 304 303 303
297 297 298 296 297 302 303 304 306 306 307 308 309 310 311 309 309 308 310 310 311 309 309 309 309 312 313 307 310 314 308 308 308 308 308 311 308 305 306 306 306 305 303 303 302

GFSSW_850_thetae_081.txt.gz
Theta_e
315 316 316 312 311 310 309 309 309 309 309 311 313 311 312 310 311 311 311 310 310 311 312 314 313 314 315 316 317 317 313 314 314 312 314 313 314 314 315 316 318 321 318 321 325
315 316 312 310 309 309 308 308 308 309 309 310 310 311 310 310 310 311 311 310 310 313 314 314 313 314 316 316 316 314 313 314 311 310 312 313 314 315 314 315 316 317 317 319 325
315 310 311 310 308 308 308 308 308 308 309 309 309 310 310 310 311 311 311 310 311 314 313 312 313 315 315 315 314 312 313 311 312 313 314 313 313 314 314 313 315 316 316 317 324
314 311 310 309 308 307 308 308 309 309 309 309 309 309 309 310 310 311 311 311 314 314 313 312 314 314 313 313 314 313 311 312 313 313 313 313 313 313 314 315 315 315 316 317 319
314 313 310 308 307 307 308 308 309 309 309 309 309 308 308 311 314 314 311 312 314 313 312 313 314 313 311 312 312 312 311 312 313 313 313 313 313 313 313 314 315 315 315 316 319
313 314 309 307 307 307 308 308 308 308 308 308 308 308 309 312 312 314 314 313 313 311 312 313 314 313 312 311 311 310 311 312 312 312 312 312 310 312 311 313 313 314 315 315 318
313 315 309 307 307 307 307 308 308 307 307 307 307 308 312 311 313 312 314 312 311 311 312 313 314 313 312 310 311 310 310 310 311 311 311 312 309 309 311 311 312 313 314 315 317
313 314 309 307 307 307 307 307 307 307 307 307 307 308 310 311 313 311 313 312 311 310 312 312 312 313 312 311 309 307 306 309 307 310 311 308 308 306 311 311 311 312 313 314 314
314 313 307 307 307 307 307 307 307 307 307 307 307 309 309 311 313 310 311 311 311 311 311 312 313 311 310 307 307 305 307 307 307 309 310 308 307 308 311 312 312 313 313 313 313
313 312 307 307 307 307 307 307 307 307 307 307 308 309 308 311 312 310 310 311 311 311 312 313 312 307 305 305 308 307 306 307 307 309 310 310 309 307 311 311 312 313 313 313 313
313 311 307 307 306 306 307 309 308 309 307 308 308 308 308 311 312 310 310 312 312 311 309 309 308 309 308 305 304 305 305 307 308 309 310 310 308 308 310 310 310 311 311 312 311
312 309 307 307 307 307 308 308 308 309 308 311 310 308 310 312 312 311 311 311 311 308 307 307 307 306 306 305 306 307 308 310 308 308 310 308 309 307 306 307 307 307 308 309 310
312 310 307 307 307 308 308 308 308 308 308 309 309 310 311 311 311 311 311 310 307 308 307 307 308 306 307 307 308 308 308 308 309 307 305 304 305 304 305 306 308 307 308 309 310
312 311 309 309 311 308 308 308 308 311 308 310 313 310 311 310 310 311 311 311 308 307 305 307 306 306 305 307 307 310 307 307 307 307 308 305 306 305 304 306 305 308 310 311 311
311 313 313 312 313 309 308 308 310 313 309 309 313 311 311 310 310 311 311 311 307 308 307 308 307 307 308 308 306 308 306 307 306 307 307 308 306 305 302 307 306 307 309 310 311
313 312 314 313 315 309 309 308 315 308 306 313 311 311 310 310 310 310 312 310 309 308 306 308 308 308 308 306 307 305 305 304 304 304 306 306 304 304 304 307 308 307 309 310 311
312 314 313 316 315 314 312 314 310 306 308 312 312 310 310 310 310 309 309 308 308 308 309 309 309 308 308 308 307 305 305 306 308 306 306 303 304 304 305 305 307 307 309 310 311
310 314 314 315 315 317 315 313 306 306 308 310 311 309 311 310 310 309 308 309 308 306 307 309 310 309 308 308 308 305 306 307 306 306 306 305 307 305 304 305 308 309 310 310 311
307 310 312 315 316 317 316 315 310 307 310 312 312 312 312 311 310 309 308 309 308 305 308 307 307 308 307 307 308 307 307 304 305 293 304 305 305 305 306 306 307 308 310 310 311
305 307 307 313 315 317 315 312 310 310 310 312 314 313 313 311 311 309 309 307 308 306 308 307 309 308 308 308 307 306 304 308 304 303 305 303 305 306 308 307 306 306 308 309 310
302 305 306 309 313 314 315 310 310 311 312 313 313 313 312 312 310 310 309 309 308 306 309 307 310 309 308 308 308 307 307 306 306 306 305 304 306 301 308 306 305 306 308 309 310
299 304 305 308 307 301 309 311 311 311 312 313 313 311 312 310 310 311 310 309 309 307 309 308 309 311 310 307 306 307 307 306 307 306 303 305 307 306 305 306 307 308 308 310 310
297 298 303 306 307 306 305 310 310 312 312 312 313 313 311 311 313 311 310 310 310 308 309 308 309 307 310 309 306 307 305 305 304 305 304 307 306 304 305 306 308 308 309 309 309
297 299 299 304 301 306 308 310 312 311 312 312 311 312 313 313 312 312 312 311 310 310 311 309 307 309 310 310 307 309 307 305 307 309 307 308 306 304 305 305 306 308 309 308 308
298 297 297 302 303 303 307 308 310 312 311 312 312 312 313 313 313 314 312 311 309 310 310 309 309 310 309 310 308 308 308 305 308 308 309 308 307 309 306 305 307 308 307 306 305
298 297 297 296 297 303 305 306 310 309 311 312 310 312 311 312 311 313 312 310 311 309 310 308 311 309 310 309 309 311 309 307 308 306 310 304 307 306 307 306 306 306 305 304 303
297 297 297 296 297 302 305 306 307 308 308 309 310 311 311 310 309 309 310 310 309 309 310 310 310 309 307 308 309 313 309 308 308 307 308 310 308 305 304 305 306 305 304 303 301

GFSSW_850_thetae_084.txt.gz
Theta_e
314 315 315 317 317 317 318 317 315 312 312 315 317 315 316 316 311 315 310 310 310 312 311 314 314 313 314 316 317 318 322 322 320 319 319 316 319 314 315 317 320 322 320 326 327
314 315 315 316 317 314 316 313 311 311 310 314 312 313 313 312 312 311 314 310 310 311 311 315 313 314 316 315 316 319 321 322 319 318 319 317 318 317 317 317 317 319 318 324 329
314 315 316 316 316 310 310 310 309 309 309 310 313 311 311 310 311 316 310 310 310 310 313 315 313 315 316 316 315 316 320 317 315 315 316 317 316 315 317 318 318 318 317 320 329
314 314 315 316 316 309 309 308 308 308 309 310 311 311 310 310 311 312 311 311 311 311 314 313 313 314 316 317 314 317 313 314 314 314 314 317 315 316 316 317 315 316 316 317 325
314 314 315 316 315 308 308 308 308 309 309 310 310 310 309 309 310 314 312 311 312 313 314 312 314 313 316 316 314 316 314 313 312 313 313 314 314 316 315 314 314 315 315 317 325
314 314 315 315 312 308 308 309 309 309 309 309 309 309 308 312 310 312 312 312 314 313 312 312 314 313 313 314 316 312 314 313 312 312 312 314 313 312 312 313 313 314 315 316 321
314 314 315 314 310 307 308 309 309 309 308 308 308 308 310 311 311 312 314 313 313 312 312 312 314 313 312 313 310 311 315 314 312 312 313 312 313 314 310 311 311 312 314 315 316
314 313 314 310 308 307 308 308 308 308 307 307 307 307 311 310 311 312 314 312 311 311 312 312 313 312 313 311 311 312 314 316 311 312 312 311 316 309 310 310 311 312 312 313 314
314 313 314 311 307 307 308 307 307 307 307 307 307 309 310 310 312 311 312 311 310 311 312 312 312 311 311 314 314 312 314 313 309 311 312 312 314 311 310 311 313 313 312 312 312
314 313 314 308 307 307 307 307 307 307 307 307 308 310 308 311 312 310 311 311 311 311 312 312 312 314 311 314 313 314 312 310 311 312 312 313 314 313 312 311 314 313 313 312 312
313 313 313 307 307 307 307 307 308 309 308 309 309 309 307 311 312 310 311 311 311 312 314 310 314 314 314 313 309 313 311 312 310 311 313 313 314 314 313 311 313 312 311 310 311
313 312 311 307 307 307 307 310 308 308 309 310 309 308 310 311 311 310 311 312 312 312 310 312 313 313 310 308 310 311 311 312 312 310 312 312 314 314 309 309 308 308 308 308 309
313 312 309 308 307 308 308 308 308 308 308 309 309 309 311 311 311 311 311 310 311 311 311 312 310 309 310 309 311 311 312 312 313 309 309 309 313 310 308 309 309 309 308 309 309
312 311 309 308 310 308 308 308 308 309 310 310 312 310 311 310 311 311 310 310 309 312 310 311 307 309 310 311 312 312 310 311 311 313 313 309 312 311 309 311 311 311 311 310 310
312 311 310 309 311 310 308 309 309 310 313 311 312 310 311 310 310 311 310 311 310 309 310 311 308 309 311 311 310 311 310 311 311 313 313 312 312 312 309 313 312 311 310 310 310
312 311 310 311 311 307 307 309 312 312 315 312 311 311 311 310 310 310 311 310 309 310 310 310 307 309 310 307 309 308 310 310 311 312 312 312 312 311 310 313 312 310 309 309 309
311 312 311 311 313 308 308 310 318 316 310 313 312 311 312 311 311 311 311 311 312 311 311 311 310 309 309 310 309 309 313 312 313 313 312 306 309 311 308 311 312 311 310 309 309
311 311 312 311 314 311 311 316 316 312 310 312 312 311 311 311 311 310 311 312 310 310 311 312 312 311 310 312 312 311 312 314 315 312 311 306 311 311 307 307 310 310 309 309 309
309 312 313 312 314 316 313 315 312 310 312 313 311 311 312 311 311 312 312 312 312 309 311 311 310 309 308 308 311 310 310 309 309 302 313 311 310 308 307 309 309 309 309 309 309
306 310 311 312 314 316 315 314 311 308 313 313 313 312 312 312 312 312 312 311 311 309 308 310 311 309 308 308 308 309 309 311 310 316 315 309 310 313 310 311 311 309 310 309 309
303 306 308 311 313 314 315 313 312 311 312 314 314 314 312 312 311 311 312 309 310 309 309 309 313 310 309 310 311 308 309 308 310 311 318 313 311 310 311 312 311 310 309 309 308
301 303 303 307 310 313 314 312 311 312 312 314 313 313 312 312 311 312 311 310 308 308 311 310 312 313 311 308 307 308 310 310 312 311 308 311 314 308 312 312 311 309 308 308 308
298 299 302 304 307 309 309 312 312 312 313 314 314 313 311 312 312 312 311 310 309 309 310 310 313 315 313 310 307 309 308 309 308 311 314 317 313 307 310 309 309 308 308 308 308
298 301 300 300 300 304 310 311 312 312 313 312 313 313 313 313 313 312 312 311 309 308 310 310 310 313 312 311 312 311 309 308 310 313 312 311 311 310 309 310 308 308 308 307 307
298 298 298 305 303 302 306 309 312 313 312 312 313 314 314 315 315 314 313 311 310 310 310 310 314 311 311 311 310 311 311 309 310 311 312 312 310 312 311 310 309 309 307 306 306
297 298 297 297 298 305 304 306 310 312 313 313 313 313 313 314 315 314 313 313 313 310 311 310 313 311 311 310 311 312 311 310 311 311 311 310 310 311 310 309 308 307 306 305 304
297 297 297 297 299 304 306 305 306 308 308 310 312 313 313 312 311 311 310 311 311 312 312 312 311 312 315 310 311 314 313 311 311 311 311 311 311 308 310 308 308 308 306 305 304

GFSSW_850_thetae_087.txt.gz
Theta_e
314 315 315 316 318 319 321 323 322 315 314 315 322 324 325 325 325 325 325 312 310 311 311 311 315 315 313 317 316 318 322 323 322 320 321 320 320 319 318 320 322 323 323 328 335
315 314 315 316 317 318 319 321 320 314 315 318 319 320 319 320 319 321 325 314 310 310 312 311 315 315 316 317 318 320 324 323 322 320 321 320 320 319 318 319 319 321 325 333 334
315 314 315 316 317 317 318 318 318 315 312 315 314 314 317 314 312 314 325 323 313 310 312 313 314 315 317 317 318 320 323 321 319 318 320 320 319 319 319 319 319 319 322 332 334
316 314 315 315 316 317 317 317 317 315 313 313 313 312 313 311 315 317 317 322 314 310 312 313 313 315 317 318 318 319 317 318 317 316 318 319 318 318 319 318 317 318 320 329 332
315 314 315 315 315 316 316 317 314 310 310 310 313 312 311 313 313 314 322 315 311 310 312 313 314 315 316 318 317 319 317 316 315 315 318 317 318 318 318 317 315 315 319 325 330
315 314 315 315 315 316 316 316 309 309 309 310 311 312 312 312 311 315 313 311 310 311 312 313 314 315 315 317 317 317 317 316 315 315 314 317 316 315 316 314 314 315 318 322 327
315 314 314 314 316 316 315 311 309 309 310 310 310 309 313 311 310 310 311 312 311 313 313 313 313 314 315 316 313 316 316 316 315 315 315 314 316 316 313 312 314 314 317 320 324
315 315 313 314 315 315 315 310 309 310 309 309 308 310 311 310 310 312 313 313 313 311 312 312 313 313 315 313 314 316 317 317 315 315 314 314 318 316 312 312 314 314 315 317 320
315 314 313 314 315 315 310 309 309 308 308 307 307 311 310 309 310 311 313 313 312 310 311 312 312 314 313 316 316 315 317 316 313 314 315 314 317 313 313 313 314 314 314 314 315
315 314 313 314 314 313 309 309 308 307 307 307 309 311 309 311 311 312 311 311 311 310 312 312 313 315 315 316 317 316 316 315 316 314 314 315 315 314 313 314 315 315 315 314 314
314 314 313 313 313 309 309 309 311 312 311 309 309 309 309 311 312 310 311 311 312 312 313 313 315 315 314 315 316 316 315 314 314 313 315 315 315 315 314 314 315 315 315 314 313
314 313 312 313 312 309 310 310 309 309 311 310 309 309 309 311 311 310 311 312 312 313 314 313 314 315 315 313 313 315 314 314 313 313 314 315 315 315 314 314 313 313 313 312 312
314 313 313 312 310 309 313 311 309 308 309 310 308 309 311 311 312 311 311 312 312 313 313 313 313 313 312 312 313 313 314 314 314 312 312 313 314 315 311 312 312 312 311 311 312
313 313 313 311 310 311 313 310 308 308 309 310 311 309 311 311 312 311 311 312 312 313 313 313 309 312 313 313 313 313 313 314 314 314 313 312 313 315 313 313 314 314 313 313 312
314 312 312 309 311 312 311 309 308 309 312 311 312 310 311 311 311 311 310 310 312 312 312 311 310 311 313 313 313 313 313 314 315 315 314 314 313 315 312 314 314 314 313 312 312
313 312 310 310 312 310 310 309 311 312 314 313 311 311 311 310 311 310 311 310 310 311 312 311 308 311 312 310 312 311 313 313 314 315 313 314 313 314 312 314 314 313 312 312 311
312 311 309 310 313 310 309 312 316 319 311 314 312 311 311 311 312 312 311 311 311 311 311 311 310 310 310 311 311 313 313 313 313 314 313 310 312 313 311 314 314 313 312 311 312
312 311 310 311 312 308 310 315 317 312 311 313 312 311 311 311 312 312 312 312 312 312 312 312 312 311 311 312 312 313 313 315 315 315 313 308 312 313 312 313 314 312 312 312 311
312 312 311 311 312 311 312 315 315 312 312 314 312 312 311 311 312 312 312 313 312 312 312 312 313 310 310 311 313 313 312 312 311 308 315 312 312 311 309 312 312 312 311 312 312
307 311 312 311 314 314 315 314 312 311 313 312 312 312 313 312 312 312 312 312 313 311 310 312 313 310 309 310 310 311 311 311 313 319 319 312 313 313 310 312 312 311 312 312 311
304 309 308 312 313 314 315 313 311 311 313 312 313 311 312 312 311 312 312 312 313 311 310 311 314 311 310 311 312 310 311 311 312 314 319 315 313 312 312 313 313 312 313 312 311
301 304 305 311 312 312 313 312 312 313 313 314 314 313 312 312 311 312 313 312 312 310 310 312 313 313 311 309 309 311 312 311 313 313 311 314 315 311 313 312 313 313 312 311 310
300 300 303 307 311 311 312 312 312 314 313 314 315 314 312 312 312 311 312 310 308 310 311 312 315 316 312 311 309 310 310 312 312 316 318 318 313 309 311 312 313 312 312 311 309
300 303 300 302 300 310 312 313 313 313 314 314 315 313 313 312 313 312 313 312 310 309 310 311 314 314 313 312 313 312 312 311 312 313 313 313 312 311 313 313 313 311 311 310 309
298 300 300 305 303 303 307 311 313 313 314 314 314 315 315 314 314 313 314 312 311 310 310 312 315 312 312 312 312 313 312 311 311 311 312 312 311 313 312 313 312 311 311 310 308
298 298 298 299 300 304 304 306 313 313 314 315 315 315 315 315 315 315 313 313 313 311 311 311 316 313 314 312 312 312 312 311 310 311 311 311 312 312 312 312 312 311 310 309 308
297 297 299 299 302 303 306 306 306 309 313 312 314 315 315 314 314 314 313 313 313 313 313 313 312 315 316 312 314 315 313 312 311 311 312 312 312 311 312 312 311 310 310 309 307

GFSSW_850_thetae_093.txt.gz
Theta_e
316 315 314 314 316 318 321 323 323 324 324 324 322 319 323 322 318 315 318 318 319 324 320 325 316 314 315 317 317 318 316 318 319 317 318 320 318 318 320 322 321 326 325 330 334
316 315 314 314 316 319 321 322 324 325 324 323 320 320 322 322 319 317 319 319 314 313 312 315 313 314 315 317 316 316 315 318 317 316 316 318 319 318 320 321 330 330 330 334 333
316 315 313 315 316 318 320 321 323 323 317 316 317 320 321 321 321 321 320 321 319 313 314 322 318 313 315 316 316 316 316 318 317 318 320 318 318 318 319 317 328 334 335 334 332
317 315 314 315 316 316 319 320 322 320 315 318 319 320 320 320 324 323 322 322 323 318 316 323 324 313 315 315 316 317 317 317 317 317 319 318 318 317 318 317 319 324 332 333 332
317 315 314 314 315 316 318 321 322 317 316 317 317 319 318 319 321 314 322 324 324 324 312 311 313 314 314 315 316 315 316 317 317 317 319 318 317 316 316 318 320 323 328 330 332
317 316 315 314 315 316 317 319 321 317 316 315 315 317 317 315 321 313 317 323 325 323 314 314 313 314 315 315 314 316 316 315 315 315 316 315 315 317 315 316 323 324 325 327 331
317 316 314 314 315 316 317 319 320 319 314 314 314 313 312 318 317 312 315 322 325 322 321 313 313 313 314 314 315 315 313 313 314 315 315 315 314 313 315 315 317 325 325 328 331
317 316 314 315 315 316 317 318 318 319 317 314 314 313 312 311 313 312 317 317 326 319 320 313 311 313 313 314 314 314 312 313 313 314 314 313 314 313 314 315 314 316 321 327 329
318 316 314 314 315 315 316 317 317 316 316 315 313 313 311 311 312 312 315 318 320 318 312 312 312 312 313 310 311 313 312 314 313 313 312 312 313 311 312 312 313 313 316 319 322
318 315 314 314 314 315 316 316 316 313 312 312 312 312 311 310 312 311 313 314 313 314 312 311 312 310 309 308 312 311 313 313 312 312 312 310 313 310 312 311 312 313 315 318 320
318 315 314 314 314 315 316 314 313 313 312 311 312 308 309 310 310 310 311 312 311 312 311 311 310 312 310 309 311 311 312 312 311 311 312 310 310 309 312 313 311 312 314 315 314
317 315 314 313 314 315 314 312 311 311 312 311 310 310 311 311 310 310 312 312 312 312 311 311 311 310 311 310 311 311 311 311 311 311 312 311 312 310 310 311 313 313 313 313 313
317 315 314 313 314 315 313 310 310 309 309 310 310 309 310 311 311 310 312 311 311 311 311 312 312 311 312 311 311 309 310 310 310 311 311 310 309 312 310 311 312 312 312 312 312
316 315 314 314 315 315 311 310 310 309 306 310 309 309 309 311 311 310 311 312 310 311 311 310 311 311 311 311 310 310 311 311 310 309 308 307 306 307 307 308 310 311 311 312 312
316 315 314 313 314 314 310 312 310 310 307 309 309 310 309 311 311 310 311 311 311 310 309 310 310 310 310 311 309 311 311 310 310 310 308 310 305 304 306 309 308 310 312 311 312
315 314 314 313 313 312 310 313 310 311 309 310 308 310 309 310 310 310 310 310 311 310 310 309 309 310 311 310 310 310 311 310 310 309 309 308 305 305 307 309 308 311 312 312 312
315 314 313 313 312 311 312 312 309 307 308 310 308 309 309 310 310 309 309 309 309 310 311 309 310 309 310 310 310 310 308 309 310 309 308 306 305 306 306 307 309 310 311 311 312
314 314 314 312 311 311 313 311 304 306 309 309 309 309 308 310 310 309 308 310 308 309 309 310 310 308 309 310 310 309 308 308 310 311 309 305 309 309 308 311 312 312 312 311 311
313 314 313 311 310 309 311 310 308 308 310 310 309 309 309 310 310 309 309 310 308 307 309 310 310 309 308 310 310 309 310 309 307 298 307 305 306 308 309 309 310 310 311 311 311
313 312 311 310 309 310 309 309 309 308 310 308 309 308 309 309 309 308 309 309 310 308 309 308 310 309 309 309 309 309 308 309 306 306 308 307 307 306 308 310 308 308 310 311 311
309 310 311 310 308 310 309 308 309 311 310 310 310 309 308 309 308 309 309 309 309 309 308 310 311 310 308 309 310 308 307 308 309 307 308 306 306 304 307 310 309 309 311 311 310
301 304 310 310 310 310 310 308 310 311 312 311 310 309 308 309 310 310 310 310 310 309 309 310 309 310 309 309 308 308 308 308 308 308 308 309 308 309 306 309 310 310 310 311 311
300 300 308 310 309 310 309 309 309 312 312 313 312 311 308 309 310 310 310 309 309 308 309 310 310 310 310 309 309 309 308 308 308 305 306 307 307 307 306 308 310 309 311 311 310
300 303 304 307 306 308 309 309 310 312 311 313 312 311 310 309 310 311 312 311 309 309 310 310 311 310 311 309 309 309 308 307 308 308 307 306 307 308 306 307 308 309 311 311 310
299 299 299 306 305 307 308 309 310 312 312 313 313 312 311 310 311 310 312 311 310 309 309 309 309 309 310 310 309 309 309 307 308 310 309 309 306 307 305 307 309 310 310 311 310
299 299 299 300 302 307 308 307 310 311 313 314 314 313 312 311 310 311 311 310 310 310 309 309 307 309 309 311 310 310 308 308 309 308 307 306 306 305 309 308 310 310 310 309 310
297 299 299 300 302 308 307 308 308 310 312 312 313 313 313 313 312 311 311 310 310 309 310 310 310 309 308 307 308 309 309 308 308 308 309 308 309 304 307 308 309 310 310 311 311

GFSSW_850_thetae_096.txt.gz
Theta_e
318 317 317 315 315 315 317 320 322 324 323 322 322 324 324 320 314 315 317 319 320 323 324 323 323 318 314 315 317 318 315 317 318 315 317 319 316 318 320 321 322 326 328 330 334
318 317 316 315 315 315 317 319 322 323 323 324 321 321 324 324 315 315 317 319 320 323 324 326 326 325 315 315 316 315 315 317 317 315 316 318 318 319 321 324 330 328 325 332 333
318 317 315 315 315 315 319 320 322 323 322 324 324 321 319 322 317 317 318 315 321 324 324 326 324 318 314 315 316 315 316 315 316 317 318 317 316 317 320 318 328 328 332 333 333
318 317 315 315 314 316 319 322 322 322 324 323 322 317 319 321 323 323 319 313 312 314 319 318 316 315 314 314 316 315 316 316 316 318 317 316 317 316 317 317 319 322 327 332 333
318 316 315 313 315 317 319 321 323 322 322 318 318 319 320 320 321 315 323 318 316 315 314 319 318 315 313 314 315 315 315 316 316 318 318 317 316 315 317 317 321 328 331 332 332
317 316 314 314 315 316 319 320 321 317 317 318 319 319 320 318 320 312 320 321 321 315 318 321 323 321 315 315 314 315 315 315 315 316 316 315 314 316 316 318 327 331 332 331 330
317 316 314 314 315 316 318 320 322 317 316 316 318 319 318 319 320 312 316 322 321 320 318 316 315 320 317 315 321 314 314 313 313 314 314 315 314 313 316 320 328 331 329 330 330
318 317 314 313 314 315 317 321 321 317 314 315 316 315 314 316 318 312 315 322 323 323 323 313 312 318 313 316 313 313 311 312 312 313 313 313 314 312 314 322 329 329 327 328 330
318 317 314 314 314 315 317 318 319 317 314 314 312 312 311 312 312 313 315 320 323 323 320 313 313 312 312 311 312 311 311 312 313 312 311 312 313 312 313 316 325 328 327 328 329
318 316 314 314 315 316 317 319 320 318 317 316 314 313 311 311 312 314 317 317 323 320 318 317 312 310 309 309 314 310 311 311 312 311 310 310 311 309 311 312 313 315 319 325 329
318 316 314 315 316 317 317 318 317 316 316 313 312 310 310 310 312 312 315 317 318 314 311 311 310 312 312 309 309 310 311 312 311 310 311 309 311 309 311 310 310 311 312 317 321
318 315 314 315 316 316 317 316 315 314 311 310 311 310 309 311 311 312 312 313 313 317 311 309 311 310 310 310 311 310 311 310 311 310 311 309 310 310 309 310 311 311 312 315 319
317 314 314 313 315 316 317 314 312 312 309 310 311 310 310 310 310 311 312 312 312 316 313 311 311 310 311 310 311 309 309 308 311 310 309 309 309 311 310 310 311 311 312 314 315
315 314 314 314 315 315 315 312 310 310 306 309 309 309 310 311 310 311 312 312 311 312 315 312 311 310 311 311 310 309 308 309 309 308 309 307 309 305 307 308 309 311 311 312 312
316 314 313 313 315 315 313 310 309 309 309 307 308 309 309 310 310 310 311 311 312 311 312 313 311 310 311 311 309 310 309 309 308 307 308 308 306 304 306 307 308 309 310 311 311
312 315 313 314 315 314 310 310 310 309 307 309 308 309 309 309 310 310 310 310 311 311 311 313 309 310 311 310 309 309 310 308 309 308 308 307 306 305 306 308 309 308 310 311 311
313 313 314 314 314 313 311 311 308 309 307 308 308 309 308 308 309 308 309 308 308 310 311 309 309 308 311 311 310 310 310 310 311 311 309 305 304 307 305 305 306 308 310 310 311
313 312 314 314 314 311 312 307 304 305 308 307 308 309 309 309 309 308 309 310 307 308 309 310 311 308 308 310 310 308 310 309 309 309 307 305 308 308 306 307 308 310 311 311 311
312 315 314 314 313 311 311 310 307 307 308 308 308 309 308 309 308 307 308 310 309 306 310 310 310 308 308 309 309 310 308 306 307 297 307 304 304 305 309 309 308 309 310 311 311
312 312 312 313 313 312 311 308 307 307 307 308 308 307 308 309 308 306 308 309 309 306 308 308 310 309 308 309 309 309 307 310 306 309 308 306 306 306 308 310 307 307 308 310 310
310 312 311 311 312 312 311 308 308 308 308 307 307 307 307 308 307 307 307 307 309 306 307 309 310 309 309 309 309 308 308 306 307 307 309 305 306 302 306 309 308 308 308 310 310
302 304 310 308 311 311 310 307 309 310 309 309 307 307 307 308 308 308 307 308 310 307 308 309 309 309 309 308 307 307 307 307 309 307 305 306 306 306 304 305 309 308 309 310 310
300 300 309 309 310 311 310 308 309 311 310 310 309 308 307 308 309 308 308 308 308 308 309 309 309 310 310 309 308 308 307 307 306 306 308 310 307 305 306 305 309 308 310 310 310
300 304 304 309 306 310 310 309 309 311 311 312 311 309 307 308 309 308 310 310 308 309 309 310 309 310 310 309 308 309 308 307 308 308 306 305 307 307 306 306 307 309 310 310 310
299 299 299 306 306 309 309 308 308 311 311 312 312 309 309 309 310 310 310 309 309 309 308 309 309 308 309 308 308 308 309 308 308 309 308 309 304 305 305 306 308 309 309 309 310
299 299 300 300 305 308 309 308 308 311 311 313 312 311 310 309 309 310 310 308 309 309 308 307 305 308 309 310 309 309 307 307 308 308 305 306 305 304 307 307 308 308 309 308 310
299 299 299 300 305 308 308 307 308 310 309 311 311 312 312 312 310 310 310 309 309 310 310 309 307 305 304 306 308 310 309 307 308 308 308 308 309 303 305 306 308 308 309 310 311

GFSSW_850_thetae_102.txt.gz
Theta_e
310 311 317 319 321 320 318 318 317 318 319 323 324 322 321 323 323 323 322 324 322 323 325 322 321 318 318 318 321 316 313 314 316 314 315 316 315 316 319 325 325 326 327 328 335
310 312 314 320 320 320 318 318 317 317 320 325 324 322 321 322 321 320 323 323 325 321 320 320 318 317 319 317 316 314 314 316 315 314 314 315 316 316 321 325 326 327 328 331 334
312 314 314 319 319 320 319 318 316 316 321 323 324 322 323 320 316 320 322 321 323 322 321 316 319 320 321 317 315 314 315 314 316 316 316 315 314 318 320 322 324 325 326 333 334
313 314 314 314 319 319 318 318 316 316 321 324 324 321 322 319 318 319 322 321 321 322 321 320 322 322 321 323 319 316 314 314 314 314 315 314 316 316 320 319 321 322 321 331 333
314 316 316 315 320 319 318 317 316 315 319 323 324 320 322 316 318 320 319 320 320 319 322 323 323 320 318 317 320 315 314 314 314 314 315 315 314 315 318 316 317 323 326 329 332
311 312 314 316 319 318 318 316 315 315 319 323 323 321 321 319 319 318 316 317 319 320 323 324 323 321 315 313 320 315 314 315 314 313 315 314 313 315 316 316 320 323 326 329 331
310 313 314 313 319 318 318 315 315 315 318 323 322 322 320 320 320 315 316 317 319 319 321 323 322 322 316 317 317 314 314 311 312 314 313 313 313 312 314 317 324 326 326 328 330
311 312 315 314 319 319 317 315 315 314 319 323 322 320 319 320 317 317 316 315 315 315 319 322 325 324 320 320 321 313 311 312 311 312 312 313 314 312 314 318 326 328 328 329 330
313 313 316 318 319 318 316 315 315 316 320 323 320 319 316 317 318 316 319 315 317 317 317 318 321 319 316 322 324 322 318 310 311 310 310 311 313 311 313 320 326 328 328 329 330
312 314 316 314 318 316 315 315 318 320 321 319 317 317 312 314 317 317 314 316 318 316 315 315 314 315 316 323 328 325 319 311 311 311 310 310 310 309 310 322 325 327 328 329 329
311 314 314 318 317 316 315 319 321 320 316 316 314 312 312 314 315 315 315 320 319 319 320 314 315 318 318 322 317 323 317 313 310 310 311 310 310 310 309 311 322 326 328 329 329
310 314 317 317 316 315 318 320 318 318 312 314 314 310 311 314 316 320 320 320 319 321 316 314 316 315 316 316 320 313 322 318 310 309 310 310 311 308 306 308 313 320 325 327 327
306 313 314 315 315 317 319 318 316 316 311 311 312 310 312 313 316 319 320 318 320 318 318 320 317 314 313 315 312 316 314 312 312 309 308 309 310 309 307 308 310 311 316 321 323
306 310 315 314 317 319 317 316 315 315 312 311 312 310 310 313 313 318 318 316 314 320 315 314 315 316 314 314 313 314 309 310 309 311 313 307 312 308 306 306 306 310 311 312 313
306 308 315 314 317 318 318 316 314 315 318 310 311 310 310 312 312 315 315 314 315 317 314 315 311 313 312 313 314 316 308 309 310 309 309 308 308 310 305 306 305 307 311 312 312
305 307 312 314 316 317 317 316 313 314 316 311 308 308 309 308 309 312 311 312 313 315 314 312 310 309 310 309 313 308 310 309 308 307 310 310 307 308 306 305 306 308 311 313 313
306 308 310 315 316 317 317 311 312 317 307 308 308 308 309 307 307 311 309 310 312 318 316 313 313 309 308 310 308 311 310 313 313 309 312 304 305 311 307 303 306 309 313 313 312
307 307 311 315 316 316 314 312 315 308 309 305 307 309 308 307 306 309 308 310 307 309 313 316 317 312 310 311 309 310 312 311 313 311 311 303 307 309 305 307 308 308 310 311 312
307 308 312 315 316 315 311 315 314 308 305 307 307 309 307 308 307 308 309 310 308 307 312 314 316 309 307 310 311 310 315 309 307 299 306 305 304 304 304 303 306 307 307 310 311
305 307 314 315 314 311 313 315 304 305 306 308 308 306 307 309 307 307 310 308 307 306 306 307 310 307 309 310 309 310 310 312 310 308 308 305 304 308 306 307 306 306 308 310 310
305 303 313 314 313 311 314 313 305 306 307 306 305 305 306 308 306 309 309 307 307 306 304 305 308 308 307 309 311 311 312 310 310 308 310 309 308 301 306 306 307 307 310 310 310
301 303 309 313 312 309 313 307 307 305 306 305 305 304 307 307 306 309 308 309 309 307 308 305 306 307 308 307 309 311 312 313 314 312 304 307 309 304 302 302 305 305 308 309 310
300 301 307 312 312 309 310 307 308 305 306 305 305 306 305 307 307 307 306 308 309 307 308 306 307 306 309 308 306 310 308 309 312 307 311 311 311 303 303 305 307 307 307 308 309
300 304 302 311 310 310 310 308 307 307 307 306 305 305 306 307 306 306 306 306 308 309 308 309 308 308 310 309 307 307 310 308 309 312 313 312 310 306 306 306 305 307 307 308 308
300 299 299 308 309 310 309 307 308 309 308 308 307 306 306 306 306 306 306 308 306 308 308 308 309 306 307 307 308 308 309 310 310 310 311 311 307 305 305 305 306 308 308 308 309
299 299 300 301 307 311 310 308 308 309 309 309 306 304 305 305 306 306 307 307 307 306 306 304 303 306 304 307 307 307 307 308 310 311 310 310 311 309 308 307 307 309 308 309 310
299 300 299 301 308 310 309 308 307 308 308 308 306 306 306 306 307 308 308 308 307 307 308 306 303 302 304 303 306 305 307 306 307 307 309 309 310 304 304 303 305 307 308 309 310

GFSSW_850_thetae_105.txt.gz
Theta_e
310 310 307 314 317 321 322 323 322 321 321 320 321 321 323 322 321 324 323 325 322 322 327 327 318 317 316 318 318 317 315 316 317 314 315 315 315 316 319 325 327 327 325 328 334
309 310 308 310 312 321 321 322 321 320 318 318 320 322 323 321 321 322 322 324 324 321 325 328 321 318 317 316 316 315 316 317 315 314 314 314 316 317 321 325 325 326 326 329 334
312 313 310 309 310 311 322 322 320 318 317 318 320 323 323 321 320 321 320 323 324 322 322 323 322 318 319 317 315 313 317 313 315 315 315 314 314 318 320 323 323 323 325 332 334
313 313 311 310 312 311 316 321 319 318 317 317 320 324 323 322 318 319 319 322 323 323 321 316 319 320 321 320 316 316 314 314 314 314 314 314 315 316 320 319 320 322 323 331 333
311 313 313 311 313 313 314 321 319 318 317 318 320 324 323 315 319 320 319 320 321 322 322 319 320 320 322 320 318 317 315 315 314 315 314 314 314 315 317 318 318 321 323 328 333
308 311 313 313 314 313 313 321 319 318 317 318 321 321 322 316 319 319 319 318 320 320 321 322 321 321 319 317 321 318 316 316 317 315 313 313 312 314 316 318 317 320 323 326 331
307 309 311 314 314 314 314 320 320 318 317 318 320 322 320 320 319 319 318 318 318 319 320 322 322 322 316 316 317 312 315 314 313 314 313 312 313 312 315 317 319 322 325 327 330
307 309 310 312 312 314 314 320 319 318 316 318 320 322 320 320 319 319 318 316 317 318 321 322 323 322 319 320 319 316 312 314 314 311 313 311 316 313 314 318 321 322 325 327 327
308 309 309 311 313 314 314 319 318 317 315 317 320 321 318 320 319 319 318 316 316 317 319 321 322 320 319 321 323 319 319 313 313 310 310 310 314 312 313 317 322 325 326 326 326
307 308 311 311 312 314 317 319 318 316 317 319 320 318 314 318 319 318 316 316 316 317 318 320 319 317 319 324 328 323 322 313 311 311 309 310 310 310 311 319 320 324 326 325 326
306 307 309 313 313 313 319 319 318 318 319 318 316 316 316 317 319 316 316 317 315 316 317 314 319 325 322 323 322 322 321 322 311 310 310 310 310 313 310 313 321 323 325 326 326
305 306 310 314 314 314 319 318 316 316 318 317 317 315 315 317 318 317 318 317 318 318 313 314 319 318 319 321 317 322 323 320 314 309 310 310 310 311 307 308 312 319 323 325 325
302 306 310 313 315 319 318 317 316 316 314 313 311 312 315 317 318 318 319 318 317 318 317 317 317 315 319 320 323 317 324 322 321 309 308 308 312 310 307 308 310 311 315 321 323
302 304 308 313 314 317 317 314 318 317 314 312 311 311 314 317 316 318 319 318 317 319 318 319 316 314 316 318 320 321 315 311 310 311 321 308 314 311 308 307 305 310 311 314 319
304 304 309 310 317 317 316 317 316 315 320 310 310 310 313 315 314 317 315 316 318 315 315 317 314 315 315 316 314 318 314 313 310 310 307 306 310 312 305 307 307 307 311 314 314
306 303 306 309 316 314 315 317 315 317 317 310 309 309 311 311 311 312 313 314 315 314 313 312 310 313 313 311 315 310 313 313 312 310 316 310 312 310 314 309 308 307 311 315 315
305 304 303 306 313 315 315 315 316 320 307 308 309 310 310 310 312 314 311 313 317 319 317 313 312 310 308 309 311 313 315 317 318 315 315 303 308 314 308 305 308 310 313 315 316
304 304 304 305 310 316 313 315 319 310 310 307 309 310 311 310 311 312 312 314 308 311 317 318 318 312 309 308 311 314 315 316 318 315 311 302 309 310 306 310 308 308 310 312 314
304 306 305 306 310 315 313 315 313 311 306 309 309 311 309 307 311 312 311 314 310 308 315 318 318 310 309 310 309 310 314 308 309 296 305 306 305 306 304 304 305 308 308 310 312
304 306 305 308 314 313 312 312 305 305 306 309 312 309 311 307 309 311 311 308 309 307 308 310 311 309 310 310 310 309 311 314 313 312 307 306 304 309 307 307 306 305 308 312 312
305 303 306 308 314 313 312 310 305 306 309 308 306 305 308 307 307 309 310 307 306 307 304 306 307 306 306 310 312 312 312 313 312 308 310 307 308 301 306 306 306 306 308 310 311
303 303 307 308 315 313 314 306 307 307 305 304 304 304 309 308 307 308 309 307 307 308 306 305 305 307 310 306 308 310 311 312 316 313 306 307 308 303 302 302 304 306 307 308 309
302 301 305 303 309 313 311 308 307 306 304 305 304 305 307 308 308 307 306 307 308 308 309 305 306 305 310 308 306 310 309 311 310 310 313 315 317 303 303 304 306 307 309 310 310
302 303 300 301 308 313 311 308 307 306 305 303 303 305 306 307 304 306 306 305 307 309 309 308 307 308 311 309 308 310 310 310 312 315 313 313 314 307 307 307 306 307 308 309 310
301 300 299 305 307 310 311 309 307 307 306 304 304 306 306 306 305 305 305 305 306 308 307 307 305 305 307 306 307 309 310 308 312 313 314 314 312 311 310 309 310 306 308 308 309
299 300 299 301 306 310 310 309 307 307 307 306 305 306 304 306 306 305 306 305 307 306 306 304 303 305 304 306 306 307 309 310 309 310 311 311 309 306 308 308 307 311 309 308 309
299 298 301 301 308 310 309 308 307 308 308 305 304 304 304 304 306 307 308 307 306 308 308 305 304 302 299 302 304 303 307 308 310 310 309 310 310 307 305 306 309 310 310 309 311

GFSSW_850_thetae_108.txt.gz
Theta_e
308 308 313 313 315 320 320 320 323 319 320 322 322 321 321 321 321 320 320 319 324 326 329 330 316 317 318 320 318 318 323 324 322 320 320 320 321 317 319 326 328 329 327 331 333
307 308 309 312 310 315 320 319 322 324 323 322 322 321 321 322 322 321 319 320 323 326 326 329 317 316 316 317 318 323 325 324 318 318 318 317 320 319 323 326 327 328 324 329 333
306 305 306 310 309 308 315 319 320 324 324 323 322 321 323 323 321 321 320 320 323 324 324 329 321 318 319 316 317 320 325 320 316 316 315 316 316 319 321 325 323 326 327 330 334
311 311 307 307 308 309 310 316 321 323 323 322 320 320 324 322 323 320 319 319 322 324 322 322 323 320 321 320 317 320 319 319 315 314 315 316 315 318 320 321 321 325 324 329 335
311 311 312 310 311 311 310 311 315 322 322 321 317 319 323 319 321 319 319 319 322 324 321 322 320 321 323 322 318 320 316 316 314 314 314 314 315 317 318 319 318 322 324 329 334
309 310 310 313 313 311 311 312 315 315 321 320 318 320 321 320 320 320 319 320 321 323 320 319 320 321 322 322 321 320 318 316 316 316 316 315 315 314 318 318 317 322 327 328 332
308 308 309 313 312 312 312 313 312 312 320 319 318 320 319 320 319 320 319 319 319 320 320 320 320 321 318 321 319 316 321 321 317 314 315 314 317 316 316 318 323 325 328 328 331
307 306 307 310 313 313 312 313 312 311 321 318 317 320 320 320 320 320 319 318 317 318 320 321 321 321 318 318 317 319 320 324 323 314 312 317 322 318 315 321 322 325 329 328 329
305 306 306 309 310 313 313 314 313 312 320 318 319 320 319 320 319 319 318 318 317 317 319 321 321 320 319 322 324 322 326 325 325 314 315 316 322 315 313 320 322 325 327 329 330
306 307 307 308 309 311 313 315 313 313 319 319 319 319 315 318 319 319 317 318 317 318 319 321 321 320 323 325 330 325 326 323 326 317 313 317 317 318 312 316 320 323 326 327 329
307 307 308 308 309 310 312 315 315 318 320 320 319 320 316 317 319 317 316 316 317 319 321 318 323 326 325 324 326 324 327 328 321 312 314 318 318 317 316 312 318 321 324 326 327
305 306 306 307 308 311 312 316 314 320 321 319 318 318 317 319 318 317 317 317 318 321 319 318 324 324 324 324 324 325 326 328 326 316 315 318 317 316 316 313 313 317 321 324 326
303 303 304 305 308 311 313 313 313 319 319 315 318 315 318 318 318 317 317 317 318 318 320 323 322 320 323 324 324 323 326 327 327 313 312 316 324 324 320 312 312 312 315 321 325
299 300 302 304 307 310 315 313 313 317 315 312 313 314 317 319 319 317 317 317 318 319 318 320 317 322 323 325 325 324 319 322 322 321 327 319 329 327 325 323 313 312 312 315 321
297 299 302 304 308 311 315 315 317 316 319 311 311 314 316 318 318 319 317 317 319 319 319 319 317 320 324 323 323 321 315 316 313 318 313 318 316 324 317 318 317 314 313 315 315
301 301 304 304 305 309 314 316 315 316 320 310 310 312 314 314 318 314 315 316 317 318 318 315 312 317 319 316 320 315 314 314 313 316 322 321 316 325 323 319 320 316 313 313 316
302 304 305 304 304 310 315 316 315 318 307 309 312 313 313 314 316 315 314 315 319 320 320 315 314 311 313 315 313 315 319 319 320 321 327 311 316 321 320 316 317 318 316 316 315
302 304 304 304 306 306 316 314 318 311 312 309 312 311 315 315 317 317 317 319 315 318 318 318 318 312 310 317 315 316 319 320 325 322 322 305 316 318 313 310 313 310 311 312 313
301 302 305 304 304 303 315 314 316 313 310 312 312 314 311 312 315 316 318 319 317 317 320 319 318 312 309 310 314 315 318 315 314 305 312 314 313 313 312 312 309 310 309 309 312
300 304 305 304 302 303 314 313 309 309 311 312 316 315 314 312 315 318 317 318 315 313 315 317 316 312 311 311 311 316 314 317 315 321 321 319 313 316 314 312 313 311 311 313 310
303 305 304 304 303 306 311 309 307 308 311 314 314 314 315 315 317 318 317 313 314 311 312 314 313 310 309 311 314 314 315 315 316 314 319 319 319 313 314 313 311 310 309 308 309
303 305 305 306 304 308 310 306 308 311 311 310 310 313 314 315 316 316 316 312 312 311 314 309 311 315 313 308 309 313 314 315 318 317 315 311 317 309 309 308 307 308 308 309 310
302 301 303 302 308 308 306 308 310 310 309 310 308 311 312 313 314 311 311 310 312 314 314 309 311 314 312 310 309 313 313 314 315 314 318 320 321 317 309 308 308 309 308 309 311
301 304 301 300 301 307 307 309 310 310 306 306 308 311 311 311 311 310 310 307 310 313 309 309 310 314 317 314 312 312 314 313 314 317 318 318 319 316 310 311 311 310 309 309 310
301 301 300 304 304 308 310 309 310 308 306 306 310 311 312 311 309 310 307 308 309 311 309 311 312 310 310 310 312 313 313 313 315 316 317 317 316 316 316 315 314 314 312 311 312
300 301 299 300 300 307 310 310 310 310 307 308 310 311 311 311 311 310 309 309 310 309 310 307 312 309 308 308 310 311 313 313 314 314 315 315 315 314 313 313 313 313 312 310 310
299 299 300 302 303 306 310 310 309 309 306 307 310 310 309 310 308 308 308 308 309 310 311 308 309 312 314 307 309 312 312 313 313 314 314 315 315 312 311 311 311 311 311 310 311

GFSSW_850_thetae_111.txt.gz
Theta_e
306 303 308 315 317 317 319 321 321 320 325 325 325 323 322 321 321 320 320 320 319 320 329 332 324 317 319 319 321 320 325 328 326 325 324 324 325 321 323 327 328 329 327 333 333
306 307 303 311 315 316 316 319 321 319 319 323 323 323 322 321 322 321 320 318 317 321 328 329 322 317 317 319 320 322 327 327 324 321 321 322 324 323 324 326 327 329 330 335 333
309 309 306 306 311 313 313 317 321 320 320 318 321 323 322 322 322 322 321 318 318 321 323 328 321 318 319 319 321 323 328 327 320 318 318 319 319 321 323 324 324 326 330 334 338
308 309 306 306 307 309 310 311 319 320 320 324 322 323 322 322 325 322 321 318 318 323 322 325 325 319 321 320 322 322 325 326 319 316 317 319 318 319 320 323 321 323 329 332 336
308 309 307 304 306 307 308 308 311 319 320 321 324 322 322 321 322 320 319 320 319 323 322 324 327 325 323 321 319 321 324 321 317 316 317 316 318 318 319 320 321 325 331 329 338
308 310 310 309 306 306 306 306 309 312 320 322 323 322 322 321 321 321 318 321 321 322 323 323 326 326 323 324 322 322 322 319 317 319 318 320 319 316 320 319 321 326 330 331 333
308 310 310 310 311 310 309 306 310 310 318 321 323 321 320 319 321 321 320 319 320 322 323 323 323 324 322 322 321 320 322 320 320 320 321 318 324 319 319 319 321 325 328 332 332
306 309 310 310 310 312 311 310 310 311 312 319 317 321 320 319 320 320 319 320 319 320 323 323 320 322 321 320 318 322 323 326 324 320 320 319 327 325 320 319 321 323 326 330 332
305 308 308 308 309 313 313 312 311 313 313 315 315 320 320 320 320 320 319 319 318 319 321 321 320 321 320 323 326 324 328 326 327 323 323 320 327 326 318 319 321 322 324 329 330
304 305 307 306 307 311 314 313 312 313 314 313 314 319 317 319 320 319 319 319 319 320 320 321 321 323 323 326 334 328 328 327 329 324 319 323 323 325 317 318 320 321 323 326 329
305 305 304 305 306 309 312 313 315 315 314 313 318 319 316 320 320 318 319 319 319 320 323 322 324 327 326 325 327 327 326 329 328 322 319 323 325 325 324 319 318 319 321 324 326
305 306 305 306 307 308 310 313 314 314 314 312 311 319 318 319 319 318 318 319 320 322 321 321 326 324 324 324 326 327 328 329 328 315 316 323 324 321 321 322 318 318 319 321 324
307 306 307 308 309 308 309 311 314 314 316 313 312 319 319 319 319 318 318 319 321 322 322 322 322 323 325 325 326 327 328 329 330 322 320 324 327 327 325 321 319 317 316 318 321
305 306 306 306 307 308 309 310 312 314 314 311 318 317 318 320 319 318 319 319 320 323 322 320 321 324 326 327 326 328 323 326 326 325 329 322 330 328 328 327 323 319 317 316 318
302 302 302 303 307 308 308 309 311 314 318 312 316 317 318 319 317 318 318 318 320 321 321 322 321 323 325 324 325 324 322 323 317 322 321 325 325 326 325 327 326 325 320 317 316
299 299 299 302 304 307 307 309 314 315 319 311 311 316 319 318 318 317 317 318 318 319 319 317 315 322 323 322 324 317 316 316 318 321 327 325 325 324 325 324 323 322 322 321 317
297 300 300 304 305 302 309 312 315 317 307 309 312 317 319 320 318 318 316 319 322 321 322 317 318 314 318 318 317 317 323 323 326 326 327 317 325 324 323 323 322 319 320 320 318
298 301 302 303 304 304 305 310 316 315 311 308 314 318 319 319 319 318 318 320 319 318 320 320 319 314 317 318 317 318 322 324 328 325 324 311 323 322 320 317 312 317 315 314 316
299 301 303 304 305 305 304 308 315 312 310 313 317 319 318 317 318 318 318 320 319 318 319 319 319 313 314 316 317 318 321 319 319 310 320 320 318 317 317 317 316 315 314 314 312
300 303 303 303 304 304 303 306 309 311 312 315 319 316 316 314 319 318 319 319 319 318 317 317 318 313 311 315 313 319 317 320 320 326 324 321 322 321 317 318 318 316 314 315 314
301 303 305 305 303 301 305 307 306 311 314 316 317 317 316 315 319 320 320 318 318 318 317 317 317 314 312 316 317 317 318 318 320 321 322 322 321 316 319 316 315 312 310 311 311
301 304 304 304 303 304 306 306 307 309 313 315 317 317 317 318 319 319 320 319 317 317 318 315 315 314 314 310 312 316 317 318 321 320 319 320 320 313 313 312 311 311 311 311 311
302 302 303 305 306 306 306 307 307 312 314 315 316 316 316 318 319 319 318 315 316 316 317 313 316 315 313 312 312 314 317 318 318 317 322 323 321 319 313 311 311 311 311 311 311
301 304 300 302 301 305 308 308 309 312 314 315 316 316 317 318 318 317 316 313 314 315 313 311 315 316 317 316 314 314 315 315 317 319 320 320 320 318 316 315 313 312 313 313 312
301 302 301 305 304 304 306 309 311 312 308 312 313 317 318 316 316 314 312 314 314 314 312 314 316 315 314 314 314 314 314 315 316 318 319 319 318 318 318 318 317 316 315 314 314
300 301 299 302 300 303 305 308 312 307 310 311 314 317 316 315 315 314 312 313 314 314 313 312 318 313 311 313 314 315 316 315 315 316 316 317 317 316 315 315 314 314 314 313 313
300 300 300 303 304 305 307 309 311 310 311 311 314 315 315 314 313 312 311 311 313 315 315 312 311 315 314 312 312 314 314 316 316 315 316 317 317 314 314 314 313 313 312 312 312

GFSSW_850_thetae_114.txt.gz
Theta_e
310 306 304 306 317 318 319 321 322 322 318 326 328 327 325 323 322 321 320 321 321 321 319 328 333 329 323 319 320 321 323 327 327 327 325 324 324 323 324 327 327 327 329 333 330
308 311 306 304 309 317 318 319 320 322 320 319 324 325 325 322 323 322 321 320 320 320 321 329 331 324 318 320 322 324 324 326 325 321 320 323 324 323 324 326 327 329 333 334 332
308 311 311 308 304 311 316 317 318 320 321 320 321 324 324 322 322 322 322 320 319 318 323 328 324 319 319 320 321 322 323 326 323 320 319 319 321 322 323 323 325 328 333 333 335
308 310 310 307 309 304 312 316 315 317 321 320 321 323 322 322 324 322 322 320 318 317 323 328 322 324 322 320 321 322 323 324 319 317 318 319 318 319 320 322 322 324 328 330 333
307 307 309 310 308 309 305 313 313 315 319 320 320 319 321 318 321 320 321 321 319 319 322 327 326 321 323 322 322 323 324 326 318 317 318 317 318 318 319 320 321 325 329 330 331
306 307 308 308 309 308 307 306 311 310 316 320 321 320 318 319 320 321 321 320 320 320 321 325 327 325 323 322 321 322 322 321 318 318 318 319 320 317 320 319 321 327 330 330 328
307 306 306 308 308 307 305 306 307 309 310 318 320 321 321 319 319 322 321 320 320 321 322 323 326 327 325 324 322 321 322 319 318 318 319 319 321 318 321 319 321 324 330 331 329
307 306 307 308 309 308 306 304 306 307 308 310 319 322 321 319 320 321 320 319 321 321 322 323 324 325 323 322 320 321 322 322 321 320 320 321 324 324 324 319 320 322 327 331 332
307 306 307 309 309 310 310 307 305 306 309 310 315 319 318 320 320 321 321 319 320 321 322 323 322 323 322 323 326 323 326 325 326 322 320 318 325 324 324 319 319 321 324 329 332
306 306 306 309 310 310 310 311 310 310 311 312 313 314 314 320 320 320 320 320 319 320 321 322 321 322 322 325 332 329 327 326 325 325 322 320 319 321 320 318 319 320 322 326 329
304 304 306 309 308 309 310 313 314 313 312 314 313 313 315 316 320 320 320 319 319 321 322 322 323 324 323 325 327 327 327 328 326 321 320 321 322 322 323 318 318 319 320 324 327
304 304 304 307 308 307 311 313 312 312 313 314 313 313 314 317 320 320 319 319 320 322 321 322 324 322 322 324 325 327 327 328 327 316 317 320 321 321 322 324 324 319 319 320 324
303 304 304 305 307 307 309 312 312 313 313 313 312 313 314 315 320 319 319 319 320 321 321 321 320 321 323 323 325 327 328 326 328 319 320 320 322 323 323 323 321 321 318 319 320
303 305 305 305 306 307 308 308 312 312 314 314 315 314 314 315 320 319 319 320 320 321 320 320 319 321 321 323 323 326 325 325 326 325 329 321 325 325 324 324 322 320 319 317 317
305 305 305 305 308 307 307 309 311 312 314 313 313 313 313 312 319 319 319 320 321 320 321 321 319 322 323 324 323 325 323 324 320 322 322 325 324 323 322 324 323 323 321 319 318
306 306 306 307 307 307 308 309 310 314 315 313 314 314 314 313 318 318 319 319 320 320 320 318 317 320 322 323 322 317 318 318 317 322 326 324 324 324 323 321 322 324 323 322 320
304 303 304 305 306 309 308 310 311 313 309 311 314 316 315 315 319 319 320 319 321 322 321 319 320 314 319 322 317 319 322 323 326 325 326 318 323 323 321 319 320 320 319 320 322
300 299 301 303 305 304 307 310 310 311 312 309 312 317 316 315 319 320 320 319 319 319 320 321 320 316 319 321 319 321 322 320 323 323 321 311 320 321 321 320 319 319 320 318 317
295 300 302 302 304 304 305 304 310 310 310 311 314 318 318 320 319 319 318 318 319 317 318 318 319 314 318 316 318 319 323 318 316 307 316 316 316 316 316 314 313 313 314 315 315
298 301 302 302 302 304 303 304 306 306 307 313 317 318 317 317 319 320 319 319 319 317 315 316 317 314 310 316 315 318 317 321 319 318 320 319 319 319 315 315 314 313 315 314 315
299 301 301 302 304 303 303 304 304 305 307 309 317 318 315 315 316 319 319 319 318 317 315 315 316 314 313 318 317 317 319 320 320 320 320 319 317 312 316 314 313 309 310 312 311
300 302 303 303 303 304 304 304 303 305 306 307 310 316 314 316 318 319 318 319 318 317 317 315 314 314 315 311 315 317 319 318 321 319 317 317 316 311 309 308 311 310 311 311 311
301 302 303 303 304 304 305 305 305 305 307 307 308 316 316 317 319 319 318 317 318 317 316 313 314 315 314 311 310 317 317 318 315 314 315 316 316 311 308 309 310 310 311 311 311
301 302 300 302 303 304 305 305 306 306 306 307 306 316 316 318 318 318 318 317 317 317 314 314 314 314 316 316 313 315 316 317 317 315 316 317 316 309 308 309 309 311 311 314 315
302 302 302 301 302 304 306 307 307 307 307 309 310 316 317 318 319 319 315 317 317 313 312 314 312 314 314 314 314 315 317 317 318 317 317 316 316 315 314 313 315 314 315 315 314
300 300 298 302 302 302 304 305 306 308 310 309 311 316 317 318 317 318 317 317 317 311 311 312 312 310 307 313 314 314 315 315 317 317 316 315 315 314 315 315 315 315 314 313 312
300 300 301 302 302 301 304 304 307 308 308 310 310 316 317 316 315 315 316 314 315 315 314 313 311 313 309 309 310 310 313 314 314 315 316 316 315 311 311 313 314 314 313 313 312

GFSSW_850_thetae_117.txt.gz
Theta_e
309 306 304 308 317 318 318 321 323 321 320 327 328 330 329 328 325 322 322 323 321 322 321 318 331 331 325 321 320 321 319 324 324 325 322 324 321 323 326 327 328 327 331 332 330
311 309 307 305 311 315 318 317 320 322 322 320 328 328 327 326 323 322 323 321 321 321 320 319 329 328 320 322 322 325 320 323 321 319 319 323 322 323 323 326 328 327 328 330 332
310 309 308 306 306 311 314 318 318 320 322 322 320 325 325 324 322 322 323 321 321 320 321 326 330 321 319 319 321 321 323 323 319 319 319 319 321 322 322 322 327 328 330 330 333
310 309 307 307 307 308 310 315 317 318 320 321 321 320 324 323 324 321 321 321 321 320 324 327 322 321 321 319 320 321 321 322 321 318 318 318 319 319 321 322 321 324 326 328 332
309 309 308 306 308 306 309 311 316 316 318 321 320 323 323 322 321 320 321 321 322 319 322 327 323 322 327 324 323 321 321 323 321 318 318 318 318 317 318 319 321 325 329 328 328
308 309 308 307 308 307 309 306 312 315 315 319 321 320 322 321 321 321 321 321 321 320 322 326 324 323 322 323 326 321 322 321 316 317 317 318 318 318 319 318 323 325 329 329 326
308 308 308 307 307 309 307 310 307 313 312 317 321 320 320 319 319 320 320 321 320 320 321 324 327 325 324 323 322 322 320 320 317 317 319 318 319 316 321 319 325 328 329 330 327
308 308 308 307 307 308 309 307 308 309 311 310 318 321 321 320 319 319 319 321 320 320 321 322 324 326 324 322 320 320 321 320 318 317 319 319 322 321 322 320 321 327 329 329 328
307 308 307 306 306 307 308 307 307 307 309 309 311 318 319 320 319 319 319 319 320 320 321 322 323 323 322 320 322 322 323 323 323 318 318 318 321 322 323 321 319 320 327 328 330
306 307 307 307 306 307 307 307 308 308 309 309 310 314 316 320 320 320 320 321 320 321 321 322 322 320 321 321 326 326 326 324 324 321 317 317 317 319 321 318 319 319 321 327 329
307 306 306 306 307 308 309 310 311 310 311 310 311 313 315 317 319 319 319 320 320 320 322 321 322 323 321 321 323 323 324 325 322 321 320 321 319 317 320 319 317 319 319 323 328
305 305 307 306 308 309 310 310 310 310 311 310 312 311 314 317 320 319 320 320 320 321 320 322 322 320 319 321 323 325 325 326 324 317 320 318 319 318 320 321 321 319 319 319 325
306 306 306 306 308 309 309 310 310 310 309 310 311 313 313 316 318 320 320 320 320 321 320 321 320 319 320 322 324 324 327 327 328 315 317 319 319 320 320 321 322 323 322 323 320
305 304 304 306 308 307 308 310 311 310 308 310 312 312 313 313 314 318 320 319 320 321 320 319 318 320 320 322 322 325 324 324 321 323 326 318 323 320 321 321 320 320 321 321 320
302 304 304 305 308 307 307 309 311 310 310 308 312 312 313 314 314 315 320 319 320 320 319 321 318 319 321 321 321 322 322 320 321 320 322 323 323 320 318 320 320 322 322 321 320
300 302 304 305 306 307 307 308 310 310 311 312 312 313 313 313 313 317 317 320 320 319 319 318 317 318 320 319 319 316 319 319 319 321 326 323 324 322 321 321 319 320 324 324 322
302 304 305 305 306 306 307 308 309 312 308 311 313 314 313 314 313 317 319 319 322 321 321 319 319 316 319 319 318 320 323 324 325 326 324 319 322 324 318 317 317 319 319 323 324
304 305 306 305 307 306 307 310 310 308 308 307 313 312 313 312 313 315 318 318 319 319 320 320 320 318 317 321 320 322 322 318 320 321 318 312 320 319 319 320 320 321 321 319 318
306 306 306 306 307 307 308 307 309 305 308 308 312 314 313 313 312 315 314 319 319 319 321 319 319 315 317 316 319 320 323 315 313 302 312 314 314 314 314 315 314 314 314 317 317
301 301 302 303 304 305 303 306 304 305 307 307 313 314 315 314 314 315 315 318 319 318 315 315 318 315 313 317 316 319 317 321 314 315 318 316 315 316 314 315 313 312 314 315 314
300 301 302 301 303 303 303 296 300 305 306 306 309 312 315 315 313 314 314 314 318 318 313 314 316 314 314 319 320 319 320 318 318 315 317 316 315 311 312 315 313 310 312 312 313
298 295 301 302 303 302 298 297 302 303 304 307 306 307 308 315 316 316 315 315 316 317 315 314 314 316 319 310 312 317 319 320 321 319 315 314 315 310 309 309 308 309 310 311 310
300 301 303 303 303 302 300 302 303 302 304 307 307 305 306 310 316 317 317 315 316 317 315 312 314 316 314 314 312 318 318 319 315 313 317 316 315 308 306 306 309 310 311 311 312
300 301 301 302 302 299 298 301 302 304 304 304 306 306 307 307 311 316 318 317 317 317 314 312 313 316 319 318 316 319 319 319 314 314 314 318 314 307 307 307 307 310 311 311 313
300 297 301 302 301 303 302 302 303 303 304 304 304 305 306 307 307 317 318 317 317 317 313 312 313 312 313 314 315 316 317 319 318 316 317 317 314 308 307 306 308 311 311 314 314
300 300 299 300 301 302 303 303 304 304 306 306 306 305 306 306 307 316 318 318 319 315 315 311 314 310 308 312 315 316 316 318 318 318 317 314 314 312 310 312 310 312 313 314 313
299 299 301 301 302 303 302 302 303 303 304 306 307 307 308 308 307 307 316 317 317 316 316 313 310 310 307 309 311 312 316 317 317 317 317 316 315 310 310 310 312 314 313 312 312

GFSSW_850_thetae_123.txt.gz
Theta_e
312 313 310 304 316 319 320 323 321 320 325 327 329 329 328 327 328 328 326 325 324 323 323 322 322 324 330 326 320 321 318 322 324 320 321 322 321 323 326 327 327 329 327 329 330
310 314 313 308 305 316 319 320 323 320 321 325 327 328 329 328 328 327 326 324 322 322 322 322 320 328 327 324 321 320 317 321 321 319 320 322 322 325 326 327 328 328 329 330 329
310 312 314 312 305 309 317 319 320 322 321 322 325 327 329 329 328 328 327 326 323 322 321 320 322 327 321 320 322 321 320 320 319 317 321 320 320 322 324 324 324 324 326 329 329
309 310 313 313 310 304 314 318 318 320 322 321 322 325 326 327 328 326 327 326 323 322 321 321 325 324 319 317 319 321 320 322 320 318 318 319 321 320 323 323 323 324 323 325 327
310 308 311 313 311 307 307 317 318 318 321 322 321 324 326 325 324 322 326 327 325 324 321 324 321 322 321 319 320 319 320 321 322 323 320 317 318 318 320 321 322 324 325 325 325
308 308 309 312 312 308 305 311 317 317 318 321 321 323 324 323 322 321 323 325 326 326 322 323 322 322 324 324 322 323 321 322 321 317 316 315 316 316 318 318 320 320 322 325 324
309 310 308 310 312 309 306 306 311 317 318 320 322 321 322 321 322 321 322 323 323 322 321 321 321 321 320 320 326 326 322 319 318 316 316 317 316 315 318 318 319 320 323 326 326
308 310 308 309 312 310 308 306 309 315 317 318 321 321 321 321 321 321 321 321 322 322 321 320 321 322 322 321 319 322 321 325 319 316 316 317 319 318 318 318 320 320 323 325 326
307 308 309 308 310 310 307 307 309 314 315 317 320 320 319 320 320 320 321 320 321 320 321 321 321 321 321 318 319 316 321 322 322 316 316 316 318 318 321 318 319 321 322 324 326
307 308 309 307 309 310 308 308 309 313 313 314 317 317 315 318 320 319 320 321 320 320 319 319 320 322 320 322 323 319 321 321 323 319 316 316 314 315 320 318 319 320 322 325 325
307 307 308 306 309 310 308 309 310 310 312 311 312 312 314 316 319 319 320 320 320 320 320 318 320 323 324 322 320 318 320 321 319 319 317 317 316 315 317 316 317 318 319 322 325
308 307 308 307 309 309 308 309 310 309 311 310 309 314 314 317 318 319 319 320 319 320 320 320 321 319 321 321 321 321 322 321 320 319 318 319 319 315 315 317 318 320 320 318 319
308 307 307 308 308 308 307 309 309 309 309 309 310 311 315 316 317 318 319 319 319 319 320 321 319 318 320 321 322 320 321 321 322 317 316 317 319 318 315 319 320 321 322 322 322
307 307 307 307 308 307 309 309 308 308 304 308 308 309 312 316 315 317 319 319 319 320 318 319 318 319 320 322 321 322 319 322 323 320 323 317 322 321 318 318 316 319 321 323 323
306 308 307 307 308 307 307 308 308 308 301 305 307 308 311 314 313 317 318 319 318 320 319 320 318 319 320 320 319 320 320 322 321 319 320 322 325 320 317 318 318 319 320 322 323
307 307 307 308 307 307 307 308 308 308 306 307 309 310 311 312 312 315 317 318 318 318 317 318 318 318 318 318 318 317 318 318 317 319 324 321 322 319 319 318 317 318 322 323 323
306 307 307 308 307 307 307 308 309 310 304 310 309 310 309 311 311 313 316 317 319 319 319 319 318 316 318 319 319 319 321 323 325 324 321 315 318 320 316 316 317 319 321 322 322
306 306 307 307 306 307 308 309 310 307 305 308 309 310 309 309 310 312 312 315 316 316 316 318 319 317 317 318 319 320 320 317 320 320 317 314 320 318 316 318 319 320 320 321 321
307 308 307 307 306 307 308 310 308 305 307 310 309 311 310 310 308 310 312 312 312 316 318 320 319 316 316 316 318 320 321 314 312 299 311 314 313 312 311 312 314 315 319 320 320
307 306 306 307 306 307 307 308 306 306 308 310 311 310 309 310 309 310 311 310 312 312 314 317 319 316 316 316 316 319 318 320 314 313 315 314 313 315 313 316 315 312 314 318 320
306 306 306 306 307 308 308 308 302 304 307 310 311 312 310 310 310 310 309 309 311 313 314 316 317 316 316 318 320 318 321 318 317 312 315 313 313 309 314 314 314 314 315 317 319
304 302 306 307 307 306 306 302 302 305 305 306 307 307 310 309 310 309 309 308 309 311 316 315 316 316 319 317 316 318 319 319 321 318 312 311 315 309 309 310 312 314 316 318 318
302 302 306 306 305 303 301 301 303 305 305 305 305 305 306 310 311 310 310 308 311 310 313 314 315 317 318 317 313 319 319 319 319 312 317 318 317 307 304 305 308 312 315 315 314
303 302 301 304 301 300 300 302 301 303 304 305 304 304 306 306 306 308 309 310 308 312 310 313 312 314 317 317 318 319 319 318 320 320 319 317 316 311 308 307 306 309 313 315 314
300 297 300 303 298 298 300 301 301 302 302 303 303 304 304 305 305 305 306 306 306 307 308 314 314 311 312 314 316 319 319 319 320 319 319 318 316 315 312 306 307 311 310 310 310
299 299 298 293 300 297 300 300 302 301 301 302 302 302 303 303 304 304 305 306 307 308 309 311 315 313 314 313 314 317 318 319 318 319 319 318 317 314 314 313 307 309 309 309 310
299 300 300 299 296 298 298 299 301 300 301 302 302 302 303 303 302 302 304 306 308 308 309 311 314 314 316 313 313 316 318 318 319 318 318 319 317 310 309 307 307 309 309 310 311

GFSSW_850_thetae_129.txt.gz
Theta_e
310 309 314 314 306 313 319 322 322 321 319 325 329 330 326 328 330 331 331 329 329 327 324 322 321 321 324 326 320 320 318 321 323 319 320 319 320 323 325 327 329 330 328 326 328
309 310 310 314 312 306 316 321 321 322 318 322 326 329 327 327 329 330 330 329 329 328 324 322 322 322 325 326 320 318 319 320 320 318 319 320 320 323 325 327 329 327 328 327 328
309 309 311 310 314 309 307 318 321 322 321 318 323 326 328 328 329 328 327 329 328 327 325 322 322 322 325 323 321 318 319 317 319 317 317 320 319 324 324 324 326 327 326 326 329
311 308 311 311 311 313 306 311 319 321 322 318 320 325 327 327 329 327 327 328 326 325 323 321 321 322 320 321 320 321 320 321 321 317 317 318 319 320 324 325 324 325 325 325 327
312 308 310 311 311 311 313 305 316 319 322 321 319 323 326 327 326 325 326 328 326 323 322 321 322 322 321 319 318 319 320 320 321 321 321 317 317 319 320 323 323 321 323 323 325
312 310 310 312 311 311 312 306 310 319 320 322 319 320 324 324 325 324 326 327 325 322 321 321 321 322 322 321 319 321 319 321 320 318 318 316 316 315 318 319 321 321 323 324 324
312 312 308 311 310 309 310 312 307 316 319 321 320 319 323 323 323 323 324 326 325 326 321 322 322 321 321 322 323 323 324 321 319 321 318 315 316 313 321 318 318 318 320 323 323
312 312 309 310 311 309 311 313 305 314 318 320 322 321 320 321 322 322 323 322 321 320 322 322 322 321 320 320 317 322 323 327 324 314 317 317 327 317 320 317 318 319 318 319 321
314 311 311 309 309 309 311 312 306 313 316 318 322 321 320 320 321 321 322 322 321 319 320 323 322 322 322 318 320 315 319 323 325 315 315 314 319 316 319 316 317 318 319 319 320
310 310 311 308 307 308 311 312 308 315 316 318 319 317 317 320 321 321 321 323 323 323 321 322 322 323 321 322 328 321 319 318 323 321 313 315 315 313 317 317 318 318 318 319 320
308 309 311 309 307 309 311 310 310 314 316 315 316 314 316 318 320 321 322 321 321 321 322 320 322 323 323 323 320 316 318 318 317 318 315 315 314 315 317 315 316 319 319 319 320
306 307 310 310 308 309 312 309 308 309 312 312 316 315 316 316 319 320 321 320 320 321 319 320 324 320 321 322 323 321 321 320 318 317 317 318 318 317 315 315 317 319 320 320 321
305 307 309 310 309 309 312 308 308 308 310 310 313 314 317 318 319 320 320 320 320 320 320 322 320 319 321 322 324 322 323 322 321 318 316 315 317 317 314 317 319 319 320 321 322
303 306 308 309 309 310 311 308 309 308 303 309 310 313 315 316 316 319 320 319 319 320 318 320 318 320 321 322 322 323 319 321 321 322 323 315 319 317 311 313 314 316 316 316 316
303 305 306 309 310 310 309 308 308 308 308 306 308 309 313 314 314 317 319 318 319 320 319 319 318 319 321 320 320 321 319 320 320 322 321 320 322 320 315 315 314 315 316 318 317
304 305 308 308 310 310 310 308 309 308 309 309 308 309 310 312 312 316 318 317 317 318 317 317 316 317 318 317 318 317 319 318 318 320 324 323 322 317 317 317 316 316 318 318 317
303 304 306 307 310 310 308 308 307 309 302 308 309 310 309 309 311 312 316 318 319 320 320 318 318 316 317 318 318 319 319 323 323 322 323 311 319 321 313 313 314 316 317 317 316
303 304 305 309 310 309 308 307 308 299 303 305 308 310 310 309 310 311 312 314 316 314 317 319 320 317 315 318 320 321 320 322 322 321 317 312 318 316 313 316 316 316 317 317 317
304 303 308 310 309 309 308 309 306 298 303 306 308 309 309 309 309 310 311 311 313 314 314 317 317 314 315 315 317 319 321 315 313 298 310 312 312 311 310 311 313 314 316 317 317
304 306 305 309 308 308 308 307 302 302 305 306 308 308 308 310 308 307 309 308 310 311 312 313 314 313 314 316 316 318 317 321 316 320 316 314 312 315 312 312 312 312 315 317 316
304 303 308 309 308 308 308 300 306 305 306 304 305 308 307 309 306 308 306 306 308 308 312 314 313 315 314 317 318 318 320 318 319 316 318 313 315 308 313 312 312 311 314 314 315
305 303 309 309 308 307 307 302 306 306 307 307 305 304 304 306 308 307 305 304 307 310 312 312 313 315 314 314 312 315 318 318 320 317 312 312 319 308 308 308 309 312 314 314 313
304 308 309 308 306 306 303 304 305 306 305 306 305 306 305 305 307 306 305 306 306 308 310 310 312 308 313 314 314 317 317 317 317 315 315 315 318 308 308 308 312 310 312 311 312
307 307 307 304 304 305 304 305 305 304 304 303 305 305 305 305 303 305 305 307 306 307 309 312 308 310 309 311 312 317 317 318 318 320 319 318 317 315 310 309 310 313 314 315 315
306 300 301 303 304 305 304 303 306 306 304 303 304 305 305 307 306 301 305 306 306 309 309 309 311 308 308 309 310 313 314 316 318 318 320 318 316 316 315 314 314 315 316 316 316
303 302 303 299 302 303 304 303 305 301 304 304 303 305 305 304 306 305 305 307 309 307 306 306 307 309 310 308 308 309 309 310 312 314 314 317 317 315 315 315 314 314 315 315 316
304 303 304 302 301 300 297 302 301 300 301 302 302 302 303 303 304 305 306 305 305 307 309 310 308 306 309 307 307 310 309 309 309 309 310 312 312 312 313 313 312 314 315 314 315

GFSSW_850_thetae_132.txt.gz
Theta_e
310 308 312 314 313 308 316 320 320 321 320 321 327 329 329 327 329 331 332 330 329 328 328 325 323 321 321 323 321 320 329 331 331 327 326 320 326 323 325 329 330 331 329 326 329
311 309 309 309 315 311 309 317 320 321 321 318 322 326 329 327 330 330 329 330 328 329 325 323 322 322 324 324 321 324 327 328 325 324 324 322 323 324 327 329 330 330 329 327 326
311 311 309 310 309 314 308 311 318 321 321 321 318 325 328 328 330 330 329 329 329 329 329 323 322 322 324 324 322 322 324 325 323 320 318 321 321 325 326 329 328 329 329 327 327
313 311 310 309 310 311 314 307 315 319 321 321 319 322 327 328 331 328 328 329 328 329 326 324 322 323 324 326 323 324 322 322 322 317 319 322 321 323 326 326 325 327 327 326 326
313 313 312 310 309 311 313 309 307 318 320 321 320 320 325 326 327 324 327 328 327 326 323 322 322 322 324 323 321 326 324 322 322 321 321 317 321 323 322 325 324 322 322 324 325
313 313 312 312 308 310 310 313 306 310 319 321 321 319 323 324 325 324 323 323 323 324 322 321 321 322 323 323 323 323 323 324 322 320 318 319 321 316 320 320 322 323 321 323 323
311 313 312 312 308 310 310 311 312 306 317 320 321 320 323 322 323 324 323 321 325 324 321 321 321 321 323 324 322 323 325 324 324 325 323 317 322 319 321 319 319 322 324 321 323
310 312 313 312 309 309 311 310 313 307 315 319 321 321 320 321 322 323 323 324 324 325 325 322 321 321 321 318 321 326 326 329 326 322 323 322 331 327 322 319 321 321 322 322 321
310 311 312 312 310 310 312 310 311 310 313 318 320 321 320 320 322 322 323 324 324 322 321 321 322 322 321 323 325 322 329 327 327 320 320 321 330 328 322 318 320 322 321 322 324
309 311 312 312 311 309 311 309 311 309 313 317 318 320 317 320 320 321 322 322 322 321 320 319 322 322 322 325 331 328 326 323 326 323 319 324 323 325 320 318 321 322 321 320 322
309 310 310 312 311 309 311 310 312 310 313 315 316 316 317 319 319 321 321 322 320 321 322 321 321 319 319 322 322 322 322 322 320 321 321 323 323 322 321 321 320 321 321 320 320
308 310 310 312 312 309 310 312 311 311 313 313 315 315 315 317 319 319 321 321 321 322 321 322 321 319 318 321 323 322 323 321 321 319 319 322 323 322 321 321 321 322 322 322 321
307 308 310 312 311 309 309 311 310 312 312 311 314 315 316 317 318 320 320 320 321 322 322 323 321 320 321 322 324 323 322 321 322 320 321 321 324 323 322 320 320 320 321 322 324
306 307 307 308 311 309 309 311 309 311 312 311 312 314 316 317 317 318 320 320 320 321 321 322 318 321 322 323 323 324 320 321 321 320 325 320 326 323 321 320 318 317 319 319 319
303 306 306 307 309 309 309 311 309 309 314 310 311 311 315 316 316 319 320 318 320 320 320 320 321 322 323 323 321 322 321 322 321 322 322 321 323 321 321 321 321 320 320 318 317
304 304 306 308 310 307 311 310 308 309 311 309 309 312 313 313 313 317 318 315 317 319 319 319 318 320 321 320 321 319 321 321 322 323 325 322 322 321 322 322 321 320 320 319 318
304 303 304 306 308 310 310 308 308 312 307 309 311 312 313 313 313 315 317 318 316 319 320 319 318 317 318 321 320 321 322 325 326 325 322 317 322 322 321 320 319 319 319 319 318
302 303 304 305 309 310 309 309 312 307 308 308 309 312 313 312 312 313 317 318 313 315 318 319 321 319 318 320 321 321 321 322 322 324 321 316 322 322 320 320 320 318 317 317 317
303 305 305 307 308 309 308 310 308 308 307 309 309 311 312 312 312 313 315 315 316 315 317 319 317 317 318 317 319 321 321 319 317 308 319 319 319 317 317 317 316 315 316 317 317
303 305 304 305 309 308 308 309 306 305 307 309 310 309 311 312 312 312 313 312 314 315 313 314 317 315 317 317 318 320 318 321 318 325 323 320 319 319 317 316 317 317 316 316 315
304 305 304 302 308 308 309 306 306 306 307 309 309 310 309 311 311 311 311 310 311 315 314 315 315 316 317 319 319 319 320 318 320 320 324 323 320 318 319 318 317 315 314 313 313
304 304 304 304 308 306 307 306 307 307 307 307 307 308 309 310 310 311 311 310 310 310 315 314 314 316 316 316 315 318 318 319 321 320 319 319 319 315 316 314 311 314 314 312 312
302 305 304 306 307 306 306 307 307 308 308 307 307 307 307 309 309 309 308 306 307 311 311 314 314 315 314 314 314 318 318 318 318 317 320 320 319 315 315 314 314 311 314 315 315
304 306 306 308 305 306 307 308 307 305 305 305 306 307 307 308 305 309 308 308 307 310 311 312 312 312 312 311 312 314 315 317 319 319 319 319 318 317 316 317 317 315 315 316 315
303 301 301 303 306 308 308 307 307 307 304 305 307 307 308 308 307 307 308 307 308 308 310 312 313 311 312 310 313 315 315 314 316 318 317 317 318 317 317 317 316 314 314 315 315
301 301 302 303 305 307 307 307 307 305 306 305 308 307 307 307 307 307 308 308 309 308 310 310 314 311 311 311 311 311 311 312 313 315 317 318 319 318 316 315 315 315 315 315 315
303 304 306 305 306 307 307 307 305 305 302 304 307 307 307 306 306 306 307 307 308 309 310 310 310 310 311 310 311 312 311 310 311 311 313 316 316 315 314 313 311 310 310 311 311

GFSSW_850_thetae_135.txt.gz
Theta_e
312 312 310 310 314 312 311 318 320 320 319 322 325 329 330 328 327 330 332 332 332 330 329 328 329 323 323 324 323 324 328 331 331 332 331 325 329 327 328 329 330 331 330 331 336
315 311 311 309 312 315 309 313 320 320 320 320 321 325 329 330 327 329 328 328 330 330 328 325 326 324 325 325 324 324 328 329 329 330 329 325 326 327 328 328 330 331 332 331 331
315 315 311 310 308 313 315 308 312 320 321 320 321 320 326 329 328 328 328 328 329 329 329 325 324 324 325 326 325 325 327 326 327 326 323 326 324 324 326 327 327 329 331 332 334
311 314 313 311 309 309 311 315 308 313 319 321 321 319 322 327 329 327 329 328 328 329 330 327 324 324 325 326 325 325 324 324 324 320 321 324 325 325 326 326 327 328 329 333 335
311 311 314 311 311 309 309 314 310 308 318 319 321 320 321 325 326 325 325 326 328 328 327 325 326 324 327 326 326 326 325 324 324 322 322 321 322 325 326 326 325 324 327 332 333
310 310 311 314 311 310 310 310 314 308 314 318 320 321 321 323 325 325 325 324 326 328 325 324 325 325 325 325 325 325 325 326 324 324 322 322 323 320 323 324 325 325 326 328 331
309 309 309 313 313 311 309 310 312 311 307 317 320 321 322 321 322 323 323 324 325 327 323 323 323 323 325 325 324 325 326 325 325 325 325 322 325 324 322 320 321 323 325 326 328
308 308 309 310 314 312 311 308 311 313 306 314 319 321 321 320 322 322 323 324 322 324 324 322 321 322 324 323 325 326 326 328 326 326 325 325 325 326 325 323 322 323 324 325 327
306 308 309 310 313 313 312 308 311 312 311 311 318 321 321 319 321 322 323 323 322 323 322 322 321 322 322 324 327 326 328 328 327 326 326 325 325 324 327 327 325 324 325 325 325
305 307 308 310 313 313 312 309 311 311 312 313 317 319 318 319 320 322 322 323 322 323 323 322 323 322 323 326 331 328 328 327 328 327 325 326 325 324 325 324 326 326 327 327 326
304 306 308 310 312 313 312 311 313 312 312 311 315 317 314 318 319 321 323 322 321 322 323 321 324 322 321 324 321 325 325 327 326 323 323 325 325 325 324 323 323 324 326 326 326
303 305 308 310 312 313 311 312 312 312 313 312 314 316 316 315 317 321 323 321 322 323 322 322 324 322 320 319 319 321 322 325 324 322 322 324 325 324 324 324 323 322 322 322 325
303 305 308 310 312 313 311 311 312 312 312 312 313 315 315 317 319 320 321 321 321 323 324 324 323 321 321 320 321 319 322 322 324 323 322 323 325 324 324 324 323 323 323 321 321
303 306 308 309 311 314 311 312 312 312 313 313 312 313 315 315 316 318 319 320 320 322 322 323 321 321 321 322 321 321 322 322 322 323 324 321 326 324 324 325 325 323 322 322 322
301 303 308 310 310 313 311 312 312 312 315 313 311 313 316 316 315 317 320 320 321 321 321 322 321 322 322 321 320 321 321 322 323 323 323 322 324 323 322 322 323 322 322 322 321
305 302 306 311 310 313 311 311 311 311 316 312 312 314 316 315 316 318 318 317 318 320 320 320 320 321 322 321 321 321 322 322 322 322 328 322 323 323 322 322 322 322 322 322 322
302 304 308 309 309 309 311 310 312 314 308 311 313 313 314 315 315 317 318 318 315 320 321 319 321 319 320 322 322 322 323 325 327 327 323 320 321 322 321 321 322 322 321 320 320
303 304 306 307 309 309 309 310 314 311 310 309 312 313 315 314 315 316 318 315 314 313 318 321 322 321 320 321 323 322 323 323 324 326 322 319 321 320 320 320 320 320 321 320 318
302 303 306 306 307 308 309 311 313 310 310 311 312 313 314 313 314 316 316 317 315 315 318 319 320 319 319 320 320 322 323 320 321 314 321 320 319 319 319 319 318 318 318 318 318
304 306 305 306 307 307 306 310 308 309 309 312 312 314 315 314 314 314 316 315 316 315 315 317 320 318 317 318 319 320 319 321 321 323 321 318 318 318 319 318 318 318 317 317 315
304 305 304 304 307 308 308 308 306 308 309 312 312 313 313 314 315 315 315 314 315 316 315 315 317 317 318 319 319 319 321 320 320 320 322 321 319 318 319 319 317 316 315 314 311
304 303 305 304 303 304 307 306 306 310 309 308 310 311 314 312 313 314 314 314 313 316 317 315 315 319 319 317 317 318 319 319 320 322 321 321 322 318 318 318 315 315 315 314 315
302 305 305 305 306 307 305 308 308 310 308 309 310 309 310 313 314 313 311 309 310 312 316 314 316 318 319 316 316 318 319 319 318 318 322 322 320 316 316 316 316 316 317 317 316
302 305 303 302 300 306 307 309 309 308 308 308 309 309 310 311 308 313 311 308 308 310 312 314 315 315 316 314 314 316 316 317 318 319 319 318 316 315 315 316 316 316 317 315 316
304 301 302 303 302 308 309 309 309 308 307 307 308 309 310 310 308 311 310 309 309 309 311 312 314 312 312 311 311 313 314 314 315 316 316 316 316 316 316 315 317 316 316 315 315
302 303 302 302 304 309 309 309 309 307 308 308 309 309 308 309 309 309 309 309 309 309 312 311 312 311 312 311 311 312 314 315 315 315 315 316 317 316 314 314 316 314 313 313 311
303 304 305 304 307 309 310 309 308 307 307 308 308 308 309 308 308 308 308 308 309 309 310 311 311 312 312 311 311 312 312 311 312 313 314 315 315 315 315 315 314 311 310 310 310

GFSSW_850_thetae_138.txt.gz
Theta_e
316 314 311 311 310 314 312 312 318 321 320 321 323 327 330 330 328 327 330 331 333 332 329 329 330 329 324 325 324 324 326 329 330 331 331 328 329 328 328 330 330 330 331 332 333
314 316 314 312 311 310 315 311 312 319 321 320 320 322 327 329 330 328 327 328 331 331 330 326 327 327 325 326 325 324 327 328 328 328 328 325 326 328 328 328 330 331 331 335 331
311 314 316 314 311 311 311 314 311 312 319 320 320 320 322 327 328 330 329 328 328 329 329 328 325 326 326 326 326 325 325 325 326 324 323 324 326 325 327 326 328 330 332 333 332
309 311 313 315 313 311 309 314 314 309 314 320 320 321 320 323 328 328 327 328 328 328 330 328 328 325 325 327 326 326 325 325 324 322 321 323 324 326 325 326 327 327 331 332 332
311 309 310 313 315 311 311 309 314 314 309 316 320 321 320 323 325 326 328 329 328 328 329 328 327 326 326 326 326 326 326 325 325 324 322 323 323 322 325 327 326 326 330 332 334
310 311 310 311 314 314 311 309 309 314 310 310 319 321 321 322 322 324 326 326 327 328 328 327 326 326 326 325 326 326 326 326 325 325 324 323 322 323 323 325 325 326 325 331 332
309 310 310 311 311 314 313 310 309 311 314 308 316 319 321 321 323 322 325 326 325 326 327 326 325 324 324 324 325 325 325 325 325 325 325 323 323 323 324 324 322 325 325 326 329
308 309 310 310 310 311 314 311 310 310 313 309 313 319 319 321 322 322 324 324 324 325 325 324 323 323 323 324 325 325 325 327 325 325 325 324 326 323 324 324 323 322 323 325 326
306 308 308 309 310 310 313 313 311 309 312 311 310 317 318 320 321 321 322 324 324 324 324 324 323 322 323 324 326 326 328 327 326 325 325 324 326 324 324 323 324 324 323 323 325
304 305 307 308 309 309 311 314 312 310 311 312 311 316 316 318 320 321 321 322 323 323 323 323 322 322 322 324 328 328 328 326 326 325 326 325 324 323 324 325 326 327 327 326 325
302 302 304 307 308 309 311 315 314 311 312 313 311 313 315 316 318 321 321 323 322 322 323 323 323 324 323 321 321 323 321 326 325 323 323 325 325 323 324 325 323 324 325 325 326
301 301 302 305 307 308 312 315 312 312 313 312 311 313 316 316 319 321 320 322 322 322 322 322 324 321 321 320 321 322 320 321 323 322 322 322 323 321 322 323 324 324 324 323 322
301 301 302 303 306 308 312 314 312 312 313 312 313 315 314 316 317 317 321 321 321 322 323 322 321 321 321 321 322 321 321 322 322 321 321 322 323 322 322 322 323 323 324 324 323
301 302 301 302 305 308 312 314 312 312 313 313 313 312 314 315 316 316 317 321 320 322 321 322 320 322 321 322 321 322 318 320 322 321 324 321 326 320 320 321 321 323 323 323 323
301 301 301 302 305 308 311 314 312 313 315 313 313 313 315 315 315 316 318 317 316 320 320 322 322 323 323 322 321 323 319 320 321 322 321 321 324 321 319 320 320 320 323 324 323
300 302 302 302 305 307 312 313 312 312 315 313 313 314 315 315 315 317 317 318 317 320 320 319 319 320 321 321 320 319 320 321 322 323 324 322 321 320 320 320 320 320 321 322 322
300 302 302 304 306 309 311 313 313 313 311 311 313 314 314 315 315 316 318 317 314 319 322 320 320 319 320 320 320 321 322 323 325 324 324 319 321 320 318 318 319 321 321 320 319
300 301 302 304 304 308 312 313 315 312 312 311 312 313 314 316 315 316 317 317 312 312 316 320 321 320 319 320 322 322 321 323 324 323 320 318 318 318 318 318 318 320 320 319 318
300 301 303 303 304 307 311 311 313 312 310 312 312 312 314 314 314 315 313 316 315 310 317 319 321 319 319 320 321 322 322 319 319 308 316 318 318 317 316 316 318 317 318 317 315
301 301 301 303 304 307 310 311 308 311 311 311 312 313 314 314 314 315 315 314 315 310 313 313 318 317 320 319 319 320 319 320 320 320 319 316 316 316 318 318 316 315 315 314 313
300 300 304 303 306 310 310 309 305 310 311 312 313 313 312 313 313 314 313 313 314 315 315 314 315 315 317 320 320 319 321 320 320 317 320 318 316 315 316 314 313 313 313 315 315
301 302 303 308 305 301 307 304 308 309 311 311 311 312 311 312 312 314 313 313 315 314 317 315 314 317 318 316 316 318 320 319 319 320 317 317 318 316 315 313 314 314 316 316 315
300 305 304 302 306 306 304 306 309 310 310 311 312 312 312 311 312 312 312 309 315 315 315 314 314 317 318 315 318 318 317 318 319 316 317 316 315 313 313 313 315 315 316 316 315
302 304 301 300 301 306 307 307 309 309 309 309 310 310 312 312 310 312 310 308 308 314 314 314 315 316 318 315 316 318 318 318 318 319 317 318 317 316 314 311 314 316 316 315 314
303 301 302 303 302 306 308 308 307 308 309 308 309 310 311 311 309 309 309 308 309 310 313 314 313 314 314 313 312 312 315 316 317 316 317 315 315 314 312 313 313 314 315 314 311
302 302 302 302 301 306 308 308 308 307 308 308 309 310 309 308 308 310 310 309 309 309 311 311 309 311 309 311 311 312 313 314 313 313 313 314 314 312 314 313 314 315 314 310 309
304 303 304 303 302 304 309 308 307 308 308 309 309 308 309 308 308 309 309 309 309 309 311 311 308 307 306 310 310 310 310 310 311 312 313 314 313 312 311 312 312 311 310 309 310